[[{"header":{"parameterUnit":"m.s-1","parameterCategory":1,"la1":31.0,"la2":29.5877,"lo1":-88.7671,"lo2":-86.6584,"dy":0.0162,"dx":0.0185,"nx":115,"ny":88,"refTime":"2023-06-26T18:00:00:Z","depth":0,"parameterNumber":2,"parameterNumberName":"U-component_of_WINDS"},"data":[0.0,0.0,0.0,0.0,0.0,0.0,0.0,0.0,0.0,0.0,0.0,0.0,0.0,0.0,0.0,0.0,0.0,0.0,0.0,0.0,0.0,0.0,0.0,0.0,0.0,0.0,0.0,0.0,0.0,0.0,0.0,0.0,0.0,0.0,0.0,0.0,0.0,0.0,0.0,0.0,0.0,0.0,0.0,0.0,0.0,0.0,0.0,0.0,0.0,0.0,0.0,0.0,0.0,0.0,0.0,0.0,0.0,0.0,0.0,0.0,0.0,0.0,0.0,0.0,0.0,0.0,0.0,0.0,0.0,0.0,0.0,0.0,0.0,0.0,0.0,0.0,0.0,0.0,0.0,0.0,0.0,0.0,0.0,0.0,0.0,0.0,0.0,0.0,0.0,0.0,0.0,0.0,0.0,0.0,0.0,0.0,0.0,0.0,0.0,0.0,0.0,0.0,0.0,0.0,0.0,0.0,0.0,0.0,0.0,0.0,0.0,0.0,0.0,0.0,0.0,0.0,0.0,0.0,0.0,0.0,0.0,0.0,0.0,0.0,0.0,0.0,0.0,0.0,0.0,0.0,0.0,0.0,0.0,0.0,0.0,0.0,0.0,0.0,0.0,0.0,0.0,0.0,0.0,0.0,0.0,0.0,0.0,0.0,0.0,0.0,0.0,0.0,0.0,0.0,0.0,0.0,0.0,0.0,0.0,0.0,0.0,0.0,0.0,0.0,0.0,0.0,0.0,0.0,0.0,0.0,0.0,0.0,0.0,0.0,0.0,0.0,0.0,0.0,0.0,0.0,0.0,0.0,0.0,0.0,0.0,0.0,0.0,0.0,0.0,0.0,0.0,0.0,0.0,0.0,0.0,0.0,0.0,0.0,0.0,0.0,0.0,0.0,0.0,0.0,0.0,0.0,0.0,0.0,0.0,0.0,0.0,0.0,0.0,0.0,0.0,0.0,0.0,0.0,0.0,0.0,0.0,0.0,0.0,0.0,0.0,0.0,0.0,0.0,0.0,0.0,0.0,0.0,0.0,0.0,0.0,0.0,0.0,0.0,0.0,0.0,0.0,0.0,0.0,0.0,0.0,0.0,0.0,0.0,0.0,0.0,0.0,0.0,0.0,0.0,0.0,0.0,0.0,0.0,0.0,0.0,0.0,0.0,0.0,0.0,0.0,0.0,0.0,0.0,0.0,0.0,0.0,0.0,0.0,0.0,0.0,0.0,0.0,0.0,0.0,0.0,0.0,0.0,0.0,0.0,0.0,0.0,0.0,0.0,0.0,0.0,0.0,0.0,0.0,0.0,0.0,0.0,0.0,0.0,0.0,0.0,0.0,0.0,0.0,0.0,0.0,0.0,0.0,0.0,0.0,0.0,0.0,0.0,0.0,0.0,0.0,0.0,0.0,0.0,0.0,0.0,0.0,0.0,0.0,0.0,0.0,0.0,0.0,0.0,0.0,0.0,0.0,0.0,0.0,0.0,0.0,0.0,0.0,0.0,0.0,0.0,0.0,0.0,0.0,0.0,0.0,0.0,0.0,0.0,0.0,0.0,0.0,0.0,0.0,0.0,0.0,0.0,0.0,0.0,0.0,0.0,0.0,0.0,0.0,0.0,0.0,0.0,0.0,0.0,0.0,0.0,0.0,0.0,0.0,0.0,0.0,0.0,0.0,0.0,0.0,0.0,0.0,0.0,0.0,0.0,0.0,0.0,0.0,0.0,0.0,0.0,0.0,0.0,0.0,0.0,0.0,0.0,0.0,0.0,0.0,0.0,0.0,0.0,0.0,0.0,0.0,0.0,0.0,0.0,0.0,0.0,0.0,0.0,0.0,0.0,0.0,0.0,0.0,0.0,0.0,0.0,0.0,0.0,0.0,0.0,0.0,0.0,0.0,0.0,0.0,0.0,0.0,0.0,0.0,0.0,0.0,0.0,0.0,0.0,0.0,0.0,0.0,0.0,0.0,0.0,0.0,0.0,0.0,0.0,0.0,0.0,0.0,0.0,0.0,0.0,0.0,0.0,0.0,0.0,0.0,0.0,0.0,0.0,0.0,0.0,0.0,0.0,0.0,0.0,0.0,0.0,0.0,0.0,0.0,0.0,0.0,0.0,0.0,0.0,0.0,0.0,0.0,0.0,0.0,0.0,0.0,0.0,0.0,0.0,0.0,0.0,0.0,0.0,0.0,0.0,0.0,0.0,0.0,0.0,0.0,0.0,0.0,0.0,0.0,0.0,0.0,0.0,0.0,0.0,0.0,0.0,0.0,0.0,0.0,0.0,0.0,0.0,0.0,0.0,0.0,0.0,0.0,0.0,0.0,0.0,0.0,0.0,0.0,0.0,0.0,0.0,0.0,0.0,0.0,0.0,0.0,0.0,0.0,0.0,0.0,0.0,0.0,0.0,0.0,0.0,0.0,0.0,0.0,0.0,0.0,0.0,0.0,0.0,0.0,0.0,0.0,0.0,0.0,0.0,0.0,0.0,0.0,0.0,0.0,0.0,0.0,0.0,0.0,0.0,0.0,0.0,0.0,0.0,0.0,0.0,0.0,0.0,0.0,0.0,0.0,0.0,0.0,0.0,0.0,0.0,0.0,0.0,0.0,0.0,0.0,0.0,0.0,0.0,0.0,0.0,0.0,0.0,0.0,0.0,0.0,0.0,0.0,0.0,0.0,0.0,0.0,0.0,0.0,0.0,0.0,0.0,0.0,0.0,0.0,0.0,0.0,0.0,0.0,0.0,0.0,0.0,0.0,0.0,0.0,0.0,0.0,0.0,0.0,0.0,0.0,0.0,0.0,0.0,0.0,0.0,0.0,0.0,0.0,0.0,0.0,0.0,0.0,0.0,0.0,0.0,0.0,0.0,0.0,0.0,0.0,0.0,0.0,0.0,0.0,0.0,0.0,0.0,0.0,0.0,0.0,0.0,0.0,0.0,0.0,0.0,0.0,0.0,0.0,0.0,0.0,0.0,0.0,0.0,0.0,0.0,0.0,0.0,0.0,0.0,0.0,0.0,0.0,0.0,0.0,0.0,0.0,0.0,0.0,0.0,0.0,0.0,0.0,0.0,0.0,0.0,0.0,0.0,0.0,0.0,0.0,0.0,0.0,0.0,0.0,0.0,0.0,0.0,0.0,0.0,0.0,0.0,0.0,0.0,0.0,0.0,0.0,0.0,0.0,0.0,0.0,0.0,0.0,0.0,0.0,0.0,0.0,0.0,0.0,0.0,0.0,0.0,0.0,0.0,0.0,0.0,0.0,0.0,0.0,0.0,0.0,0.0,0.0,0.0,0.0,0.0,0.0,0.0,0.0,0.0,0.0,0.0,0.0,0.0,0.0,0.0,0.0,0.0,0.0,0.0,0.0,0.0,0.0,0.0,0.0,0.0,0.0,0.0,0.0,0.0,0.0,0.0,0.0,0.0,0.0,0.0,0.0,0.0,0.0,0.0,0.0,0.0,0.0,0.0,0.0,0.0,0.0,0.0,0.0,0.0,0.0,0.0,0.0,0.0,0.0,0.0,0.0,0.0,0.0,0.0,0.0,0.0,0.0,0.0,0.0,0.0,0.0,0.0,0.0,0.0,0.0,0.0,0.0,0.0,0.0,0.0,0.0,0.0,0.0,0.0,0.0,0.0,0.0,0.0,0.0,0.0,0.0,0.0,0.0,0.0,0.0,0.0,0.0,0.0,0.0,0.0,0.0,0.0,0.0,0.0,0.0,0.0,0.0,0.0,0.0,0.0,0.0,0.0,0.0,0.0,0.0,0.0,0.0,0.0,0.0,0.0,0.0,0.0,0.0,0.0,0.0,0.0,0.0,0.0,0.0,0.0,0.0,0.0,0.0,0.0,0.0,0.0,0.0,0.0,0.0,0.0,0.0,0.0,0.0,0.0,0.0,0.0,0.0,0.0,0.0,0.0,0.0,0.0,0.0,0.0,0.0,0.0,0.0,0.0,0.0,0.0,0.0,0.0,0.0,0.0,0.0,0.0,0.0,0.0,0.0,0.0,0.0,0.0,0.0,0.0,0.0,0.0,0.0,0.0,0.0,0.0,0.0,0.0,0.0,0.0,0.0,0.0,0.0,0.0,0.0,0.0,0.0,0.0,0.0,0.0,0.0,0.0,0.0,0.0,0.0,0.0,0.0,0.0,0.0,0.0,0.0,0.0,0.0,0.0,0.0,0.0,0.0,0.0,0.0,0.0,0.0,0.0,0.0,0.0,0.0,0.0,0.0,0.0,0.0,0.0,0.0,0.0,0.0,0.0,-2.0282,0.0,0.0,0.0,-2.0358,0.0,0.0,0.0,0.0,0.0,0.0,0.0,0.0,0.0,0.0,0.0,0.0,0.0,0.0,0.0,0.0,0.0,0.0,0.0,0.0,0.0,0.0,0.0,0.0,0.0,0.0,0.0,0.0,0.0,0.0,0.0,0.0,0.0,0.0,0.0,0.0,0.0,0.0,0.0,0.0,0.0,0.0,0.0,0.0,0.0,0.0,0.0,0.0,0.0,0.0,0.0,0.0,0.0,0.0,0.0,0.0,0.0,0.0,0.0,0.0,0.0,0.0,0.0,0.0,0.0,0.0,0.0,0.0,0.0,0.0,0.0,0.0,0.0,0.0,0.0,0.0,0.0,0.0,0.0,0.0,0.0,0.0,0.0,0.0,0.0,0.0,0.0,0.0,0.0,0.0,0.0,0.0,0.0,0.0,0.0,0.0,0.0,0.0,0.0,0.0,0.0,0.0,0.0,0.0,0.0,0.0,0.0,0.0,0.0,0.0,-2.0453,-2.1123,-2.0828,-2.0816,-2.1198,0.0,0.0,0.0,0.0,0.0,0.0,0.0,0.0,0.0,0.0,0.0,0.0,0.0,0.0,0.0,0.0,0.0,0.0,0.0,0.0,0.0,0.0,0.0,0.0,0.0,0.0,0.0,0.0,0.0,0.0,0.0,0.0,0.0,0.0,0.0,0.0,0.0,0.0,0.0,0.0,0.0,0.0,0.0,0.0,0.0,0.0,0.0,0.0,0.0,0.0,0.0,0.0,0.0,0.0,0.0,0.0,0.0,0.0,0.0,0.0,0.0,0.0,0.0,0.0,0.0,0.0,0.0,0.0,0.0,0.0,0.0,0.0,0.0,0.0,0.0,0.0,0.0,0.0,0.0,0.0,0.0,0.0,0.0,0.0,0.0,0.0,0.0,0.0,0.0,0.0,0.0,0.0,0.0,0.0,0.0,0.0,0.0,0.0,0.0,0.0,0.0,0.0,0.0,0.0,0.0,0.0,0.0,0.0,0.0,0.0,0.0,0.0,-2.1616,-2.1553,-2.2113,0.0,0.0,0.0,0.0,0.0,0.0,0.0,0.0,0.0,0.0,0.0,0.0,0.0,0.0,0.0,0.0,0.0,0.0,0.0,0.0,0.0,0.0,0.0,0.0,0.0,0.0,0.0,0.0,0.0,0.0,0.0,0.0,0.0,0.0,0.0,0.0,0.0,0.0,0.0,0.0,0.0,0.0,0.0,0.0,0.0,0.0,0.0,0.0,0.0,0.0,0.0,0.0,0.0,0.0,0.0,0.0,0.0,0.0,0.0,0.0,0.0,0.0,0.0,0.0,0.0,0.0,0.0,0.0,0.0,0.0,0.0,0.0,0.0,0.0,0.0,0.0,0.0,0.0,0.0,0.0,0.0,0.0,0.0,0.0,0.0,0.0,0.0,0.0,0.0,0.0,0.0,0.0,0.0,0.0,0.0,0.0,0.0,0.0,0.0,0.0,0.0,0.0,0.0,0.0,0.0,0.0,0.0,0.0,0.0,0.0,-2.199,-2.2101,-2.2051,0.0,-2.2286,0.0,0.0,0.0,0.0,0.0,0.0,0.0,0.0,0.0,0.0,0.0,0.0,0.0,0.0,0.0,0.0,0.0,0.0,0.0,0.0,0.0,0.0,0.0,0.0,0.0,0.0,0.0,0.0,0.0,0.0,0.0,0.0,0.0,0.0,0.0,0.0,0.0,0.0,0.0,0.0,0.0,0.0,0.0,0.0,0.0,0.0,0.0,0.0,0.0,0.0,0.0,0.0,0.0,0.0,0.0,0.0,0.0,0.0,0.0,0.0,0.0,0.0,0.0,0.0,0.0,0.0,0.0,0.0,0.0,0.0,0.0,0.0,0.0,0.0,0.0,0.0,0.0,0.0,0.0,0.0,0.0,0.0,0.0,0.0,0.0,0.0,0.0,0.0,0.0,0.0,0.0,0.0,0.0,0.0,0.0,0.0,0.0,0.0,0.0,0.0,0.0,0.0,0.0,0.0,0.0,0.0,0.0,0.0,0.0,0.0,-2.2482,-2.3233,-2.3305,-2.31,0.0,0.0,0.0,0.0,0.0,0.0,0.0,0.0,0.0,0.0,0.0,0.0,0.0,0.0,0.0,0.0,0.0,0.0,0.0,0.0,0.0,0.0,0.0,0.0,0.0,0.0,0.0,0.0,0.0,0.0,0.0,0.0,0.0,0.0,0.0,0.0,0.0,0.0,0.0,0.0,0.0,0.0,0.0,0.0,0.0,0.0,0.0,0.0,0.0,0.0,0.0,0.0,0.0,0.0,0.0,0.0,0.0,0.0,0.0,0.0,0.0,0.0,0.0,0.0,0.0,0.0,0.0,0.0,0.0,0.0,0.0,0.0,0.0,0.0,0.0,0.0,0.0,0.0,0.0,0.0,0.0,0.0,0.0,0.0,0.0,0.0,0.0,0.0,0.0,0.0,0.0,0.0,0.0,0.0,0.0,0.0,0.0,0.0,0.0,0.0,0.0,0.0,0.0,0.0,0.0,0.0,0.0,0.0,0.0,0.0,-2.2895,-2.3113,-2.4099,-2.4376,-2.4189,-2.3518,0.0,0.0,0.0,0.0,0.0,0.0,0.0,0.0,0.0,0.0,0.0,0.0,0.0,0.0,0.0,0.0,0.0,0.0,0.0,0.0,0.0,0.0,0.0,0.0,0.0,0.0,0.0,0.0,0.0,0.0,0.0,0.0,0.0,0.0,0.0,0.0,0.0,0.0,0.0,0.0,0.0,0.0,0.0,0.0,0.0,0.0,0.0,0.0,0.0,0.0,0.0,0.0,0.0,0.0,0.0,0.0,0.0,0.0,0.0,0.0,0.0,0.0,0.0,0.0,0.0,0.0,0.0,0.0,0.0,0.0,0.0,0.0,0.0,0.0,0.0,0.0,0.0,0.0,0.0,0.0,0.0,0.0,0.0,0.0,0.0,0.0,0.0,0.0,0.0,0.0,0.0,0.0,0.0,0.0,0.0,0.0,0.0,0.0,0.0,0.0,0.0,0.0,0.0,0.0,0.0,0.0,0.0,0.0,-2.3923,-2.4002,-2.4099,-2.4337,-2.5133,-2.5245,0.0,0.0,0.0,0.0,0.0,0.0,0.0,0.0,0.0,0.0,0.0,0.0,0.0,0.0,0.0,0.0,0.0,0.0,0.0,0.0,0.0,0.0,0.0,0.0,0.0,0.0,0.0,0.0,0.0,0.0,0.0,0.0,0.0,0.0,0.0,0.0,0.0,0.0,0.0,0.0,0.0,0.0,0.0,0.0,0.0,0.0,0.0,0.0,0.0,0.0,0.0,0.0,0.0,0.0,0.0,0.0,0.0,0.0,0.0,0.0,0.0,0.0,0.0,0.0,0.0,0.0,0.0,0.0,0.0,0.0,0.0,0.0,0.0,0.0,0.0,0.0,0.0,0.0,0.0,0.0,0.0,0.0,0.0,0.0,0.0,0.0,0.0,0.0,0.0,0.0,0.0,0.0,0.0,0.0,0.0,0.0,0.0,0.0,0.0,0.0,0.0,0.0,0.0,0.0,0.0,0.0,0.0,0.0,0.0,-2.4754,-2.5204,-2.5425,-2.5425,-2.5453,-2.53,0.0,0.0,0.0,0.0,0.0,0.0,0.0,0.0,0.0,0.0,0.0,0.0,0.0,0.0,0.0,0.0,0.0,0.0,0.0,0.0,0.0,0.0,0.0,0.0,0.0,0.0,0.0,0.0,0.0,0.0,0.0,0.0,0.0,0.0,0.0,0.0,0.0,0.0,0.0,0.0,0.0,0.0,0.0,0.0,0.0,0.0,0.0,0.0,0.0,0.0,0.0,0.0,0.0,0.0,0.0,0.0,0.0,0.0,0.0,0.0,0.0,0.0,0.0,0.0,0.0,0.0,0.0,0.0,0.0,0.0,0.0,0.0,0.0,0.0,0.0,0.0,0.0,0.0,0.0,0.0,0.0,0.0,0.0,0.0,0.0,0.0,0.0,0.0,0.0,0.0,0.0,0.0,0.0,0.0,0.0,0.0,0.0,0.0,0.0,0.0,0.0,0.0,0.0,0.0,0.0,0.0,0.0,0.0,0.0,-2.5231,0.0,-2.6573,-2.6079,-2.5932,-2.5659,0.0,0.0,0.0,0.0,0.0,0.0,0.0,0.0,0.0,0.0,0.0,0.0,0.0,0.0,0.0,0.0,0.0,0.0,0.0,0.0,0.0,0.0,0.0,0.0,0.0,0.0,0.0,0.0,0.0,0.0,0.0,0.0,0.0,0.0,0.0,0.0,0.0,0.0,0.0,0.0,0.0,0.0,0.0,0.0,0.0,0.0,0.0,0.0,0.0,0.0,0.0,0.0,0.0,0.0,0.0,0.0,0.0,0.0,0.0,0.0,0.0,0.0,0.0,0.0,0.0,0.0,0.0,0.0,0.0,0.0,0.0,0.0,0.0,0.0,0.0,0.0,0.0,0.0,0.0,0.0,0.0,0.0,0.0,0.0,0.0,0.0,0.0,0.0,0.0,0.0,0.0,0.0,0.0,0.0,0.0,0.0,0.0,0.0,0.0,0.0,0.0,0.0,0.0,0.0,0.0,0.0,0.0,0.0,-2.4681,-2.5453,-2.7086,-2.7458,-2.639,-2.652,-2.624,0.0,0.0,0.0,0.0,0.0,0.0,0.0,0.0,0.0,0.0,0.0,0.0,0.0,0.0,0.0,0.0,0.0,0.0,0.0,0.0,0.0,0.0,0.0,0.0,0.0,0.0,0.0,0.0,0.0,0.0,0.0,0.0,0.0,0.0,0.0,0.0,0.0,0.0,0.0,0.0,0.0,0.0,0.0,0.0,0.0,0.0,0.0,0.0,0.0,0.0,0.0,0.0,0.0,0.0,0.0,0.0,0.0,0.0,0.0,0.0,0.0,0.0,0.0,0.0,0.0,0.0,0.0,0.0,0.0,0.0,0.0,0.0,0.0,0.0,0.0,0.0,0.0,0.0,0.0,0.0,0.0,0.0,0.0,0.0,0.0,0.0,0.0,0.0,0.0,0.0,0.0,0.0,0.0,0.0,0.0,0.0,0.0,0.0,0.0,0.0,0.0,0.0,0.0,0.0,0.0,0.0,0.0,0.0,0.0,-2.6587,-2.766,-2.7859,-2.6965,-2.6696,-2.6175,0.0,0.0,0.0,0.0,0.0,0.0,0.0,0.0,0.0,0.0,0.0,0.0,0.0,0.0,0.0,0.0,0.0,0.0,0.0,0.0,0.0,0.0,0.0,0.0,0.0,0.0,0.0,0.0,0.0,0.0,0.0,0.0,0.0,0.0,0.0,0.0,0.0,0.0,0.0,0.0,0.0,0.0,0.0,0.0,0.0,0.0,0.0,0.0,0.0,0.0,0.0,0.0,0.0,0.0,0.0,0.0,0.0,0.0,0.0,0.0,0.0,0.0,0.0,0.0,0.0,0.0,0.0,0.0,0.0,0.0,0.0,0.0,0.0,0.0,0.0,0.0,0.0,0.0,0.0,0.0,0.0,0.0,0.0,0.0,0.0,0.0,0.0,0.0,0.0,0.0,0.0,0.0,0.0,0.0,0.0,0.0,0.0,0.0,0.0,0.0,0.0,0.0,0.0,0.0,0.0,0.0,0.0,0.0,0.0,-2.7816,-2.8354,-2.8369,-2.7893,-2.7505,-2.6779,-2.5726,0.0,0.0,0.0,0.0,0.0,0.0,0.0,0.0,0.0,0.0,0.0,0.0,0.0,0.0,0.0,0.0,0.0,0.0,0.0,0.0,0.0,0.0,0.0,0.0,0.0,0.0,0.0,0.0,0.0,0.0,0.0,0.0,0.0,0.0,0.0,0.0,0.0,0.0,0.0,0.0,0.0,0.0,0.0,0.0,0.0,0.0,0.0,0.0,0.0,0.0,0.0,0.0,0.0,0.0,0.0,0.0,0.0,0.0,0.0,0.0,0.0,0.0,0.0,0.0,0.0,0.0,0.0,0.0,0.0,0.0,0.0,0.0,0.0,0.0,0.0,0.0,0.0,0.0,0.0,0.0,0.0,0.0,0.0,0.0,0.0,0.0,0.0,0.0,0.0,0.0,0.0,0.0,0.0,0.0,0.0,0.0,0.0,0.0,0.0,0.0,0.0,0.0,0.0,0.0,0.0,0.0,0.0,0.0,-2.9052,-2.9097,-2.9082,-2.8976,-2.8703,-2.7853,0.0,0.0,0.0,0.0,0.0,0.0,0.0,0.0,0.0,0.0,0.0,0.0,0.0,0.0,0.0,0.0,0.0,0.0,0.0,0.0,0.0,0.0,0.0,0.0,0.0,0.0,0.0,0.0,0.0,0.0,0.0,0.0,0.0,0.0,0.0,0.0,0.0,0.0,0.0,0.0,0.0,0.0,0.0,0.0,0.0,0.0,0.0,0.0,0.0,0.0,0.0,0.0,0.0,0.0,0.0,0.0,0.0,0.0,0.0,0.0,0.0,0.0,0.0,0.0,0.0,0.0,0.0,0.0,0.0,0.0,0.0,0.0,0.0,0.0,0.0,0.0,0.0,0.0,0.0,0.0,0.0,0.0,0.0,0.0,0.0,0.0,0.0,0.0,0.0,0.0,0.0,0.0,0.0,0.0,0.0,0.0,0.0,0.0,0.0,0.0,0.0,0.0,0.0,0.0,0.0,0.0,0.0,0.0,0.0,-2.9996,-3.0418,-3.0204,-2.9307,-2.8599,-2.7627,0.0,0.0,0.0,0.0,0.0,0.0,0.0,0.0,0.0,0.0,0.0,0.0,0.0,0.0,0.0,0.0,0.0,0.0,0.0,0.0,0.0,0.0,0.0,0.0,0.0,0.0,0.0,0.0,0.0,0.0,0.0,0.0,0.0,0.0,0.0,0.0,0.0,0.0,0.0,0.0,0.0,0.0,0.0,0.0,0.0,0.0,0.0,0.0,0.0,0.0,0.0,0.0,0.0,0.0,0.0,0.0,0.0,0.0,0.0,0.0,0.0,0.0,0.0,0.0,0.0,0.0,0.0,0.0,0.0,0.0,0.0,0.0,0.0,0.0,0.0,0.0,0.0,0.0,0.0,0.0,0.0,0.0,0.0,0.0,0.0,0.0,0.0,0.0,0.0,0.0,0.0,0.0,0.0,0.0,0.0,0.0,0.0,0.0,0.0,0.0,0.0,0.0,0.0,0.0,0.0,0.0,0.0,0.0,-2.9822,-3.0308,-3.1244,-3.1351,-3.0584,-2.9554,-2.829,0.0,0.0,0.0,0.0,0.0,0.0,0.0,0.0,0.0,0.0,0.0,0.0,0.0,0.0,0.0,0.0,0.0,0.0,0.0,0.0,0.0,0.0,0.0,0.0,0.0,0.0,0.0,0.0,0.0,0.0,0.0,0.0,0.0,0.0,0.0,0.0,0.0,0.0,0.0,0.0,0.0,0.0,0.0,0.0,0.0,0.0,0.0,0.0,0.0,0.0,0.0,0.0,0.0,0.0,0.0,0.0,0.0,0.0,0.0,0.0,0.0,0.0,0.0,0.0,0.0,0.0,0.0,0.0,0.0,0.0,0.0,0.0,0.0,0.0,0.0,0.0,0.0,0.0,0.0,0.0,0.0,0.0,0.0,0.0,0.0,0.0,0.0,0.0,0.0,0.0,0.0,0.0,0.0,0.0,0.0,0.0,0.0,0.0,0.0,0.0,0.0,0.0,0.0,0.0,0.0,0.0,0.0,0.0,-3.0406,-3.0363,-3.1682,-3.2342,-3.2216,-3.0892,-2.9342,0.0,0.0,0.0,0.0,0.0,0.0,0.0,0.0,0.0,0.0,0.0,0.0,0.0,0.0,0.0,0.0,0.0,0.0,0.0,0.0,0.0,0.0,0.0,0.0,0.0,0.0,0.0,0.0,0.0,0.0,0.0,0.0,0.0,0.0,0.0,0.0,0.0,0.0,0.0,0.0,0.0,0.0,0.0,0.0,0.0,0.0,0.0,0.0,0.0,0.0,0.0,0.0,0.0,0.0,0.0,0.0,0.0,0.0,0.0,0.0,0.0,0.0,0.0,0.0,0.0,0.0,0.0,0.0,0.0,0.0,0.0,0.0,0.0,0.0,0.0,0.0,0.0,0.0,0.0,0.0,0.0,0.0,0.0,0.0,0.0,0.0,0.0,0.0,0.0,0.0,0.0,0.0,0.0,0.0,0.0,0.0,0.0,0.0,0.0,0.0,0.0,0.0,0.0,0.0,0.0,0.0,0.0,0.0,-3.0622,-3.1182,-3.1967,-3.2398,-3.2342,-3.0876,-2.9445,0.0,0.0,0.0,0.0,0.0,0.0,0.0,0.0,0.0,0.0,0.0,0.0,0.0,0.0,0.0,0.0,0.0,0.0,0.0,0.0,0.0,0.0,0.0,0.0,0.0,0.0,0.0,0.0,0.0,0.0,0.0,0.0,0.0,0.0,0.0,0.0,0.0,0.0,0.0,0.0,0.0,0.0,0.0,0.0,0.0,0.0,0.0,0.0,-2.9079,0.0,0.0,0.0,0.0,0.0,0.0,0.0,0.0,0.0,0.0,0.0,0.0,0.0,0.0,0.0,0.0,0.0,0.0,0.0,0.0,0.0,0.0,0.0,0.0,0.0,0.0,0.0,0.0,0.0,0.0,0.0,0.0,0.0,0.0,0.0,0.0,0.0,0.0,0.0,0.0,0.0,0.0,0.0,0.0,0.0,0.0,0.0,0.0,0.0,0.0,0.0,0.0,0.0,0.0,0.0,0.0,0.0,0.0,0.0,-3.0735,-3.1382,-3.2044,-3.2398,-3.2256,-3.091,-2.9599,0.0,0.0,0.0,0.0,0.0,0.0,0.0,0.0,0.0,0.0,0.0,0.0,0.0,0.0,0.0,0.0,0.0,0.0,0.0,0.0,0.0,0.0,0.0,0.0,0.0,0.0,0.0,0.0,0.0,0.0,0.0,0.0,0.0,0.0,0.0,0.0,0.0,0.0,0.0,0.0,0.0,0.0,0.0,0.0,0.0,0.0,0.0,0.0,0.0,0.0,0.0,0.0,0.0,0.0,0.0,0.0,0.0,0.0,0.0,0.0,0.0,0.0,0.0,0.0,0.0,0.0,0.0,0.0,0.0,0.0,0.0,0.0,0.0,0.0,0.0,0.0,0.0,0.0,0.0,0.0,0.0,0.0,0.0,0.0,0.0,0.0,0.0,0.0,0.0,0.0,0.0,0.0,0.0,0.0,0.0,0.0,0.0,0.0,0.0,0.0,0.0,0.0,0.0,0.0,0.0,0.0,0.0,-3.0068,-3.0797,-3.152,-3.2105,-3.2342,-3.2231,-3.0979,-2.9746,-2.8537,0.0,0.0,0.0,0.0,0.0,0.0,0.0,0.0,0.0,0.0,0.0,0.0,0.0,0.0,0.0,0.0,0.0,0.0,0.0,0.0,0.0,0.0,0.0,0.0,0.0,0.0,0.0,0.0,0.0,0.0,0.0,0.0,0.0,0.0,0.0,0.0,0.0,0.0,-2.4502,-2.6126,0.0,0.0,0.0,0.0,0.0,0.0,0.0,0.0,-2.8957,0.0,0.0,0.0,0.0,0.0,0.0,0.0,0.0,0.0,0.0,0.0,0.0,0.0,0.0,0.0,0.0,0.0,0.0,0.0,0.0,0.0,0.0,0.0,0.0,0.0,0.0,0.0,0.0,0.0,0.0,0.0,0.0,0.0,0.0,0.0,0.0,0.0,0.0,0.0,0.0,0.0,0.0,0.0,0.0,0.0,0.0,0.0,0.0,0.0,0.0,0.0,0.0,0.0,0.0,0.0,0.0,-3.0176,-3.0299,-3.1012,-3.2182,-3.2336,-3.2398,-3.2327,-3.1203,-2.99,-2.8537,0.0,0.0,0.0,0.0,0.0,0.0,0.0,0.0,0.0,0.0,0.0,0.0,0.0,0.0,0.0,0.0,0.0,0.0,0.0,0.0,0.0,0.0,0.0,0.0,0.0,0.0,0.0,0.0,0.0,0.0,0.0,0.0,0.0,0.0,0.0,0.0,0.0,0.0,0.0,-2.7839,-2.8529,0.0,0.0,0.0,0.0,0.0,0.0,0.0,0.0,-2.9536,0.0,0.0,0.0,0.0,0.0,0.0,0.0,0.0,0.0,0.0,0.0,0.0,0.0,0.0,0.0,0.0,0.0,0.0,0.0,0.0,0.0,0.0,0.0,0.0,0.0,0.0,0.0,0.0,0.0,0.0,0.0,0.0,0.0,0.0,0.0,0.0,0.0,0.0,0.0,0.0,0.0,0.0,0.0,0.0,0.0,0.0,0.0,0.0,0.0,0.0,0.0,0.0,0.0,0.0,0.0,-3.033,-3.1105,-3.1921,-3.289,-3.3275,-3.3288,-3.2894,-3.1379,-2.9987,0.0,0.0,0.0,0.0,0.0,0.0,0.0,0.0,0.0,0.0,0.0,0.0,0.0,0.0,0.0,0.0,0.0,0.0,0.0,0.0,0.0,0.0,0.0,0.0,0.0,0.0,0.0,0.0,0.0,0.0,0.0,0.0,0.0,0.0,0.0,0.0,0.0,0.0,0.0,0.0,-2.8531,-2.9146,-2.974,0.0,0.0,0.0,0.0,0.0,0.0,-2.9672,-2.9577,0.0,0.0,0.0,0.0,0.0,0.0,0.0,0.0,0.0,0.0,0.0,0.0,0.0,0.0,0.0,0.0,0.0,0.0,0.0,0.0,0.0,0.0,0.0,0.0,0.0,0.0,0.0,0.0,0.0,0.0,0.0,0.0,0.0,0.0,0.0,0.0,0.0,0.0,0.0,0.0,0.0,0.0,0.0,0.0,0.0,0.0,0.0,0.0,0.0,0.0,0.0,0.0,0.0,0.0,0.0,-3.019,-3.1647,-3.2623,-3.3163,-3.3726,-3.3759,-3.3164,-3.1331,-2.9889,0.0,0.0,0.0,0.0,0.0,0.0,0.0,0.0,0.0,0.0,0.0,0.0,0.0,0.0,0.0,0.0,0.0,0.0,0.0,0.0,0.0,0.0,0.0,0.0,0.0,0.0,0.0,0.0,0.0,0.0,0.0,0.0,0.0,0.0,0.0,0.0,0.0,0.0,0.0,0.0,0.0,-2.9511,-3.0255,-2.9876,0.0,0.0,0.0,0.0,-2.9659,-2.9767,0.0,0.0,0.0,0.0,0.0,0.0,0.0,0.0,0.0,0.0,0.0,0.0,0.0,0.0,0.0,0.0,0.0,0.0,0.0,0.0,0.0,0.0,0.0,0.0,0.0,0.0,0.0,0.0,0.0,0.0,0.0,0.0,0.0,0.0,0.0,0.0,0.0,0.0,0.0,0.0,0.0,0.0,0.0,0.0,0.0,0.0,0.0,0.0,0.0,0.0,0.0,0.0,0.0,0.0,0.0,0.0,-2.9637,-3.1426,-3.2406,-3.2441,-3.2509,-3.2538,-3.2396,-3.0591,-2.9538,0.0,0.0,0.0,0.0,0.0,0.0,0.0,0.0,0.0,0.0,0.0,0.0,0.0,0.0,0.0,0.0,0.0,0.0,0.0,0.0,0.0,0.0,0.0,0.0,0.0,0.0,0.0,0.0,0.0,0.0,0.0,0.0,0.0,0.0,0.0,0.0,0.0,0.0,0.0,0.0,0.0,-2.9699,-3.0323,-2.9876,-2.9535,0.0,0.0,-3.031,-3.031,-3.0744,0.0,0.0,0.0,0.0,0.0,0.0,0.0,0.0,0.0,0.0,0.0,0.0,0.0,0.0,0.0,0.0,0.0,0.0,0.0,0.0,0.0,0.0,0.0,0.0,0.0,0.0,0.0,0.0,0.0,0.0,0.0,0.0,0.0,0.0,0.0,0.0,0.0,0.0,0.0,0.0,0.0,0.0,0.0,0.0,0.0,0.0,0.0,0.0,0.0,0.0,0.0,0.0,0.0,0.0,0.0,-2.9115,-3.0013,-3.1886,-3.2864,-3.2883,-3.3245,-3.3154,-3.267,-3.0881,-2.9734,0.0,0.0,0.0,0.0,0.0,0.0,0.0,0.0,0.0,0.0,0.0,0.0,0.0,0.0,0.0,0.0,0.0,0.0,0.0,0.0,0.0,0.0,0.0,0.0,0.0,0.0,0.0,0.0,0.0,0.0,0.0,0.0,0.0,0.0,0.0,0.0,0.0,0.0,0.0,0.0,0.0,0.0,-3.0378,-3.0174,0.0,0.0,0.0,-3.0283,-2.9944,0.0,0.0,0.0,0.0,0.0,0.0,0.0,0.0,0.0,0.0,0.0,0.0,0.0,0.0,0.0,0.0,0.0,0.0,0.0,0.0,0.0,0.0,0.0,0.0,0.0,0.0,0.0,0.0,0.0,0.0,0.0,0.0,0.0,0.0,0.0,0.0,0.0,0.0,0.0,0.0,0.0,0.0,0.0,0.0,0.0,0.0,0.0,0.0,0.0,0.0,0.0,0.0,0.0,0.0,0.0,0.0,0.0,-3.0159,-3.2241,-3.3202,-3.3015,-3.3539,-3.3437,-3.272,-3.128,0.0,0.0,0.0,0.0,0.0,0.0,0.0,0.0,0.0,0.0,0.0,0.0,0.0,0.0,0.0,0.0,0.0,0.0,0.0,0.0,0.0,0.0,0.0,0.0,0.0,0.0,0.0,-2.3154,0.0,0.0,0.0,0.0,0.0,0.0,0.0,0.0,0.0,0.0,0.0,0.0,0.0,0.0,-3.0405,-3.0405,-3.0405,-3.0459,0.0,0.0,-3.0296,-2.9984,-3.0825,-3.1097,0.0,0.0,0.0,0.0,0.0,0.0,0.0,0.0,0.0,0.0,0.0,0.0,0.0,0.0,0.0,0.0,0.0,0.0,0.0,0.0,0.0,0.0,0.0,0.0,0.0,0.0,0.0,0.0,0.0,0.0,0.0,0.0,0.0,0.0,0.0,0.0,0.0,0.0,0.0,0.0,0.0,0.0,0.0,0.0,0.0,0.0,0.0,0.0,0.0,0.0,0.0,0.0,0.0,0.0,-3.0197,-2.9654,-3.1957,-3.289,-3.2331,-3.2286,-3.2314,-3.2241,-3.1375,-3.0683,0.0,0.0,0.0,0.0,0.0,0.0,0.0,0.0,0.0,0.0,0.0,0.0,0.0,0.0,0.0,0.0,0.0,0.0,0.0,0.0,0.0,0.0,0.0,0.0,0.0,0.0,0.0,0.0,0.0,0.0,0.0,0.0,0.0,0.0,0.0,0.0,0.0,0.0,0.0,0.0,0.0,-3.0405,-3.0405,-3.0405,-3.0608,0.0,-3.0758,-3.0581,-3.1097,-3.1694,-3.1721,-3.054,0.0,0.0,0.0,0.0,0.0,0.0,0.0,0.0,0.0,0.0,0.0,0.0,0.0,0.0,0.0,0.0,0.0,0.0,0.0,0.0,0.0,0.0,0.0,0.0,0.0,0.0,0.0,0.0,0.0,0.0,0.0,0.0,0.0,0.0,0.0,0.0,0.0,0.0,0.0,0.0,0.0,0.0,0.0,0.0,0.0,0.0,0.0,0.0,0.0,0.0,0.0,0.0,0.0,-2.9978,-3.0066,-3.1705,-3.2444,-3.2169,-3.2169,-3.2109,-3.1817,-3.1168,-3.0334,0.0,0.0,0.0,0.0,0.0,0.0,0.0,0.0,0.0,0.0,0.0,0.0,0.0,0.0,0.0,0.0,0.0,0.0,0.0,0.0,0.0,0.0,0.0,0.0,0.0,0.0,0.0,0.0,-2.4082,-2.4071,-2.3766,0.0,0.0,0.0,0.0,0.0,0.0,0.0,0.0,0.0,0.0,-3.018,-3.0837,-3.0961,0.0,0.0,-3.1639,-3.1585,-3.1802,-3.2331,-3.2331,-3.1151,-3.0948,0.0,0.0,0.0,0.0,0.0,0.0,0.0,0.0,0.0,0.0,0.0,0.0,0.0,0.0,0.0,0.0,0.0,0.0,0.0,0.0,0.0,0.0,0.0,0.0,0.0,0.0,0.0,0.0,0.0,0.0,0.0,0.0,0.0,0.0,0.0,0.0,0.0,0.0,0.0,0.0,0.0,0.0,0.0,0.0,0.0,0.0,0.0,0.0,0.0,0.0,0.0,0.0,-2.9903,-3.0323,-3.1429,-3.205,-3.2036,-3.2036,-3.189,-3.1596,-3.0863,-2.9961,0.0,0.0,0.0,0.0,0.0,0.0,0.0,0.0,0.0,0.0,0.0,0.0,0.0,0.0,0.0,0.0,0.0,0.0,0.0,0.0,0.0,0.0,0.0,0.0,0.0,0.0,0.0,0.0,-2.417,-2.4126,-2.3766,0.0,0.0,0.0,0.0,0.0,0.0,0.0,0.0,0.0,0.0,-3.0066,-3.0891,-3.1137,-3.1478,-3.2114,-3.2019,-3.1992,-3.2141,-3.2535,-3.2521,-3.1694,0.0,0.0,0.0,0.0,0.0,0.0,0.0,0.0,0.0,0.0,0.0,0.0,0.0,0.0,0.0,0.0,0.0,0.0,0.0,0.0,0.0,0.0,0.0,0.0,0.0,0.0,0.0,-2.7536,0.0,0.0,-2.7549,0.0,0.0,0.0,0.0,0.0,0.0,0.0,0.0,0.0,0.0,0.0,0.0,0.0,0.0,0.0,0.0,0.0,0.0,0.0,0.0,0.0,0.0,-3.0075,-3.0102,-3.1141,-3.1596,-3.1609,-3.1609,-3.1596,-3.1535,-3.0545,-2.9707,-2.9037,0.0,0.0,0.0,0.0,0.0,0.0,0.0,0.0,0.0,0.0,0.0,0.0,0.0,0.0,0.0,0.0,0.0,0.0,0.0,0.0,0.0,0.0,0.0,0.0,0.0,0.0,-2.3132,-2.346,-2.3744,0.0,0.0,0.0,0.0,0.0,0.0,0.0,0.0,0.0,-2.6505,-2.8587,-3.025,-3.0421,-3.0803,-3.1368,-3.2123,-3.1721,-3.1544,-3.2141,-3.2223,-3.2182,0.0,0.0,0.0,0.0,0.0,0.0,0.0,0.0,0.0,0.0,0.0,0.0,0.0,0.0,0.0,0.0,0.0,0.0,0.0,0.0,0.0,0.0,0.0,0.0,0.0,0.0,0.0,-2.8699,-2.8647,0.0,0.0,0.0,0.0,0.0,0.0,0.0,0.0,0.0,0.0,0.0,-2.9261,-2.9078,0.0,0.0,0.0,0.0,0.0,0.0,0.0,0.0,0.0,0.0,0.0,0.0,-2.995,-3.0156,-3.1069,-3.1609,-3.1609,-3.1609,-3.1272,-3.0558,-3.0228,-2.9185,-2.74,0.0,0.0,0.0,0.0,0.0,0.0,0.0,0.0,0.0,0.0,0.0,0.0,0.0,0.0,0.0,0.0,0.0,0.0,0.0,0.0,0.0,0.0,0.0,0.0,0.0,-2.3667,0.0,0.0,0.0,0.0,0.0,0.0,0.0,0.0,0.0,0.0,-2.5617,-2.6411,-2.7329,-2.82,-2.9011,-2.9783,-3.0277,-3.0892,0.0,0.0,0.0,0.0,0.0,0.0,0.0,0.0,0.0,0.0,0.0,0.0,0.0,-2.6768,-2.61,-2.5212,-2.5249,-2.5327,-2.5,0.0,0.0,0.0,0.0,0.0,0.0,0.0,0.0,0.0,0.0,0.0,0.0,0.0,0.0,-2.9157,-2.8948,-2.8765,0.0,0.0,0.0,0.0,0.0,0.0,0.0,0.0,-2.981,-3.0176,-3.0176,-3.0163,-3.0163,-3.0189,-3.0359,-2.9909,0.0,0.0,0.0,0.0,0.0,0.0,0.0,0.0,-3.0365,-3.0548,-3.1136,-3.1485,-3.1485,-3.1164,-3.0673,-3.0007,-2.9517,-2.8291,-2.6289,-2.5329,-2.4681,0.0,0.0,0.0,0.0,0.0,0.0,0.0,0.0,0.0,0.0,0.0,0.0,0.0,0.0,0.0,0.0,0.0,0.0,0.0,0.0,0.0,0.0,0.0,-2.4061,0.0,0.0,0.0,0.0,0.0,0.0,0.0,0.0,0.0,-2.5261,-2.5902,-2.6676,-2.7624,-2.8327,-2.8986,-2.9484,0.0,0.0,0.0,0.0,0.0,0.0,0.0,-3.1138,-3.019,-3.0157,-3.0059,-2.9427,-2.8785,-2.8136,-2.7645,0.0,0.0,-2.6252,-2.6239,-2.6299,-2.5961,-2.6037,-2.6103,-2.5939,-2.5895,-2.5895,0.0,0.0,0.0,0.0,-3.1612,0.0,0.0,0.0,-2.9411,-2.9052,0.0,-2.9091,0.0,0.0,0.0,0.0,-2.8477,-2.9104,0.0,0.0,-3.125,-3.1772,-3.1772,-3.1668,-3.1694,-3.1746,-3.125,-3.0989,-3.0976,-3.0976,0.0,0.0,0.0,0.0,0.0,0.0,-3.1211,-3.1163,-3.1261,-3.1254,-3.1242,-3.0406,-2.9918,-2.981,-2.8617,-2.7329,-2.6034,-2.548,-2.5207,-2.5185,-2.3853,0.0,0.0,0.0,0.0,0.0,0.0,0.0,0.0,0.0,0.0,0.0,0.0,0.0,0.0,0.0,0.0,0.0,0.0,0.0,0.0,-2.4111,0.0,0.0,0.0,0.0,0.0,0.0,0.0,0.0,0.0,-2.54,-2.5643,-2.6827,-2.7615,-2.7301,0.0,0.0,0.0,0.0,-3.0717,-3.0342,-3.0228,-3.01,-2.9752,-3.0049,-3.0455,-3.0425,0.0,0.0,-2.8824,-2.7922,-2.7558,-2.7975,-2.8032,-2.7774,-2.6867,-2.7053,-2.7086,-2.6267,-2.6463,-2.6529,-2.6136,-2.619,-2.6136,-3.4582,0.0,0.0,0.0,0.0,-3.1334,-3.081,-3.0,-3.0333,-3.0398,-3.0228,-2.9993,0.0,0.0,0.0,0.0,0.0,0.0,-3.079,-3.0352,-3.1115,-3.1458,-3.1445,-3.0785,-3.0785,-3.1458,-3.1009,-3.079,-3.0815,-3.1267,-3.0984,-3.015,0.0,0.0,0.0,0.0,-3.1005,-3.0854,-3.1145,-3.0927,-3.0348,-3.0013,-2.9593,-2.9009,-2.8034,-2.7304,-2.6911,-2.6463,-2.6048,-2.5699,-2.4956,0.0,0.0,0.0,0.0,0.0,0.0,0.0,0.0,0.0,0.0,0.0,0.0,0.0,0.0,0.0,0.0,0.0,0.0,0.0,-2.4632,-2.4698,-2.4676,0.0,0.0,0.0,0.0,0.0,0.0,0.0,0.0,0.0,-2.6696,-2.6584,-2.6685,0.0,0.0,-2.7589,-2.7777,-2.8386,-2.8845,-2.9154,-2.9082,0.0,-2.9421,-2.9702,-2.9583,-2.8889,-2.8564,-2.8387,-2.8206,-2.8291,-2.8433,-2.8525,-2.8554,-2.8451,-2.8233,-2.8244,-2.8233,-2.8003,-2.8058,-2.8112,-2.7971,-2.7938,-2.7927,-3.3894,-3.2987,-3.3118,-3.2591,-3.185,-3.1896,-3.1673,-3.1169,-3.1509,-3.1535,-3.1313,-3.1209,-3.0895,-3.0451,-3.0111,0.0,0.0,0.0,-3.1395,-3.0791,-3.1342,-3.1415,-3.1095,-3.0713,-3.0883,-3.1415,-3.121,-3.1021,-3.1021,-3.1216,-3.0906,-3.031,0.0,-2.9644,-3.0176,-3.0656,-3.0834,-3.0671,-3.0772,-3.0639,-3.0036,-2.9689,-2.9083,-2.8375,-2.7855,-2.7512,-2.7315,-2.7042,-2.6769,-2.6463,-2.5819,-2.5284,0.0,0.0,0.0,0.0,0.0,0.0,0.0,0.0,0.0,0.0,0.0,-2.1412,-2.1307,0.0,0.0,0.0,-2.3325,-2.4196,-2.4962,-2.4851,0.0,0.0,0.0,0.0,0.0,0.0,0.0,-2.6229,-2.6965,-2.7655,-2.78,-2.7382,-2.7316,-2.8042,-2.797,-2.8037,-2.8305,0.0,-2.9106,-2.9198,-2.9221,-2.9247,-2.9353,-2.9665,-2.9564,-2.8967,-2.8888,-2.8888,-2.891,-2.915,-2.9325,-2.9325,-2.9336,-2.9336,-2.9336,-2.9325,-2.9172,-2.8844,-2.885,-2.885,-2.885,-2.885,-2.885,-3.3434,-3.2856,-3.3001,-3.2965,-3.2646,-3.2123,-3.2202,-3.2672,-3.2672,-3.2398,-3.1954,-3.245,-3.211,-3.1042,-3.1081,0.0,-3.1734,-3.1785,-3.1596,-3.124,-3.1738,-3.1467,-3.0706,-3.1173,-3.1412,-3.1476,-3.14,-3.14,-3.1288,-3.0834,-3.0497,-3.0462,-3.045,-3.0286,-2.9978,-3.0397,-3.0673,-3.0623,-3.0306,-3.0124,-3.0079,-2.929,-2.8538,-2.8112,-2.8102,-2.7883,-2.7446,-2.7392,-2.737,-2.7348,-2.6507,-2.6201,-2.6465,0.0,0.0,0.0,0.0,0.0,0.0,0.0,0.0,0.0,0.0,0.0,0.0,0.0,0.0,-2.3229,-2.3295,0.0,-2.4888,-2.4943,0.0,0.0,0.0,-2.6748,-2.7192,-2.7368,-2.7643,-2.7956,0.0,0.0,-2.8757,-2.8811,-2.9031,-2.9479,-2.9817,-3.0011,-3.0045,-3.0399,-3.0616,-3.0045,-3.0045,-2.9988,-2.9572,-2.9862,-3.0114,-3.0044,-3.022,-3.0122,-3.0122,-3.0144,-3.0199,-3.0155,-3.0209,-3.0188,-3.0209,-3.0035,-2.984,-2.8958,-2.891,-2.891,-2.8943,-2.8953,-2.8964,-3.4144,-3.3979,-3.4081,-3.3526,-3.2685,-3.2542,-3.2568,-3.2672,-3.2672,-3.262,-3.2502,-3.2646,-3.212,-3.1238,-3.1643,-3.1485,-3.0954,-3.1442,-3.1257,-3.0514,-3.0643,-3.0524,-3.0267,-2.9761,-2.9806,-3.0441,-2.9818,-2.9463,-2.9463,-2.9351,-2.9003,-2.8668,-2.8645,-2.9083,-2.9954,-3.0134,-3.0058,-2.9788,-2.9727,-2.9545,-2.9187,-2.8932,-2.8795,-2.8582,-2.8582,-2.8538,-2.8407,-2.8058,-2.7872,-2.785,-2.7293,-2.6595,-2.5805,-2.4998,0.0,0.0,0.0,0.0,0.0,0.0,0.0,0.0,0.0,-2.153,-2.1376,0.0,-2.2409,0.0,-2.3074,-2.4051,-2.5349,-2.497,0.0,0.0,-2.6329,-2.67,-2.6472,-2.7977,-2.8575,-2.7755,-2.8524,-2.9183,-2.9303,-2.9314,-2.9672,-3.0449,-2.9719,-2.9198,-2.9508,-2.9724,-2.9814,-2.9758,-3.0013,-3.0149,-3.0064,-3.0141,-3.0187,-3.0188,-3.0231,-3.022,-3.022,-3.022,-3.022,-3.022,-3.022,-3.022,-3.0144,-2.9687,-2.9218,-2.8996,-2.9354,-2.9871,-2.9871,-2.9849,-2.9849,-3.4397,-3.4397,-3.4397,-3.4018,-3.3456,-3.3443,-3.3456,-3.3456,-3.3443,-3.3456,-3.3456,-3.3456,-3.2941,-3.2089,-3.239,-3.2018,-3.1168,-3.1444,-3.1146,-3.026,-3.017,-3.0,-2.9555,-2.9024,-2.9117,-2.9543,-2.9024,-2.885,-2.885,-2.885,-2.8615,-2.8364,-2.8353,-2.8633,-2.9097,-2.893,-2.8729,-2.8498,-2.8723,-2.88,-2.8828,-2.885,-2.8648,-2.8451,-2.8429,-2.8342,-2.8123,-2.758,-2.7349,-2.7619,-2.6832,-2.6209,-2.5847,-2.4872,-2.3901,0.0,0.0,0.0,0.0,0.0,0.0,0.0,0.0,0.0,0.0,0.0,-2.2695,-2.3046,-2.3527,-2.4225,-2.5163,-2.4948,-2.5131,-2.5692,-2.6471,-2.6941,-2.6911,-2.7971,-2.8498,-2.7955,-2.8557,-2.9094,-2.9284,-2.9316,-2.9706,-3.0542,-3.0041,-2.9743,-3.0251,-3.0373,-3.0439,-3.045,-3.0657,-3.0843,-3.0832,-3.0843,-3.0843,-3.0843,-3.0543,-3.0342,-3.0242,-2.9929,-2.9705,-2.9705,-2.9705,-2.9705,-2.9695,-2.938,-2.8962,-2.9075,-2.939,-2.9558,-2.9189,-2.9094,-2.9105,-3.4397,-3.4397,-3.4397,-3.4397,-3.4397,-3.4397,-3.4397,-3.4397,-3.4397,-3.4314,-3.4217,-3.4134,-3.3518,-3.2636,-3.2636,-3.2103,-3.1235,-3.1223,-3.0789,-3.0079,-3.0,-2.9555,-2.885,-2.885,-2.885,-2.885,-2.885,-2.885,-2.885,-2.885,-2.8724,-2.8659,-2.8669,-2.8429,-2.7949,-2.7523,-2.7315,-2.7315,-2.785,-2.8331,-2.8746,-2.885,-2.856,-2.8156,-2.7978,-2.7659,-2.7247,-2.6536,-2.6404,-2.695,-2.5885,-2.5553,-2.6017,-2.4526,-2.3342,0.0,-2.1919,0.0,0.0,0.0,0.0,0.0,0.0,0.0,0.0,-2.2902,-2.325,-2.4087,-2.4193,-2.4402,-2.4678,-2.4963,-2.5452,-2.5853,-2.6484,-2.7142,-2.7488,-2.7752,-2.8004,-2.8291,-2.8435,-2.8679,-2.9086,-2.9092,-2.9398,-3.0037,-3.0182,-3.0295,-3.1041,-3.1214,-3.1305,-3.1414,-3.1527,-3.1509,-3.1531,-3.1472,-3.137,-3.1289,-3.0721,-3.0287,-3.0235,-2.9587,-2.9177,-2.9167,-2.9126,-2.9157,-2.9092,-2.9061,-2.8956,-2.882,-2.881,-2.86,-2.8216,-2.8137,-2.7843,-3.4397,-3.4397,-3.4397,-3.4397,-3.4397,-3.4397,-3.4397,-3.4397,-3.4397,-3.3953,-3.325,-3.2463,-3.1577,-3.0789,-3.0699,-3.026,-2.9371,-2.9371,-2.9198,-2.9024,-2.9024,-2.8932,-2.885,-2.885,-2.885,-2.885,-2.885,-2.885,-2.885,-2.885,-2.856,-2.8178,-2.8178,-2.7938,-2.7479,0.0,0.0,0.0,-2.8167,-2.8659,-2.8757,-2.885,-2.8713,-2.8615,-2.7672,0.0,-2.7056,-2.6072,-2.5523,-2.5614,-2.5442,0.0,0.0,0.0,0.0,0.0,0.0,0.0,0.0,0.0,0.0,0.0,-2.3061,-2.3134,-2.2884,-2.3158,-2.3712,-2.4563,-2.4675,-2.4868,-2.521,-2.5302,-2.5496,-2.599,-2.6655,-2.7036,-2.6933,-2.8008,-2.8575,-2.8009,-2.8549,-2.8991,-2.8966,-2.9092,-2.9092,-2.9303,-2.9303,-2.9408,-2.9513,-3.0151,-3.0599,-3.0692,-3.1105,-3.1516,-3.1618,-3.1002,-3.0588,-3.0484,-2.9942,-2.9418,-2.9303,-2.9197,-2.9081,-2.9092,-2.9092,-2.9092,-2.9092,-2.8562,-2.8038,-2.8038,-2.752,-2.7482,-2.8565,-2.883,-2.884,-3.4397,-3.4397,-3.4397,-3.4397,0.0,-3.3869,-3.3687,-3.3784,-3.4217,-3.3869,-3.298,-3.2016,-3.1045,-3.017,-3.017,-2.9726,-2.885,-2.885,-2.885,-2.885,-2.885,-2.885,-2.885,-2.885,-2.885,-2.885,-2.885,-2.885,-2.885,-2.885,-2.8626,-2.8386,-2.8396,-2.8265,-2.8036,-2.8025,-2.7905,-2.7676,-2.8156,-2.8528,-2.8735,-2.8373,-2.8068,-2.7854,-2.6858,0.0,0.0,0.0,0.0,0.0,0.0,0.0,0.0,-2.3795,0.0,-2.3226,-2.2975,-2.2948,-2.3226,-2.3244,-2.3327,-2.3538,-2.3923,-2.407,-2.3868,-2.4216,-2.462,-2.5023,-2.5243,-2.5445,-2.5637,-2.5839,-2.605,-2.6243,-2.6691,-2.6784,-2.6763,-2.7314,-2.7736,-2.7314,-2.7638,-2.7833,-2.7843,-2.7833,-2.8048,-2.8359,-2.8455,-2.8455,-2.8562,-2.9197,-2.9733,-2.9743,-3.0047,-3.0359,-3.0359,-3.0047,-2.9733,-2.9638,-2.8996,-2.8562,-2.8455,-2.8155,-2.7843,-2.7833,-2.7843,-2.7843,-2.7843,-2.753,-2.7215,-2.7215,-2.6899,-2.6791,-2.7736,-2.7843,-2.7766,-3.4397,-3.4397,-3.4397,-3.4397,-3.4314,-3.3433,-3.2907,-3.2809,-3.342,0.0,0.0,-3.1476,-3.0699,-3.0,-3.0,-2.9555,-2.885,-2.885,-2.885,-2.885,-2.885,-2.885,-2.885,-2.885,-2.885,-2.885,-2.885,-2.885,-2.885,-2.885,-2.885,-2.885,-2.885,-2.885,-2.885,-2.885,-2.8468,-2.7995,-2.8076,-2.8364,-2.8735,-2.7977,-2.7421,-2.7054,-2.603,-2.5351,-2.4993,-2.4166,-2.4034,-2.4579,-2.3505,-2.3167,-2.386,-2.3326,-2.2994,-2.3162,-2.3162,-2.3318,-2.3629,-2.3648,-2.3859,-2.4335,-2.4693,-2.4913,-2.4986,-2.5289,-2.5509,-2.5573,-2.5885,-2.6068,-2.6078,-2.638,-2.6591,-2.6591,-2.6591,-2.6582,-2.6591,-2.6591,-2.6691,-2.6591,-2.6691,-2.6582,-2.6691,-2.6691,-2.6791,-2.7413,-2.7628,-2.7628,-2.7726,-2.8359,-2.888,-2.888,-2.9081,-2.9197,-2.9092,-2.8986,-2.888,-2.888,-2.8145,-2.7618,-2.752,-2.6999,-2.6691,-2.68,-2.6582,-2.6691,-2.6691,-2.6691,-2.6591,-2.6582,-2.6527,-2.6472,-2.6472,-2.6417,-2.6369,-3.4384,-3.4397,-3.4397,-3.4397,-3.4301,-3.342,-3.255,-3.1753,-3.1134,-3.0699,-3.0519,-2.9646,-2.9106,-2.9024,-2.9024,-2.8932,-2.885,-2.885,-2.885,-2.885,-2.885,-2.885,-2.885,-2.885,-2.885,-2.885,-2.885,-2.885,-2.885,-2.885,-2.885,-2.885,-2.885,-2.8757,-2.885,-2.885,-2.8423,-2.7693,-2.8369,-2.868,-2.8757,-2.7977,-2.7558,-2.739,-2.5804,-2.484,-2.4772,-2.3702,-2.313,-2.3224,-2.3054,-2.3107,-2.3524,-2.3455,-2.3611,-2.395,-2.3978,-2.4015,-2.407,-2.406,-2.44,-2.5115,-2.5252,-2.5436,-2.5757,-2.5839,-2.6032,-2.6371,-2.6454,-2.6499,-2.6509,-2.6545,-2.6591,-2.6591,-2.6591,-2.6591,-2.6591,-2.6591,-2.6591,-2.6591,-2.6591,-2.6591,-2.6591,-2.6591,-2.67,-2.68,-2.6899,-2.6791,-2.7008,-2.7413,-2.7931,-2.8038,-2.8668,-2.9092,-2.888,-2.8455,-2.8038,-2.7941,-2.7314,-2.6899,-2.6899,-2.6691,-2.6591,-2.6591,-2.6591,-2.6591,-2.6591,-2.6591,-2.6573,-2.6545,-2.6316,-2.6096,-2.6059,-2.5812,-2.5647,-3.3483,-3.3388,-3.2954,-3.2874,-3.3084,-3.1981,-3.0968,-3.0091,-2.9646,-2.9738,-3.0091,-2.9198,-2.885,-2.885,-2.885,-2.885,-2.885,-2.885,-2.885,-2.885,-2.885,-2.885,-2.885,-2.885,-2.885,-2.885,-2.885,-2.885,-2.885,-2.885,-2.885,-2.8757,-2.8362,-2.8164,-2.8175,-2.7788,-2.74,-2.702,-2.7788,-2.7977,-2.7515,-2.6733,-2.634,-2.635,-2.5112,-2.4453,-2.4444,-2.3888,-2.3602,-2.3611,-2.3611,-2.3684,-2.3859,-2.3877,-2.396,-2.4143,-2.4161,-2.4161,-2.4161,-2.4161,-2.451,-2.5289,-2.5372,-2.5637,-2.6252,-2.6298,-2.6389,-2.6564,-2.6591,-2.6591,-2.6591,-2.6591,-2.6591,-2.6591,-2.6591,-2.6591,-2.6591,-2.6591,-2.6591,-2.6591,-2.6591,-2.6591,-2.6591,-2.6591,-2.6591,-2.6591,-2.6591,-2.6591,-2.6591,-2.6899,-2.7215,-2.7215,-2.752,-2.7736,-2.7736,-2.7422,-2.7206,-2.7098,-2.6899,-2.6582,-2.6591,-2.6591,-2.6591,-2.6591,-2.6591,-2.6591,-2.6582,-2.6591,-2.6499,-2.6252,-2.6123,-2.5913,-2.5683,-2.5326,-2.5152,-3.2672,-3.2606,-3.2008,-3.1669,-3.1512,-3.0349,-2.9308,-2.8521,-2.8521,-2.8865,-2.9421,-2.8995,-2.885,-2.885,-2.885,-2.885,-2.885,-2.885,-2.885,-2.885,-2.885,-2.885,-2.885,-2.885,-2.885,-2.885,-2.885,-2.8757,-2.856,-2.856,-2.8456,-2.8269,-2.7683,-2.74,-2.74,-2.6744,-2.6456,-2.6254,-2.6829,-2.6935,-2.6456,-2.5684,-2.5294,-2.5294,-2.4627,-2.4161,-2.4161,-2.4161,-2.4161,-2.4161,-2.4161,-2.4161,-2.4161,-2.4161,-2.4161,-2.4161,-2.4161,-2.4161,-2.4161,-2.4161,-2.451,-2.5289,-2.5372,-2.572,-2.6463,-2.6591,-2.6591,-2.6591,-2.6591,-2.6591,-2.6591,-2.6591,-2.6591,-2.6591,-2.6591,-2.6591,-2.6591,-2.6591,-2.6591,-2.6591,-2.6591,-2.6591,-2.6591,-2.6591,-2.6591,-2.6591,-2.6591,-2.6591,-2.6591,-2.6591,-2.6591,-2.6591,-2.6591,-2.6691,-2.6591,-2.6691,-2.6691,-2.6591,-2.6582,-2.6591,-2.6591,-2.6591,-2.6591,-2.6591,-2.6591,-2.6527,-2.6481,-2.6435,-2.6261,-2.5922,-2.5702,-2.5527,-2.5124,-2.4849,-2.4656,-3.2659,-3.2672,-3.2475,-3.1618,-3.0074,-2.9223,-2.8327,-2.7568,-2.7457,-2.7435,-2.7744,-2.8455,-2.8735,-2.885,-2.8839,-2.8828,-2.8757,-2.885,-2.885,-2.885,-2.885,-2.885,-2.885,-2.885,-2.885,-2.8757,-2.8757,-2.8466,-2.7788,-2.7683,-2.74,-2.6744,-2.6638,-2.6638,-2.6552,-2.6552,-2.6167,-2.5392,-2.5489,-2.5868,-2.6456,-2.5674,-2.5294,-2.5294,-2.4627,-2.4161,-2.4161,-2.4161,-2.4161,-2.4161,-2.4161,-2.4161,-2.4161,-2.4161,-2.4161,-2.4161,-2.4161,-2.4161,-2.4161,-2.4161,-2.45,-2.5262,-2.5362,-2.5711,-2.6472,-2.6582,-2.6582,-2.6582,-2.6582,-2.6591,-2.6591,-2.6591,-2.6591,-2.6591,-2.6591,-2.6591,-2.6591,-2.6591,-2.6591,-2.6591,-2.6591,-2.6591,-2.6591,-2.6591,-2.6591,-2.6591,-2.6591,-2.6591,-2.6591,-2.6591,-2.6591,-2.6591,-2.6591,-2.6591,-2.6591,-2.6591,-2.6591,-2.6591,-2.6591,-2.6591,-2.6591,-2.6564,-2.6573,-2.6463,-2.649,-2.6353,-2.6133,-2.6004,-2.5885,-2.55,-2.517,-2.4794,-2.4409,-2.429,-2.4271,-3.1679,-3.1602,-3.0618,-2.9338,-2.8071,-2.7861,-2.7645,-2.7315,-2.7315,-2.7315,-2.7348,-2.773,-2.8058,-2.8331,-2.8331,-2.8473,-2.8746,-2.885,-2.885,-2.885,-2.885,-2.885,-2.885,-2.885,-2.856,-2.8175,-2.856,-2.8175,-2.7125,-2.6935,-2.6829,-2.6456,-2.6061,-2.5781,-2.5771,-2.5401,-2.502,-2.4627,-2.4627,-2.4824,-2.5109,-2.4824,-2.4637,-2.4627,-2.4341,-2.4161,-2.4161,-2.4161,-2.4161,-2.4161,-2.4161,-2.4161,-2.4161,-2.4161,-2.4161,-2.4161,-2.4161,-2.4161,-2.4161,-2.4161,-2.4409,-2.4996,-2.5243,-2.5619,-2.616,-2.6444,-2.6364,-2.5688,-2.6136,-2.6591,-2.6582,-2.6591,-2.6591,-2.6591,-2.6591,-2.6591,-2.6591,-2.6591,-2.6591,-2.6591,-2.6591,-2.6582,-2.6591,-2.6591,-2.6591,-2.6591,-2.6582,-2.6473,-2.6582,-2.6591,-2.6591,-2.6591,-2.6591,-2.6591,-2.6591,-2.6591,-2.6582,-2.6582,-2.6591,-2.6591,-2.6536,-2.6334,-2.6215,-2.6215,-2.6059,-2.5894,-2.5656,-2.5592,-2.5491,-2.4993,-2.4711,-2.4345,-2.418,-2.4161,-2.4161,-3.0823,-3.0419,-2.8834,-2.7544,-2.6783,-2.6856,-2.6922,-2.6922,-2.6922,-2.6922,-2.6922,-2.6922,-2.7206,-2.7621,-2.7785,-2.8036,-2.8331,-2.8353,-2.844,-2.8549,-2.856,-2.8637,-2.8735,-2.856,-2.8164,-2.7788,-2.7987,-2.7505,-2.6264,-2.5974,-2.5877,-2.5781,-2.5304,-2.5011,-2.4913,-2.444,-2.4161,-2.4251,-2.4161,-2.4161,-2.4251,-2.4161,-2.4161,-2.4161,-2.4161,-2.4161,-2.4161,-2.4161,-2.4161,-2.4161,-2.4161,-2.4161,-2.4161,-2.4161,-2.4161,-2.4161,-2.4161,-2.4053,-2.3746,-2.3746,-2.3817,-2.3888,-2.4198,-2.4553,-2.5005,-2.5351,-2.5116,-2.4548,-2.5119,-2.5578,-2.6127,-2.6364,-2.6591,-2.6591,-2.6591,-2.6482,-2.6136,-2.6136,-2.5907,-2.5688,-2.5348,-2.5569,-2.5569,-2.5569,-2.5459,-2.5459,-2.5459,-2.5578,-2.5679,-2.5798,-2.6026,-2.6145,-2.6354,-2.6591,-2.6591,-2.6591,-2.6564,-2.6417,-2.638,-2.6334,-2.6307,-2.5958,-2.5803,-2.5775,-2.55,-2.5317,-2.513,-2.5076,-2.445,-2.3861,-2.3551,-2.3356,-2.3029,-2.3229,-2.3229,-3.0495,-2.9537,-2.7983,-2.7208,-2.7067,-2.6318,-2.5994,-2.6059,-2.6016,-2.5994,-2.6037,-2.6016,-2.6245,-2.6736,-2.713,-2.7359,-2.7403,-2.7457,-2.7676,-2.7956,-2.7978,-2.832,-2.8735,-2.807,-2.7579,-2.7348,-2.701,-2.635,-2.5392,-2.4726,-2.435,-2.435,-2.435,-2.4251,-2.4251,-2.4251,-2.4161,-2.4161,-2.4161,-2.4161,-2.4161,-2.4161,-2.4161,-2.4161,-2.4161,-2.4161,-2.4161,-2.4161,-2.4161,-2.4161,-2.4161,-2.4161,-2.4161,-2.4161,-2.4161,-2.4161,-2.4161,-2.3746,-2.2828,-2.2728,-2.2359,-2.1843,-2.1941,-2.2022,-2.2703,-2.2857,-2.2933,-2.3039,-2.3151,-2.3727,-2.4556,-2.5569,-2.6245,-2.6364,-2.6473,-2.5916,-2.5008,-2.4898,-2.4334,-2.3656,-2.3544,-2.3544,-2.332,-2.3207,-2.3432,-2.3432,-2.332,-2.3424,-2.3648,-2.4326,-2.4735,-2.5067,-2.5626,-2.6573,-2.6564,-2.6264,-2.6118,-2.5792,-2.5513,-2.5681,-2.5619,-2.5408,-2.5295,-2.5258,-2.481,-2.4544,-2.457,-2.3888,-2.2826,-2.212,-2.1714,-2.1497,-2.1903,-2.1293,-2.1395,-2.9316,-2.8039,-2.7418,-2.6857,-2.6385,-2.5979,-2.5895,-2.5895,-2.5895,-2.5895,-2.5895,-2.5895,-2.5994,-2.6168,-2.6332,-2.6747,-2.7282,-2.7315,-2.7136,-2.6928,-2.6928,-2.6753,-2.6566,-2.6455,-2.6232,-2.5874,-2.622,-2.6071,-2.5294,-2.4529,-2.4161,-2.4161,-2.4161,-2.4161,-2.4161,-2.4161,-2.4161,-2.4161,-2.4161,-2.4161,-2.4161,-2.4161,-2.4161,-2.4161,-2.4161,-2.4161,-2.4161,-2.4161,-2.4161,-2.4161,-2.4161,-2.4161,-2.4161,-2.4161,-2.4161,-2.4161,-2.4161,-2.3737,-2.2728,-2.2526,-2.1945,-2.0925,-2.1065,-2.1157,-2.13,-2.1518,-2.1462,-2.1197,-2.1727,-2.2139,-2.2122,-2.3303,-2.4326,-2.4334,-2.4334,-2.4214,-2.3768,-2.3656,-2.3424,-2.3095,-2.2982,-2.2982,-2.2869,-2.2982,-2.2982,-2.2982,-2.2982,-2.2854,-2.2934,-2.3245,-2.3304,-2.3382,-2.3561,-2.3736,-2.3736,-2.4616,-2.4958,-2.4436,-2.4032,-2.3589,-2.3322,-2.3261,-2.3088,-2.3142,-2.3073,-2.2928,-2.2613,-2.2281,-2.121,-2.098,-2.0577,-2.0372,-2.0885,-2.0475,-2.0577,-2.8676,-2.7568,-2.7021,-2.6456,-2.5895,-2.5895,-2.5895,-2.5895,-2.5895,-2.5895,-2.5895,-2.5895,-2.5895,-2.5895,-2.5895,-2.6223,-2.6813,-2.6856,-2.6573,-2.6093,-2.6093,-2.582,-2.5371,-2.5378,-2.512,-2.4813,-2.5392,-2.5499,-2.4913,-2.444,-2.4251,-2.4161,-2.4161,-2.4161,-2.4161,-2.4161,-2.4161,-2.4161,-2.4161,-2.4161,-2.4161,-2.4161,-2.4161,-2.4161,-2.4161,-2.4161,-2.4161,-2.4161,-2.4161,-2.4161,-2.4161,-2.4053,-2.3746,-2.3637,-2.3538,-2.3229,-2.3129,-2.2619,-2.1599,-2.1395,-2.0877,-1.9524,-1.9628,-1.9685,-1.9568,-1.9772,-1.9612,-1.9431,-1.9745,-1.9948,-1.9786,-2.0593,-2.1722,-2.2363,-2.262,-2.2507,-2.2176,-2.2176,-2.207,-2.1737,-2.1502,-2.1616,-2.1851,-2.1729,-2.1616,-2.1851,-2.1775,-2.1692,-2.1647,-2.1746,-2.1736,-2.183,-2.2124,-2.2264,-2.2183,-2.2601,-2.312,-2.2674,-2.2592,-2.1948,-2.1534,-2.1288,-2.1162,-2.1195,-2.0996,-2.0751,-2.0577,-2.0372,-2.0158,-2.0055,-1.9539,-1.9131,-1.9443,-1.965,-1.965,-2.8347,-2.7959,-2.661,-2.5979,-2.5895,-2.5895,-2.5895,-2.5895,-2.5895,-2.5895,-2.5895,-2.5895,-2.5895,-2.5895,-2.5895,-2.5939,-2.5931,-2.5964,-2.5733,-2.5522,-2.5466,-2.532,-2.4937,-2.4375,-2.4304,-2.4584,-2.4324,-2.4233,-2.4251,-2.4251,-2.4161,-2.4161,-2.4161,-2.4161,-2.4161,-2.4161,-2.4161,-2.4161,-2.4161,-2.4161,-2.4161,-2.4161,-2.4161,-2.4161,-2.4161,-2.4161,-2.4161,-2.4161,-2.4161,-2.4152,-2.4152,-2.3646,-2.2627,-2.2526,-2.2114,-2.1293,-2.1089,-2.0467,-1.9539,-1.9435,-1.9027,-1.7793,-1.7397,-1.7516,-1.7593,-1.7449,-1.7483,-1.774,-1.7805,-1.7719,-1.7789,-1.8081,-1.9219,-2.139,-2.1662,-2.1244,-2.0565,-2.0451,-2.035,-1.9693,-1.9461,-1.9107,-1.9229,-1.9408,-1.9489,-1.9537,-1.9401,-1.9364,-1.9436,-1.9868,-2.0245,-2.0426,-2.0725,-2.0857,-2.0741,-2.0649,-2.0868,-2.1063,-2.1063,-2.0837,-2.0391,-2.0097,-2.0112,-2.0074,-1.997,-1.9753,-1.9339,-1.9235,-1.8923,-1.861,-1.8199,-1.8101,-1.8408,-1.8513,-1.8311,-2.7255,-2.6693,-2.6135,-2.5895,-2.5895,-2.5895,-2.5895,-2.5895,-2.5895,-2.5895,-2.5895,-2.5895,-2.5895,-2.5895,-2.5895,-2.5633,-2.5211,-2.5211,-2.4934,-2.4349,-2.3964,-2.3428,-2.2957,-2.285,-2.3252,-2.3743,-2.3754,-2.3886,-2.4106,-2.4152,-2.4161,-2.4161,-2.4161,-2.4161,-2.4161,-2.4161,-2.4161,-2.4161,-2.4161,-2.4161,-2.4161,-2.4161,-2.4161,-2.4161,-2.4161,-2.4161,-2.4161,-2.4161,-2.4161,-2.4161,-2.3438,-2.2518,-2.1599,-2.1395,-2.1293,-2.0987,-2.0885,-2.0372,-1.9435,-1.9124,-1.861,-1.7483,-1.6955,-1.6774,-1.6536,-1.6454,-1.6464,-1.6698,-1.6741,-1.6808,-1.7005,-1.6992,-1.7824,-1.9105,-1.9428,-1.9516,-1.9156,-1.9067,-1.8984,-1.8771,-1.8655,-1.8577,-1.8423,-1.8365,-1.83,-1.8259,-1.813,-1.8177,-1.8348,-1.846,-1.8503,-1.8706,-1.9085,-1.9396,-1.9211,-1.9161,-1.9266,-1.9484,-1.9574,-1.9679,-1.9316,-1.9131,-1.9027,-1.9027,-1.8923,-1.8819,-1.8408,-1.8094,-1.7996,-1.7898,-1.7898,-1.7793,-1.7687,-1.7589,-1.7589,-2.6857,-2.6385,-2.6063,-2.5895,-2.5895,-2.5895,-2.5895,-2.5895,-2.5895,-2.5895,-2.5895,-2.5895,-2.5895,-2.5895,-2.5895,-2.5644,-2.5211,-2.4765,-2.4241,-2.3714,-2.3135,-2.2362,-2.1876,-2.2135,-2.2547,-2.3061,-2.34,-2.3675,-2.3923,-2.4079,-2.4161,-2.4161,-2.4161,-2.4161,-2.4161,-2.4161,-2.4161,-2.4161,-2.4161,-2.4161,-2.4161,-2.4161,-2.4161,-2.4161,-2.4161,-2.4161,-2.4161,-2.4161,-2.4161,-2.4053,-2.3129,-2.181,-2.0475,-2.0261,-2.0055,-1.9746,-1.965,-1.9339,-1.8715,-1.8513,-1.8199,-1.7378,-1.6955,-1.663,-1.6324,-1.6105,-1.5982,-1.6097,-1.6133,-1.6211,-1.6362,-1.6501,-1.6839,-1.7322,-1.7698,-1.7861,-1.788,-1.7995,-1.7989,-1.8084,-1.7976,-1.7906,-1.7906,-1.773,-1.7679,-1.762,-1.761,-1.7656,-1.7818,-1.7731,-1.7734,-1.7755,-1.7982,-1.8105,-1.7833,-1.7707,-1.7707,-1.7826,-1.8051,-1.8163,-1.8115,-1.8101,-1.8101,-1.8206,-1.8101,-1.8206,-1.7891,-1.7793,-1.7687,-1.7589,-1.7589,-1.7589,-1.7589,-1.7589,-1.7589,-2.7103,-2.7033,-2.6218,-2.5895,-2.5895,-2.5895,-2.5895,-2.5895,-2.5895,-2.5895,-2.5895,-2.5895,-2.5812,-2.5812,-2.5728,-2.5644,-2.5464,-2.4327,-2.3627,-2.3367,-2.2872,-2.2274,-2.1786,-2.2071,-2.23,-2.252,-2.3088,-2.3455,-2.3629,-2.3904,-2.4143,-2.4251,-2.4161,-2.4161,-2.4161,-2.4161,-2.4161,-2.4161,-2.4161,-2.4161,-2.4161,-2.4053,-2.4053,-2.3954,-2.3845,-2.3746,-2.3646,-2.3646,-2.3845,-2.3854,-2.2627,-2.1081,-1.9539,-1.9131,-1.8715,-1.8003,-1.7687,-1.7793,-1.7687,-1.7793,-1.7582,-1.7272,-1.6955,-1.663,-1.643,-1.6105,-1.5897,-1.5928,-1.5928,-1.5922,-1.5988,-1.6121,-1.6266,-1.6302,-1.6715,-1.6985,-1.716,-1.7185,-1.7353,-1.7441,-1.7384,-1.7247,-1.7477,-1.7222,-1.7315,-1.7338,-1.738,-1.7392,-1.7544,-1.7502,-1.7543,-1.7595,-1.7609,-1.7602,-1.7589,-1.7589,-1.7589,-1.7589,-1.7589,-1.7589,-1.7589,-1.7589,-1.7589,-1.7589,-1.7589,-1.7589,-1.7589,-1.7589,-1.7589,-1.7589,-1.7589,-1.7589,-1.7589,-1.7589,-1.7589,-2.6218,-2.6218,-2.5979,-2.5895,-2.5895,-2.5895,-2.5895,-2.5895,-2.5895,-2.5895,-2.5895,-2.5895,-2.5644,-2.5211,-2.5126,-2.4605,-2.3831,-2.3309,-2.2696,-2.2246,-2.2087,-2.1909,-2.1741,-2.1841,-2.2052,-2.2318,-2.2593,-2.2951,-2.351,-2.3639,-2.3859,-2.4152,-2.4125,-2.4143,-2.4161,-2.4161,-2.4161,-2.4161,-2.4161,-2.4161,-2.4053,-2.3338,-2.2937,-2.2828,-2.2215,-2.1903,-2.1802,-2.1802,-2.1802,-2.17,-2.0672,-1.9539,-1.8304,-1.8101,-1.7996,-1.7687,-1.7589,-1.7589,-1.7589,-1.7589,-1.7589,-1.7483,-1.7054,-1.6624,-1.663,-1.6205,-1.5992,-1.5885,-1.5885,-1.5885,-1.5897,-1.5958,-1.6,-1.6048,-1.6386,-1.6652,-1.677,-1.6806,-1.6924,-1.6918,-1.69,-1.6796,-1.6661,-1.66,-1.6551,-1.673,-1.6744,-1.6882,-1.7203,-1.7397,-1.7378,-1.7589,-1.7595,-1.7589,-1.7589,-1.7589,-1.7589,-1.7589,-1.7589,-1.7582,-1.7589,-1.7589,-1.7589,-1.7589,-1.7589,-1.7589,-1.7589,-1.7589,-1.7589,-1.7589,-1.7589,-1.7589,-1.7589,-1.7589,-1.7582,-2.559,-2.56,-2.56,-2.571,-2.5884,-2.5895,-2.5895,-2.5895,-2.5895,-2.5895,-2.5895,-2.5895,-2.5559,-2.4946,-2.4861,-2.4337,-2.3299,-2.2969,-2.2539,-2.2176,-2.1919,-2.1741,-2.1741,-2.1741,-2.1869,-2.2071,-2.2245,-2.2584,-2.2988,-2.3198,-2.3519,-2.3813,-2.3895,-2.3978,-2.4161,-2.4161,-2.4161,-2.4161,-2.4161,-2.4161,-2.4152,-2.3038,-2.2627,-2.2325,-2.1505,-2.0885,-2.0885,-2.0475,-2.0158,-2.0055,-1.9539,-1.8715,-1.7793,-1.7589,-1.7589,-1.7589,-1.7589,-1.7589,-1.7589,-1.7589,-1.7589,-1.7477,-1.7047,-1.6842,-1.6736,-1.6424,-1.6105,-1.6105,-1.6105,-1.5998,-1.5885,-1.5885,-1.5885,-1.5934,-1.6175,-1.6362,-1.6368,-1.6338,-1.6356,-1.6362,-1.6344,-1.6314,-1.6133,-1.6121,-1.6156,-1.6166,-1.638,-1.6555,-1.6861,-1.7067,-1.7279,-1.7483,-1.7589,-1.7589,-1.7589,-1.7589,-1.7483,-1.7483,-1.7483,-1.7483,-1.7477,-1.7477,-1.7589,-1.7589,-1.7589,-1.7589,-1.7589,-1.7589,-1.7589,-1.7589,-1.7589,-1.7589,-1.7589,-1.7477,-1.7477,-2.5098,-2.5109,-2.5109,-2.5349,-2.5688,-2.5742,-2.5655,-2.5732,-2.5753,-2.5786,-2.5808,-2.5779,-2.5295,-2.4765,-2.4519,-2.4166,-2.3444,-2.2784,-2.2618,-2.2353,-2.1998,-2.1731,-2.1731,-2.1731,-2.1759,-2.1841,-2.2116,-2.2291,-2.2502,-2.2767,-2.3088,-2.3419,-2.3529,-2.373,-2.3987,-2.4106,-2.4161,-2.4161,-2.4161,-2.4161,-2.3954,-2.3138,-2.2417,-2.1912,-2.0783,-2.0261,-2.0055,-1.9539,-1.902,-1.902,-1.902,-1.8513,-1.7687,-1.7589,-1.7589,-1.7589,-1.7589,-1.7589,-1.7589,-1.7589,-1.7589,-1.7477,-1.7047,-1.6842,-1.6961,-1.6643,-1.6324,-1.6324,-1.6318,-1.6211,-1.5998,-1.5998,-1.5891,-1.5897,-1.5922,-1.5897,-1.5885,-1.5885,-1.5885,-1.5885,-1.5903,-1.5891,-1.5885,-1.5885,-1.5891,-1.6135,-1.6324,-1.6636,-1.6948,-1.7166,-1.7279,-1.7483,-1.7483,-1.7582,-1.7582,-1.7483,-1.7477,-1.7371,-1.7279,-1.7279,-1.7265,-1.7371,-1.7477,-1.7582,-1.7589,-1.7589,-1.7477,-1.7483,-1.7483,-1.7371,-1.7259,-1.7371,-1.7477,-1.7265,-1.7259,-2.4639,-2.4639,-2.4639,-2.4694,-2.4781,-2.4792,-2.4803,-2.4847,-2.5185,-2.5327,-2.5322,-2.5198,-2.4744,-2.4039,-2.3551,-2.2872,-2.2334,-2.2087,-2.1919,-2.1909,-2.182,-2.1731,-2.1731,-2.1731,-2.1731,-2.1768,-2.1814,-2.2025,-2.2282,-2.241,-2.2676,-2.2957,-2.3318,-2.3574,-2.3675,-2.3969,-2.4152,-2.4152,-2.4152,-2.4053,-2.3746,-2.2828,-2.1903,-2.1089,-1.9443,-1.8513,-1.8311,-1.8101,-1.7891,-1.7891,-1.7996,-1.7891,-1.7687,-1.7589,-1.7589,-1.7589,-1.7589,-1.7589,-1.7589,-1.7589,-1.7589,-1.7589,-1.7272,-1.7073,-1.7173,-1.6849,-1.663,-1.663,-1.663,-1.6424,-1.6217,-1.6217,-1.6111,-1.5998,-1.5885,-1.5885,-1.5885,-1.5885,-1.5885,-1.5891,-1.5885,-1.5885,-1.5885,-1.5891,-1.5998,-1.6211,-1.6424,-1.6736,-1.6948,-1.7166,-1.7272,-1.7272,-1.7371,-1.7371,-1.7265,-1.7265,-1.716,-1.716,-1.7067,-1.7067,-1.7054,-1.7054,-1.716,-1.7378,-1.7589,-1.7483,-1.7265,-1.7272,-1.7272,-1.7054,-1.6942,-1.7047,-1.716,-1.7047,-1.6942,-2.4137,-2.4137,-2.4137,-2.4268,-2.4476,-2.4486,-2.4486,-2.453,-2.4738,-2.4847,-2.4784,-2.4585,-2.4178,-2.3453,-2.295,-2.2441,-2.182,-2.1731,-2.1741,-2.1731,-2.1731,-2.1731,-2.1731,-2.1731,-2.1731,-2.1731,-2.1741,-2.1878,-2.2006,-2.2089,-2.2254,-2.263,-2.2896,-2.3061,-2.3204,-2.3666,-2.3528,-2.3197,-2.3358,-2.3229,-2.2619,-2.1489,-2.0467,-1.9539,-1.8206,-1.7589,-1.7694,-1.7694,-1.7589,-1.7589,-1.7589,-1.7589,-1.7589,-1.7589,-1.7589,-1.7589,-1.7589,-1.7589,-1.7589,-1.7589,-1.7589,-1.7589,-1.7384,-1.7384,-1.7279,-1.706,-1.6955,-1.6842,-1.6736,-1.6524,-1.6217,-1.6217,-1.6105,-1.5998,-1.5885,-1.5885,-1.5885,-1.5885,-1.5998,-1.5998,-1.5992,-1.6099,-1.6105,-1.6105,-1.6105,-1.6211,-1.6217,-1.653,-1.653,-1.6749,-1.6849,-1.6948,-1.7054,-1.7054,-1.6948,-1.6948,-1.6948,-1.6849,-1.6749,-1.6743,-1.6842,-1.6842,-1.6849,-1.706,-1.7265,-1.716,-1.6948,-1.6955,-1.6955,-1.6842,-1.6836,-1.6842,-1.6842,-1.6836,-1.6736,-2.3613,-2.3613,-2.3624,-2.3864,-2.4213,-2.4235,-2.4203,-2.4235,-2.4355,-2.4366,-2.4295,-2.4087,-2.368,-2.3163,-2.2775,-2.2259,-2.1811,-2.1731,-2.1731,-2.1731,-2.1731,-2.1731,-2.1731,-2.1731,-2.1731,-2.1731,-2.1731,-2.1768,-2.1768,-2.1759,-2.1961,-2.2217,-2.2337,-2.2575,-2.2896,-2.314,-2.2955,-2.2195,-2.2296,-2.2012,-2.1148,-2.0146,-1.9243,-1.8408,-1.7793,-1.7589,-1.7589,-1.7589,-1.7589,-1.7589,-1.7589,-1.7589,-1.7589,-1.7589,-1.7589,-1.7589,-1.7589,-1.7589,-1.7589,-1.7589,-1.7589,-1.7582,-1.7378,-1.7384,-1.7483,-1.7378,-1.7279,-1.7173,-1.6955,-1.663,-1.6099,-1.6217,-1.6217,-1.5998,-1.5885,-1.5885,-1.5885,-1.5885,-1.5998,-1.6111,-1.5998,-1.5998,-1.6205,-1.6205,-1.6211,-1.6211,-1.6324,-1.6324,-1.6324,-1.6324,-1.653,-1.663,-1.6842,-1.6743,-1.6743,-1.6736,-1.6736,-1.653,-1.643,-1.6424,-1.6524,-1.6418,-1.6424,-1.673,-1.6836,-1.6736,-1.6743,-1.6636,-1.6636,-1.663,-1.6524,-1.6524,-1.6524,-1.663,-1.6518,-2.3121,-2.3121,-2.3121,-2.3176,-2.3252,-2.3263,-2.3307,-2.3329,-2.3711,-2.3853,-2.3764,-2.3621,-2.3299,-2.2898,-2.2444,-2.2013,-2.1701,-2.1704,-2.1731,-2.1731,-2.1731,-2.1731,-2.1731,-2.1731,-2.1731,-2.1731,-2.1731,-2.1731,-2.1731,-2.175,-2.1796,-2.1906,-2.2144,-2.2373,-2.2511,-2.2729,-2.2455,-2.149,-2.1434,-2.1114,-2.0292,-1.9853,-1.9366,-1.8518,-1.7941,-1.7667,-1.7582,-1.7589,-1.7589,-1.7589,-1.7589,-1.7589,-1.7589,-1.7589,-1.7589,-1.7589,-1.7589,-1.7589,-1.7589,-1.7589,-1.7589,-1.7582,-1.7477,-1.7477,-1.7582,-1.7582,-1.7378,-1.7378,-1.7173,-1.6955,-1.6624,-1.6318,-1.6217,-1.5998,-1.5885,-1.5885,-1.5885,-1.5885,-1.5891,-1.5998,-1.5998,-1.5998,-1.6205,-1.6318,-1.6211,-1.6217,-1.6217,-1.6217,-1.6217,-1.6318,-1.653,-1.6524,-1.6524,-1.653,-1.6424,-1.6524,-1.6518,-1.6318,-1.6217,-1.6211,-1.6205,-1.6099,-1.6099,-1.6411,-1.6518,-1.6524,-1.6524,-1.6424,-1.6318,-1.6205,-1.6211,-1.6105,-1.6211,-1.6311,-1.638,-2.3001,-2.3001,-2.3001,-2.3001,-2.3001,-2.3001,-2.3001,-2.3034,-2.3252,-2.3124,-2.2881,-2.2673,-2.2342,-2.1918,-2.1493,-2.1293,-2.1452,-2.1667,-2.1722,-2.1731,-2.1731,-2.1731,-2.1731,-2.1731,-2.1731,-2.1731,-2.1731,-2.1731,-2.1731,-2.1731,-2.1731,-2.1777,-2.1951,-2.2016,-2.2107,-2.2318,-2.1643,-2.0735,-2.0399,-1.9884,-1.8688,-1.8511,-1.8282,-1.8086,-1.7784,-1.7539,-1.7575,-1.7589,-1.7589,-1.7589,-1.7589,-1.7589,-1.7589,-1.7589,-1.7589,-1.7589,-1.7589,-1.7589,-1.7589,-1.7589,-1.7589,-1.7582,-1.7483,-1.7483,-1.7483,-1.7483,-1.7272,-1.716,-1.706,-1.6743,-1.6311,-1.6318,-1.6217,-1.5998,-1.5885,-1.5885,-1.5885,-1.5885,-1.5885,-1.5885,-1.5885,-1.5992,-1.6311,-1.6318,-1.6217,-1.6111,-1.6223,-1.6217,-1.6105,-1.6211,-1.6318,-1.6311,-1.6311,-1.6211,-1.6211,-1.6311,-1.6411,-1.6105,-1.5998,-1.5998,-1.5998,-1.5891,-1.5992,-1.6099,-1.6205,-1.6099,-1.6205,-1.6105,-1.5998,-1.5891,-1.5998,-1.5998,-1.6105,-1.6092,-1.6243,-2.3001,-2.3001,-2.3001,-2.3001,-2.3001,-2.3001,-2.3001,-2.3001,-2.3012,-2.266,-2.2153,-2.1937,-2.1521,-2.0886,-2.068,-2.075,-2.1117,-2.1475,-2.1612,-2.1731,-2.1731,-2.1731,-2.1731,-2.1731,-2.1731,-2.1731,-2.1731,-2.1731,-2.1731,-2.1731,-2.1731,-2.1651,-2.1553,-2.1454,-2.1464,-2.1325,-2.0399,-1.9571,-1.9057,-1.8267,-1.709,-1.6687,-1.6807,-1.7061,-1.7121,-1.7275,-1.7435,-1.7555,-1.7582,-1.7589,-1.7589,-1.7589,-1.7589,-1.7589,-1.7589,-1.7477,-1.7582,-1.7582,-1.7483,-1.7483,-1.7483,-1.7483,-1.7279,-1.7272,-1.7265,-1.7166,-1.6955,-1.6736,-1.663,-1.653,-1.6211,-1.6105,-1.6105,-1.5998,-1.5885,-1.5885,-1.5885,-1.5885,-1.5885,-1.5885,-1.5885,-1.5885,-1.6099,-1.6205,-1.5998,-1.6004,-1.6111,-1.6111,-1.5998,-1.5998,-1.5992,-1.5992,-1.5992,-1.5992,-1.5992,-1.5998,-1.6099,-1.5992,-1.5891,-1.5885,-1.5885,-1.5885,-1.5992,-1.5885,-1.5458,-1.5351,-1.5565,-1.5885,-1.5885,-1.5885,-1.5885,-1.5998,-1.6105,-1.6119,-1.6113,-2.3001,-2.3001,-2.3001,-2.3001,-2.3001,-2.3001,-2.3001,-2.3001,-2.3001,-2.2628,-2.2101,-2.2022,-2.1565,-2.0851,-2.0541,-2.0714,-2.0998,-2.12,-2.1401,-2.1612,-2.1713,-2.1731,-2.1731,-2.1731,-2.1731,-2.1731,-2.1731,-2.1731,-2.1731,-2.1731,-2.1731,-2.1553,-2.1087,-2.0529,-2.0637,-2.0269,-1.8658,-1.7766,-1.7631,-1.7215,-1.6501,-1.654,-1.666,-1.68,-1.6961,-1.7141,-1.7248,-1.7422,-1.7549,-1.7589,-1.7589,-1.7589,-1.7589,-1.7589,-1.7483,-1.7378,-1.7378,-1.7483,-1.7279,-1.7279,-1.7272,-1.7279,-1.7173,-1.706,-1.6948,-1.6842,-1.6736,-1.6736,-1.653,-1.6318,-1.6111,-1.5998,-1.5998,-1.5779,-1.5672,-1.5672,-1.5672,-1.4905,-1.5018,-1.5125,-1.4911,-1.5238,-1.5559,-1.5779,-1.5891,-1.5998,-1.5998,-1.5891,-1.5891,-1.5885,-1.5885,-1.5885,-1.5779,-1.5779,-1.5458,-1.5458,-1.5238,-1.5452,-1.5565,-1.5672,-1.5672,-1.5565,-1.5779,-1.5565,-1.503,-1.4702,-1.4917,-1.5345,-1.5672,-1.5559,-1.5125,-1.5559,-1.6211,-1.6076,-1.5676,-2.3001,-2.3001,-2.3001,-2.3001,-2.3001,-2.3001,-2.3001,-2.3001,-2.3001,-2.2628,-2.2101,-2.1711,-2.0976,-2.0203,-2.008,-2.0255,-2.0512,-2.0869,-2.1172,-2.1429,-2.1603,-2.1722,-2.1731,-2.1731,-2.1731,-2.1731,-2.1731,-2.1731,-2.1731,-2.1731,-2.1731,-2.1642,-2.1275,-2.0817,-2.0348,-1.9886,-1.8796,-1.7699,-1.6784,-1.6374,-1.6115,-1.6152,-1.6293,-1.6453,-1.6607,-1.6827,-1.7094,-1.7241,-1.7435,-1.7528,-1.7589,-1.7483,-1.7384,-1.7384,-1.7272,-1.6955,-1.6948,-1.7054,-1.6955,-1.6955,-1.6955,-1.6849,-1.6743,-1.6636,-1.653,-1.653,-1.6424,-1.6424,-1.6211,-1.6111,-1.5998,-1.5998,-1.5458,-1.5244,-1.4917,-1.4482,-1.4261,-1.3932,-1.3712,-1.3825,-1.4046,-1.4153,-1.4583,-1.5125,-1.5131,-1.4917,-1.5238,-1.5565,-1.5672,-1.5885,-1.5885,-1.5885,-1.5779,-1.5672,-1.503,-1.4708,-1.4046,-1.4153,-1.4595,-1.4702,-1.503,-1.5137,-1.5238,-1.5024,-1.4493,-1.4379,-1.4374,-1.4261,-1.4261,-1.4261,-1.4153,-1.4652,-1.4921,-1.4773,-1.4463,-2.3001,-2.3001,-2.3001,-2.3001,-2.3001,-2.3001,-2.3001,-2.3001,-2.3001,-2.2553,-2.1787,-2.1088,-2.0148,-1.9506,-1.9632,-1.9852,-1.9998,-2.0549,-2.0906,-2.1163,-2.1401,-2.1612,-2.1695,-2.1731,-2.1731,-2.1731,-2.1731,-2.1731,-2.1731,-2.1731,-2.1731,-2.1642,-2.1275,-2.0907,-2.0348,-1.9521,-1.8334,-1.6951,-1.6204,-1.594,-1.5858,-1.5852,-1.5979,-1.6119,-1.6273,-1.6473,-1.6962,-1.723,-1.7295,-1.7395,-1.7555,-1.7483,-1.7279,-1.7279,-1.7067,-1.6743,-1.663,-1.663,-1.6524,-1.6524,-1.663,-1.6524,-1.6424,-1.6324,-1.6324,-1.6324,-1.6217,-1.6217,-1.6105,-1.5779,-1.5565,-1.5458,-1.4809,-1.4159,-1.3727,-1.3073,-1.2635,-1.2635,-1.2738,-1.3068,-1.296,-1.2526,-1.3068,-1.4148,-1.4261,-1.3943,-1.4374,-1.5018,-1.5125,-1.5125,-1.4911,-1.4691,-1.4583,-1.4369,-1.4046,-1.3619,-1.2965,-1.2856,-1.3403,-1.3727,-1.4051,-1.4272,-1.4374,-1.4164,-1.384,-1.33,-1.297,-1.2856,-1.2856,-1.3398,-1.3696,-1.3378,-1.3391,-1.3246,-1.3225,-2.3001,-2.3001,-2.3001,-2.3001,-2.3001,-2.3001,-2.3001,-2.3001,-2.3001,-2.2317,-2.1242,-2.0148,-1.9687,-1.9329,-1.9384,-1.9586,-1.9916,-1.998,-2.0429,-2.0869,-2.1172,-2.1392,-2.1557,-2.1686,-2.1731,-2.1731,-2.1731,-2.1731,-2.1642,-2.1463,-2.1642,-2.1642,-2.0907,-2.0529,-1.9695,-1.8511,-1.7404,-1.6298,-1.5825,-1.5832,-1.5825,-1.5825,-1.5858,-1.5925,-1.6112,-1.6306,-1.6366,-1.6901,-1.7237,-1.7215,-1.7408,-1.7358,-1.716,-1.7067,-1.6855,-1.653,-1.6318,-1.6318,-1.6211,-1.6211,-1.6318,-1.6217,-1.6111,-1.5998,-1.5897,-1.5891,-1.5891,-1.5565,-1.5238,-1.5024,-1.4595,-1.4164,-1.3727,-1.2965,-1.2531,-1.2091,-1.1764,-1.1873,-1.1982,-1.2309,-1.1982,-1.1332,-1.1223,-1.2087,-1.2847,-1.2635,-1.3073,-1.3717,-1.3501,-1.3501,-1.3176,-1.296,-1.2852,-1.2743,-1.2635,-1.2309,-1.2091,-1.1982,-1.2309,-1.2639,-1.2965,-1.3181,-1.3727,-1.3186,-1.2753,-1.2105,-1.1673,-1.1887,-1.2205,-1.2965,-1.3121,-1.2539,-1.2202,-1.2196,-1.2077,-2.3001,-2.3001,-2.3001,-2.3001,-2.3001,-2.3001,-2.3001,-2.3001,-2.3001,-2.2317,-2.1165,-2.0692,-2.0001,-1.9539,-1.9301,-1.9375,-1.9577,-1.9852,-2.0127,-2.0466,-2.0824,-2.1163,-2.1401,-2.1594,-2.1731,-2.1731,-2.1731,-2.1731,-2.1642,-2.1186,-2.0907,-2.0628,-2.0348,-1.9894,-1.8972,-1.7684,-1.6386,-1.6015,-1.5825,-1.5825,-1.5825,-1.5825,-1.5825,-1.5852,-1.5899,-1.6112,-1.6279,-1.6473,-1.6794,-1.7074,-1.7041,-1.6984,-1.6916,-1.6723,-1.6537,-1.6324,-1.6217,-1.6105,-1.6105,-1.6111,-1.5998,-1.5998,-1.5891,-1.5785,-1.5357,-1.4922,-1.4379,-1.4051,-1.3932,-1.3722,-1.3285,-1.3073,-1.2635,-1.1764,-1.1219,-1.1,-1.0895,-1.0785,-1.0785,-1.0895,-1.0464,-0.9919,-0.9809,-1.0025,-1.0676,-1.1219,-1.1873,-1.2309,-1.2091,-1.1982,-1.1873,-1.1764,-1.1764,-1.1546,-1.1437,-1.1328,-1.1219,-1.1219,-1.1219,-1.166,-1.21,-1.2965,-1.3295,-1.2536,-1.1887,-1.1455,-1.1236,-1.1236,-1.1437,-1.1729,-1.1608,-1.1234,-1.1092,-1.1125,-1.0956,-2.3213,-2.3001,-2.3001,-2.3001,-2.3001,-2.3001,-2.3001,-2.3001,-2.3001,-2.2467,-2.1482,-2.1242,-2.0624,-1.9775,-1.9618,-1.946,-1.9482,-1.9595,-1.9787,-2.0099,-2.0457,-2.086,-2.1135,-2.1374,-2.1566,-2.1676,-2.1642,-2.1642,-2.1177,-2.0529,-2.0167,-1.9886,-1.9513,-1.8972,-1.8696,-1.7225,-1.6116,-1.5825,-1.5825,-1.5825,-1.5825,-1.5825,-1.5825,-1.5825,-1.5852,-1.5925,-1.6106,-1.6175,-1.6388,-1.6693,-1.6734,-1.6626,-1.6571,-1.6368,-1.6311,-1.6105,-1.6105,-1.5998,-1.6105,-1.5998,-1.5885,-1.5891,-1.5891,-1.5458,-1.4917,-1.4379,-1.4056,-1.3403,-1.2852,-1.2309,-1.2087,-1.1869,-1.1332,-1.046,-1.0245,-0.9915,-0.9699,-0.9592,-0.9372,-0.9375,-0.9047,-0.9158,-0.9265,-0.9372,-0.9588,-1.0135,-1.0351,-1.068,-1.068,-1.068,-1.0789,-1.0789,-1.0789,-1.057,-1.0347,-1.0351,-1.0355,-1.0355,-1.0464,-1.0794,-1.1341,-1.2209,-1.2536,-1.1778,-1.1236,-1.0911,-1.0773,-1.0728,-1.0498,-1.0268,-1.0301,-1.0494,-1.0154,-1.0125,-0.9817,-2.3632,-2.3075,-2.3001,-2.3001,-2.3001,-2.3001,-2.3001,-2.3001,-2.3001,-2.2628,-2.1873,-2.1425,-2.0839,-2.0234,-2.0004,-1.9823,-1.9583,-1.9522,-1.9668,-2.0044,-2.031,-2.0576,-2.0915,-2.1255,-2.1511,-2.1676,-2.1642,-2.1266,-2.0619,-2.0439,-1.9886,-1.8888,-1.8241,-1.787,-1.8511,-1.7785,-1.677,-1.592,-1.5825,-1.5825,-1.5825,-1.5825,-1.5825,-1.5825,-1.5825,-1.5879,-1.5939,-1.5989,-1.6182,-1.6368,-1.6416,-1.633,-1.6386,-1.628,-1.6162,-1.5992,-1.5992,-1.5885,-1.5885,-1.5885,-1.5779,-1.5885,-1.5885,-1.5672,-1.5458,-1.4809,-1.3732,-1.2856,-1.2422,-1.1651,-1.1109,-1.0676,-1.0025,-0.9588,-0.9372,-0.9265,-0.9047,-0.8937,-0.8937,-0.8937,-0.8937,-0.8937,-0.8937,-0.8937,-0.9047,-0.9158,-0.9047,-0.9154,-0.9482,-0.9592,-0.9919,-0.9919,-1.0029,-0.9919,-0.9702,-0.9596,-0.9596,-0.9489,-0.9816,-1.0363,-1.0582,-1.1017,-1.1126,-1.0798,-1.0794,-1.068,-1.0498,-1.0317,-1.0119,-1.0,-0.9928,-0.9941,-0.9536,-0.9264,-0.9176,-2.3202,-2.3001,-2.3001,-2.3001,-2.3001,-2.3001,-2.3001,-2.3001,-2.2927,-2.2467,-2.1706,-2.1534,-2.0996,-2.0344,-2.027,-2.0272,-2.0154,-2.0108,-2.0273,-2.0301,-2.0503,-2.0814,-2.1117,-2.1337,-2.1566,-2.1695,-2.1642,-2.1553,-2.1275,-2.0529,-1.9704,-1.8696,-1.7225,-1.6574,-1.6669,-1.6393,-1.6021,-1.5825,-1.5825,-1.5825,-1.5825,-1.5825,-1.5825,-1.5825,-1.5825,-1.5825,-1.5825,-1.578,-1.5976,-1.6219,-1.6175,-1.6156,-1.6311,-1.6352,-1.6144,-1.6043,-1.5992,-1.5885,-1.5672,-1.5458,-1.5137,-1.5458,-1.5672,-1.5351,-1.4809,-1.3722,-1.2852,-1.1987,-1.1114,-1.0131,-0.9592,-0.9482,-0.9154,-0.9154,-0.9047,-0.9047,-0.8937,-0.8937,-0.8937,-0.8937,-0.8937,-0.8937,-0.8937,-0.8937,-0.8937,-0.8937,-0.8937,-0.8937,-0.9154,-0.9154,-0.9265,-0.9265,-0.9265,-0.9268,-0.9161,-0.9379,-0.9599,-0.982,-1.0036,-1.0363,-1.0472,-1.0472,-1.0562,-1.066,-1.0664,-1.0546,-1.0373,-1.0204,-1.004,-0.9989,-0.9786,-0.9702,-0.9534,-0.9398,-0.916,-2.3497,-2.3001,-2.3001,-2.3001,-2.3001,-2.3001,-2.3001,-2.2927,-2.2777,-2.2241,-2.1696,-2.1575,-2.1144,-2.0504,-2.0494,-2.0522,-2.0493,-2.0512,-2.0512,-2.0558,-2.075,-2.0924,-2.1154,-2.1401,-2.153,-2.1667,-2.1651,-2.1562,-2.0997,-2.0167,-1.8972,-1.7584,-1.648,-1.6109,-1.592,-1.592,-1.5825,-1.5825,-1.5825,-1.5825,-1.5825,-1.5825,-1.5825,-1.5825,-1.5825,-1.5825,-1.5832,-1.577,-1.5823,-1.6002,-1.598,-1.5959,-1.6188,-1.6253,-1.6075,-1.6132,-1.5843,-1.5429,-1.4696,-1.4266,-1.4051,-1.4374,-1.4691,-1.4369,-1.3506,-1.2526,-1.1651,-1.0676,-0.9588,-0.9154,-0.8937,-0.8937,-0.8937,-0.8937,-0.8937,-0.8937,-0.8937,-0.8937,-0.8937,-0.8937,-0.8937,-0.8937,-0.8937,-0.9047,-0.9047,-0.8937,-0.8937,-0.8937,-0.8937,-0.8937,-0.8937,-0.9047,-0.9047,-0.9158,-0.9268,-0.9485,-0.9706,-1.0036,-1.0257,-1.0472,-1.0582,-1.0582,-1.0664,-1.0615,-1.0566,-1.0365,-1.0253,-1.0075,-0.9957,-0.9864,-0.9682,-0.9606,-0.9636,-0.943,-0.9236,-2.436,-2.3075,-2.3001,-2.3001,-2.3001,-2.3001,-2.3001,-2.2916,-2.2413,-2.2176,-2.2035,-2.1476,-2.1115,-2.0832,-2.0747,-2.0714,-2.0633,-2.0594,-2.0659,-2.0668,-2.086,-2.0989,-2.1117,-2.1264,-2.1502,-2.1578,-2.1553,-2.0997,-2.0249,-1.9247,-1.7777,-1.6567,-1.6109,-1.5825,-1.5825,-1.5825,-1.5825,-1.5825,-1.5825,-1.5825,-1.5825,-1.5825,-1.5825,-1.5825,-1.5825,-1.5825,-1.5737,-1.575,-1.575,-1.5761,-1.5706,-1.5739,-1.5879,-1.6119,-1.6196,-1.5873,-1.5099,-1.4228,-1.3398,-1.3073,-1.2639,-1.2743,-1.2417,-1.2309,-1.2309,-1.1764,-1.1109,-1.0457,-0.9588,-0.9265,-0.8937,-0.8937,-0.8937,-0.8937,-0.8937,-0.8937,-0.8937,-0.8937,-0.8937,-0.8937,-0.8937,-0.8937,-0.8937,-0.8937,-0.9047,-0.9047,-0.894,-0.894,-0.894,-0.9047,-0.9047,-0.9268,-0.9268,-0.9158,-0.9375,-0.9585,-0.9926,-1.0257,-1.0359,-1.0468,-1.0688,-1.0631,-1.0554,-1.0481,-1.0424,-1.0294,-1.0095,-0.9945,-0.9823,-0.9742,-0.9598,-0.9577,-0.9529,-0.943,-0.9331,-2.3913,-2.3001,-2.3001,-2.3001,-2.3001,-2.3001,-2.3001,-2.3001,-2.2777,-2.2553,-2.2122,-2.1761,-2.1184,-2.0799,-2.0696,-2.0698,-2.0863,-2.0989,-2.1181,-2.1227,-2.1227,-2.141,-2.1493,-2.153,-2.164,-2.1409,-2.1186,-2.0718,-1.9985,-1.8796,-1.7692,-1.6951,-1.6116,-1.592,-1.5825,-1.5825,-1.5825,-1.5825,-1.5825,-1.5825,-1.5825,-1.5825,-1.5825,-1.5825,-1.5825,-1.5825,-1.573,-1.5737,-1.5737,-1.5777,-1.5721,-1.5634,-1.5023,-1.4859,-1.469,-1.3693,-1.3469,-1.3176,-1.2526,-1.176,-1.1306,-1.0967,-1.0546,-1.1114,-1.1437,-1.1311,-1.055,-1.0131,-0.9563,-0.9003,-0.8879,-0.8876,-0.8886,-0.8893,-0.8899,-0.891,-0.8916,-0.8937,-0.8937,-0.8937,-0.8937,-0.8937,-0.8937,-0.9047,-0.9158,-0.9051,-0.9051,-0.9051,-0.9051,-0.9158,-0.9268,-0.9379,-0.9446,-0.9431,-0.9567,-0.9783,-1.0021,-1.0366,-1.0425,-1.0474,-1.053,-1.0465,-1.0404,-1.0306,-1.0193,-1.0079,-0.9949,-0.9819,-0.9721,-0.9685,-0.9648,-0.9438,-0.943,-0.943,-0.9331,-2.4131,-2.3412,-2.3139,-2.3001,-2.3001,-2.3001,-2.3001,-2.3001,-2.2767,-2.2327,-2.1741,-2.1281,-2.0876,-2.0504,-2.0329,-2.0457,-2.0814,-2.1007,-2.119,-2.1328,-2.1649,-2.1686,-2.1722,-2.1731,-2.1722,-2.1454,-2.1177,-2.0808,-1.9894,-1.8427,-1.7232,-1.6581,-1.6021,-1.592,-1.5825,-1.5825,-1.5825,-1.5825,-1.5825,-1.5825,-1.5825,-1.5825,-1.5825,-1.5825,-1.5825,-1.5825,-1.5825,-1.5825,-1.5825,-1.5825,-1.5825,-1.5415,-1.4655,-1.4034,-1.3328,-1.2467,-1.2164,-1.17,-1.0967,-1.0417,-1.0085,-0.9757,-0.9243,-0.9656,-1.0008,-1.0012,-0.9862,-0.9691,-0.9201,-0.8835,-0.8815,-0.8801,-0.8818,-0.8835,-0.8852,-0.8872,-0.8899,-0.8933,-0.8937,-0.8937,-0.8937,-0.8937,-0.9047,-0.9158,-0.9158,-0.9047,-0.9051,-0.9051,-0.9158,-0.9268,-0.9379,-0.9599,-0.9636,-0.9577,-0.9704,-0.9794,-0.9962,-1.0142,-1.0313,-1.0261,-1.0335,-1.0294,-1.0225,-1.0083,-0.9916,-0.9839,-0.9791,-0.9726,-0.9644,-0.9624,-0.9628,-0.9529,-0.943,-0.943,-0.9331,-2.4791,-2.4047,-2.3276,-2.3001,-2.3001,-2.3001,-2.3001,-2.2927,-2.2478,-2.1949,-2.1405,-2.0634,-2.0397,-2.0316,-2.0033,-2.0108,-2.0438,-2.0723,-2.0888,-2.108,-2.1438,-2.1575,-2.1612,-2.1624,-2.1731,-2.1651,-2.1275,-2.0529,-1.9613,-1.8241,-1.6857,-1.5825,-1.5825,-1.5825,-1.5825,-1.5825,-1.5825,-1.5825,-1.5825,-1.5825,-1.5825,-1.5825,-1.5825,-1.5825,-1.5825,-1.5825,-1.5825,-1.5825,-1.5825,-1.5825,-1.5642,-1.5267,-1.4189,-1.3172,-1.2203,-1.1518,-1.1015,-1.0326,-0.9738,-0.9279,-0.9037,-0.8814,-0.8608,-0.8831,-0.9087,-0.9244,-0.9201,-0.9215,-0.8834,-0.8699,-0.8676,-0.8655,-0.8659,-0.8726,-0.8781,-0.8842,-0.8913,-0.8933,-0.8937,-0.8937,-0.8937,-0.8937,-0.8937,-0.9047,-0.9047,-0.8937,-0.8937,-0.9047,-0.9137,-0.9354,-0.9537,-0.9651,-0.9806,-0.9708,-0.9743,-0.9815,-0.973,-0.9894,-1.0096,-1.0064,-1.0152,-1.0103,-1.005,-0.9908,-0.977,-0.9709,-0.9652,-0.9624,-0.9624,-0.9624,-0.9529,-0.9533,-0.9434,-0.9529,-0.9327,-2.485,-2.4047,-2.3276,-2.3001,-2.3001,-2.3001,-2.3001,-2.3001,-2.2852,-2.2692,-2.2381,-2.1471,-2.0829,-2.0664,-1.9902,-1.9804,-2.0044,-2.0283,-2.0402,-2.0695,-2.108,-2.1255,-2.1319,-2.1484,-2.163,-2.1463,-2.0907,-1.9844,-1.8564,-1.7569,-1.677,-1.592,-1.5825,-1.5825,-1.5825,-1.5825,-1.5825,-1.5825,-1.5825,-1.5825,-1.5825,-1.5825,-1.5825,-1.5825,-1.5825,-1.5825,-1.5825,-1.5825,-1.5825,-1.5825,-1.5825,-1.486,-1.3232,-1.2068,-1.0887,-0.9953,-0.963,-0.9146,-0.887,-0.8699,-0.8591,-0.8594,-0.8499,-0.8503,-0.8523,-0.8567,-0.8587,-0.8584,-0.8574,-0.8554,-0.853,-0.8509,-0.852,-0.8611,-0.8706,-0.8808,-0.891,-0.893,-0.8937,-0.8937,-0.8937,-0.8937,-0.8937,-0.8937,-0.8937,-0.8937,-0.8937,-0.9034,-0.9092,-0.9279,-0.9392,-0.9593,-0.9815,-0.9842,-0.9844,-0.9731,-0.9749,-0.976,-0.9884,-0.9935,-0.9969,-0.9904,-0.9843,-0.9754,-0.9652,-0.9632,-0.9624,-0.9624,-0.9624,-0.9624,-0.9628,-0.9529,-0.9529,-0.9529,-0.9327,-2.5269,-2.4969,-2.3913,-2.3276,-2.3075,-2.3001,-2.3001,-2.3001,-2.3001,-2.3001,-2.2927,-2.2004,-2.1318,-2.0857,-2.001,-1.9543,-1.9777,-1.987,-2.0063,-2.0338,-2.0622,-2.0796,-2.0979,-2.1117,-2.1089,-2.0938,-1.9869,-1.864,-1.7582,-1.6814,-1.6204,-1.5798,-1.5805,-1.5805,-1.5812,-1.5818,-1.5818,-1.5825,-1.5825,-1.5825,-1.5825,-1.5825,-1.5825,-1.5825,-1.5825,-1.5825,-1.5825,-1.5825,-1.5825,-1.5343,-1.486,-1.3596,-1.1965,-1.0677,-0.9746,-0.9082,-0.8628,-0.8388,-0.8309,-0.834,-0.8353,-0.834,-0.8374,-0.8367,-0.8255,-0.8299,-0.8418,-0.8421,-0.8414,-0.8394,-0.8353,-0.8326,-0.8408,-0.8503,-0.8587,-0.8679,-0.8828,-0.8933,-0.8937,-0.8937,-0.8937,-0.8937,-0.8937,-0.8937,-0.8937,-0.8937,-0.8937,-0.9088,-0.9149,-0.9273,-0.9385,-0.9512,-0.982,-0.9878,-0.986,-0.9753,-0.9661,-0.9697,-0.976,-0.9774,-0.9786,-0.9709,-0.9632,-0.9632,-0.9632,-0.9628,-0.9624,-0.9624,-0.9624,-0.9624,-0.9624,-0.9628,-0.9624,-0.9628,-0.9426,-2.5573,-2.5795,-2.4457,-2.3559,-2.3075,-2.3001,-2.3001,-2.3001,-2.3001,-2.3001,-2.2927,-2.2478,-2.1482,-2.0702,-2.0167,-1.9775,-1.9552,-1.9622,-1.9806,-1.9943,-2.0264,-2.0393,-2.0475,-2.0549,-2.048,-2.0066,-1.9163,-1.8443,-1.7679,-1.6762,-1.6058,-1.5792,-1.5725,-1.5732,-1.5758,-1.5772,-1.5745,-1.5805,-1.5825,-1.5825,-1.5825,-1.5825,-1.5825,-1.5825,-1.5825,-1.5825,-1.5825,-1.5825,-1.5825,-1.4956,-1.389,-1.2528,-1.1263,-1.0122,-0.9236,-0.8674,-0.8285,-0.8099,-0.8102,-0.8187,-0.815,-0.8133,-0.8201,-0.8184,-0.8082,-0.8116,-0.8235,-0.8262,-0.8255,-0.8238,-0.8197,-0.8197,-0.8289,-0.8448,-0.8533,-0.8628,-0.8798,-0.8937,-0.8937,-0.8937,-0.9047,-0.9047,-0.9047,-0.8937,-0.904,-0.904,-0.9099,-0.9138,-0.9266,-0.9341,-0.9429,-0.953,-0.967,-0.9815,-0.9855,-0.9815,-0.9638,-0.9634,-0.9674,-0.9685,-0.9624,-0.9624,-0.9624,-0.9628,-0.9628,-0.9624,-0.9624,-0.9624,-0.9624,-0.9624,-0.9624,-0.9624,-0.9624,-0.9628,-0.9529,-2.4439,-2.3863,-2.3402,-2.3128,-2.3001,-2.3001,-2.3001,-2.3001,-2.3001,-2.3001,-2.3001,-2.2852,-2.2155,-2.1021,-2.0401,-1.9932,-1.9557,-1.9556,-1.943,-1.9485,-1.9861,-1.9998,-2.009,-2.0117,-2.0018,-1.9478,-1.8801,-1.8167,-1.7178,-1.6439,-1.5847,-1.5275,-1.5177,-1.5271,-1.5471,-1.5511,-1.5605,-1.5705,-1.5812,-1.5825,-1.5825,-1.5825,-1.5825,-1.5825,-1.5825,-1.5825,-1.5825,-1.5825,-1.535,-1.4382,-1.3216,-1.1853,-1.0783,-0.9899,-0.9213,-0.8528,-0.8134,-0.8038,-0.8072,-0.8092,-0.8062,-0.8062,-0.8116,-0.8106,-0.8045,-0.8048,-0.8119,-0.8119,-0.8113,-0.8113,-0.8089,-0.8089,-0.8167,-0.8462,-0.8635,-0.876,-0.891,-0.8937,-0.9047,-0.9158,-0.9268,-0.9268,-0.9268,-0.9364,-0.9343,-0.9421,-0.9323,-0.9463,-0.9374,-0.9433,-0.9476,-0.9575,-0.9666,-0.9606,-0.9677,-0.9709,-0.9665,-0.9636,-0.9624,-0.9624,-0.9624,-0.9624,-0.9624,-0.9624,-0.9624,-0.9624,-0.9624,-0.9624,-0.9624,-0.9624,-0.9624,-0.9624,-0.9624,-0.9628,-0.9529]},{"header":{"parameterUnit":"m.s-1","parameterCategory":1,"la1":31.0,"la2":29.5877,"lo1":-88.7671,"lo2":-86.6584,"dy":0.0162,"dx":0.0185,"nx":115,"ny":88,"refTime":"2023-06-26T18:00:00:Z","depth":0,"parameterNumber":3,"parameterNumberName":"V-component_of_WINDS"},"data":[0.0,0.0,0.0,0.0,0.0,0.0,0.0,0.0,0.0,0.0,0.0,0.0,0.0,0.0,0.0,0.0,0.0,0.0,0.0,0.0,0.0,0.0,0.0,0.0,0.0,0.0,0.0,0.0,0.0,0.0,0.0,0.0,0.0,0.0,0.0,0.0,0.0,0.0,0.0,0.0,0.0,0.0,0.0,0.0,0.0,0.0,0.0,0.0,0.0,0.0,0.0,0.0,0.0,0.0,0.0,0.0,0.0,0.0,0.0,0.0,0.0,0.0,0.0,0.0,0.0,0.0,0.0,0.0,0.0,0.0,0.0,0.0,0.0,0.0,0.0,0.0,0.0,0.0,0.0,0.0,0.0,0.0,0.0,0.0,0.0,0.0,0.0,0.0,0.0,0.0,0.0,0.0,0.0,0.0,0.0,0.0,0.0,0.0,0.0,0.0,0.0,0.0,0.0,0.0,0.0,0.0,0.0,0.0,0.0,0.0,0.0,0.0,0.0,0.0,0.0,0.0,0.0,0.0,0.0,0.0,0.0,0.0,0.0,0.0,0.0,0.0,0.0,0.0,0.0,0.0,0.0,0.0,0.0,0.0,0.0,0.0,0.0,0.0,0.0,0.0,0.0,0.0,0.0,0.0,0.0,0.0,0.0,0.0,0.0,0.0,0.0,0.0,0.0,0.0,0.0,0.0,0.0,0.0,0.0,0.0,0.0,0.0,0.0,0.0,0.0,0.0,0.0,0.0,0.0,0.0,0.0,0.0,0.0,0.0,0.0,0.0,0.0,0.0,0.0,0.0,0.0,0.0,0.0,0.0,0.0,0.0,0.0,0.0,0.0,0.0,0.0,0.0,0.0,0.0,0.0,0.0,0.0,0.0,0.0,0.0,0.0,0.0,0.0,0.0,0.0,0.0,0.0,0.0,0.0,0.0,0.0,0.0,0.0,0.0,0.0,0.0,0.0,0.0,0.0,0.0,0.0,0.0,0.0,0.0,0.0,0.0,0.0,0.0,0.0,0.0,0.0,0.0,0.0,0.0,0.0,0.0,0.0,0.0,0.0,0.0,0.0,0.0,0.0,0.0,0.0,0.0,0.0,0.0,0.0,0.0,0.0,0.0,0.0,0.0,0.0,0.0,0.0,0.0,0.0,0.0,0.0,0.0,0.0,0.0,0.0,0.0,0.0,0.0,0.0,0.0,0.0,0.0,0.0,0.0,0.0,0.0,0.0,0.0,0.0,0.0,0.0,0.0,0.0,0.0,0.0,0.0,0.0,0.0,0.0,0.0,0.0,0.0,0.0,0.0,0.0,0.0,0.0,0.0,0.0,0.0,0.0,0.0,0.0,0.0,0.0,0.0,0.0,0.0,0.0,0.0,0.0,0.0,0.0,0.0,0.0,0.0,0.0,0.0,0.0,0.0,0.0,0.0,0.0,0.0,0.0,0.0,0.0,0.0,0.0,0.0,0.0,0.0,0.0,0.0,0.0,0.0,0.0,0.0,0.0,0.0,0.0,0.0,0.0,0.0,0.0,0.0,0.0,0.0,0.0,0.0,0.0,0.0,0.0,0.0,0.0,0.0,0.0,0.0,0.0,0.0,0.0,0.0,0.0,0.0,0.0,0.0,0.0,0.0,0.0,0.0,0.0,0.0,0.0,0.0,0.0,0.0,0.0,0.0,0.0,0.0,0.0,0.0,0.0,0.0,0.0,0.0,0.0,0.0,0.0,0.0,0.0,0.0,0.0,0.0,0.0,0.0,0.0,0.0,0.0,0.0,0.0,0.0,0.0,0.0,0.0,0.0,0.0,0.0,0.0,0.0,0.0,0.0,0.0,0.0,0.0,0.0,0.0,0.0,0.0,0.0,0.0,0.0,0.0,0.0,0.0,0.0,0.0,0.0,0.0,0.0,0.0,0.0,0.0,0.0,0.0,0.0,0.0,0.0,0.0,0.0,0.0,0.0,0.0,0.0,0.0,0.0,0.0,0.0,0.0,0.0,0.0,0.0,0.0,0.0,0.0,0.0,0.0,0.0,0.0,0.0,0.0,0.0,0.0,0.0,0.0,0.0,0.0,0.0,0.0,0.0,0.0,0.0,0.0,0.0,0.0,0.0,0.0,0.0,0.0,0.0,0.0,0.0,0.0,0.0,0.0,0.0,0.0,0.0,0.0,0.0,0.0,0.0,0.0,0.0,0.0,0.0,0.0,0.0,0.0,0.0,0.0,0.0,0.0,0.0,0.0,0.0,0.0,0.0,0.0,0.0,0.0,0.0,0.0,0.0,0.0,0.0,0.0,0.0,0.0,0.0,0.0,0.0,0.0,0.0,0.0,0.0,0.0,0.0,0.0,0.0,0.0,0.0,0.0,0.0,0.0,0.0,0.0,0.0,0.0,0.0,0.0,0.0,0.0,0.0,0.0,0.0,0.0,0.0,0.0,0.0,0.0,0.0,0.0,0.0,0.0,0.0,0.0,0.0,0.0,0.0,0.0,0.0,0.0,0.0,0.0,0.0,0.0,0.0,0.0,0.0,0.0,0.0,0.0,0.0,0.0,0.0,0.0,0.0,0.0,0.0,0.0,0.0,0.0,0.0,0.0,0.0,0.0,0.0,0.0,0.0,0.0,0.0,0.0,0.0,0.0,0.0,0.0,0.0,0.0,0.0,0.0,0.0,0.0,0.0,0.0,0.0,0.0,0.0,0.0,0.0,0.0,0.0,0.0,0.0,0.0,0.0,0.0,0.0,0.0,0.0,0.0,0.0,0.0,0.0,0.0,0.0,0.0,0.0,0.0,0.0,0.0,0.0,0.0,0.0,0.0,0.0,0.0,0.0,0.0,0.0,0.0,0.0,0.0,0.0,0.0,0.0,0.0,0.0,0.0,0.0,0.0,0.0,0.0,0.0,0.0,0.0,0.0,0.0,0.0,0.0,0.0,0.0,0.0,0.0,0.0,0.0,0.0,0.0,0.0,0.0,0.0,0.0,0.0,0.0,0.0,0.0,0.0,0.0,0.0,0.0,0.0,0.0,0.0,0.0,0.0,0.0,0.0,0.0,0.0,0.0,0.0,0.0,0.0,0.0,0.0,0.0,0.0,0.0,0.0,0.0,0.0,0.0,0.0,0.0,0.0,0.0,0.0,0.0,0.0,0.0,0.0,0.0,0.0,0.0,0.0,0.0,0.0,0.0,0.0,0.0,0.0,0.0,0.0,0.0,0.0,0.0,0.0,0.0,0.0,0.0,0.0,0.0,0.0,0.0,0.0,0.0,0.0,0.0,0.0,0.0,0.0,0.0,0.0,0.0,0.0,0.0,0.0,0.0,0.0,0.0,0.0,0.0,0.0,0.0,0.0,0.0,0.0,0.0,0.0,0.0,0.0,0.0,0.0,0.0,0.0,0.0,0.0,0.0,0.0,0.0,0.0,0.0,0.0,0.0,0.0,0.0,0.0,0.0,0.0,0.0,0.0,0.0,0.0,0.0,0.0,0.0,0.0,0.0,0.0,0.0,0.0,0.0,0.0,0.0,0.0,0.0,0.0,0.0,0.0,0.0,0.0,0.0,0.0,0.0,0.0,0.0,0.0,0.0,0.0,0.0,0.0,0.0,0.0,0.0,0.0,0.0,0.0,0.0,0.0,0.0,0.0,0.0,0.0,0.0,0.0,0.0,0.0,0.0,0.0,0.0,0.0,0.0,0.0,0.0,0.0,0.0,0.0,0.0,0.0,0.0,0.0,0.0,0.0,0.0,0.0,0.0,0.0,0.0,0.0,0.0,0.0,0.0,0.0,0.0,0.0,0.0,0.0,0.0,0.0,0.0,0.0,0.0,0.0,0.0,0.0,0.0,0.0,0.0,0.0,0.0,0.0,0.0,0.0,0.0,0.0,0.0,0.0,0.0,0.0,0.0,0.0,0.0,0.0,0.0,0.0,0.0,0.0,0.0,0.0,0.0,0.0,0.0,0.0,0.0,0.0,0.0,0.0,0.0,0.0,0.0,0.0,0.0,0.0,0.0,0.0,0.0,0.0,0.0,0.0,0.0,0.0,0.0,0.0,0.0,0.0,0.0,0.0,0.0,0.0,0.0,0.0,0.0,0.0,0.0,0.0,0.0,0.0,0.0,0.0,0.0,0.0,0.0,0.0,0.0,0.0,0.0,0.0,0.0,0.0,0.0,0.0,0.0,0.0,0.0,0.0,0.0,0.0,0.0,0.0,0.0,0.0,0.0,0.0,0.0,0.0,0.0,0.0,0.0,0.0,0.0,0.0,0.0,-3.0069,0.0,0.0,0.0,-3.0182,0.0,0.0,0.0,0.0,0.0,0.0,0.0,0.0,0.0,0.0,0.0,0.0,0.0,0.0,0.0,0.0,0.0,0.0,0.0,0.0,0.0,0.0,0.0,0.0,0.0,0.0,0.0,0.0,0.0,0.0,0.0,0.0,0.0,0.0,0.0,0.0,0.0,0.0,0.0,0.0,0.0,0.0,0.0,0.0,0.0,0.0,0.0,0.0,0.0,0.0,0.0,0.0,0.0,0.0,0.0,0.0,0.0,0.0,0.0,0.0,0.0,0.0,0.0,0.0,0.0,0.0,0.0,0.0,0.0,0.0,0.0,0.0,0.0,0.0,0.0,0.0,0.0,0.0,0.0,0.0,0.0,0.0,0.0,0.0,0.0,0.0,0.0,0.0,0.0,0.0,0.0,0.0,0.0,0.0,0.0,0.0,0.0,0.0,0.0,0.0,0.0,0.0,0.0,0.0,0.0,0.0,0.0,0.0,0.0,0.0,-2.9621,-2.9074,-2.9335,-2.9319,-2.9044,0.0,0.0,0.0,0.0,0.0,0.0,0.0,0.0,0.0,0.0,0.0,0.0,0.0,0.0,0.0,0.0,0.0,0.0,0.0,0.0,0.0,0.0,0.0,0.0,0.0,0.0,0.0,0.0,0.0,0.0,0.0,0.0,0.0,0.0,0.0,0.0,0.0,0.0,0.0,0.0,0.0,0.0,0.0,0.0,0.0,0.0,0.0,0.0,0.0,0.0,0.0,0.0,0.0,0.0,0.0,0.0,0.0,0.0,0.0,0.0,0.0,0.0,0.0,0.0,0.0,0.0,0.0,0.0,0.0,0.0,0.0,0.0,0.0,0.0,0.0,0.0,0.0,0.0,0.0,0.0,0.0,0.0,0.0,0.0,0.0,0.0,0.0,0.0,0.0,0.0,0.0,0.0,0.0,0.0,0.0,0.0,0.0,0.0,0.0,0.0,0.0,0.0,0.0,0.0,0.0,0.0,0.0,0.0,0.0,0.0,0.0,0.0,-2.8685,-2.8732,-2.8304,0.0,0.0,0.0,0.0,0.0,0.0,0.0,0.0,0.0,0.0,0.0,0.0,0.0,0.0,0.0,0.0,0.0,0.0,0.0,0.0,0.0,0.0,0.0,0.0,0.0,0.0,0.0,0.0,0.0,0.0,0.0,0.0,0.0,0.0,0.0,0.0,0.0,0.0,0.0,0.0,0.0,0.0,0.0,0.0,0.0,0.0,0.0,0.0,0.0,0.0,0.0,0.0,0.0,0.0,0.0,0.0,0.0,0.0,0.0,0.0,0.0,0.0,0.0,0.0,0.0,0.0,0.0,0.0,0.0,0.0,0.0,0.0,0.0,0.0,0.0,0.0,0.0,0.0,0.0,0.0,0.0,0.0,0.0,0.0,0.0,0.0,0.0,0.0,0.0,0.0,0.0,0.0,0.0,0.0,0.0,0.0,0.0,0.0,0.0,0.0,0.0,0.0,0.0,0.0,0.0,0.0,0.0,0.0,0.0,0.0,-2.84,-2.8288,-2.8352,0.0,-2.8143,0.0,0.0,0.0,0.0,0.0,0.0,0.0,0.0,0.0,0.0,0.0,0.0,0.0,0.0,0.0,0.0,0.0,0.0,0.0,0.0,0.0,0.0,0.0,0.0,0.0,0.0,0.0,0.0,0.0,0.0,0.0,0.0,0.0,0.0,0.0,0.0,0.0,0.0,0.0,0.0,0.0,0.0,0.0,0.0,0.0,0.0,0.0,0.0,0.0,0.0,0.0,0.0,0.0,0.0,0.0,0.0,0.0,0.0,0.0,0.0,0.0,0.0,0.0,0.0,0.0,0.0,0.0,0.0,0.0,0.0,0.0,0.0,0.0,0.0,0.0,0.0,0.0,0.0,0.0,0.0,0.0,0.0,0.0,0.0,0.0,0.0,0.0,0.0,0.0,0.0,0.0,0.0,0.0,0.0,0.0,0.0,0.0,0.0,0.0,0.0,0.0,0.0,0.0,0.0,0.0,0.0,0.0,0.0,0.0,0.0,-2.8012,-2.7444,-2.7408,-2.753,0.0,0.0,0.0,0.0,0.0,0.0,0.0,0.0,0.0,0.0,0.0,0.0,0.0,0.0,0.0,0.0,0.0,0.0,0.0,0.0,0.0,0.0,0.0,0.0,0.0,0.0,0.0,0.0,0.0,0.0,0.0,0.0,0.0,0.0,0.0,0.0,0.0,0.0,0.0,0.0,0.0,0.0,0.0,0.0,0.0,0.0,0.0,0.0,0.0,0.0,0.0,0.0,0.0,0.0,0.0,0.0,0.0,0.0,0.0,0.0,0.0,0.0,0.0,0.0,0.0,0.0,0.0,0.0,0.0,0.0,0.0,0.0,0.0,0.0,0.0,0.0,0.0,0.0,0.0,0.0,0.0,0.0,0.0,0.0,0.0,0.0,0.0,0.0,0.0,0.0,0.0,0.0,0.0,0.0,0.0,0.0,0.0,0.0,0.0,0.0,0.0,0.0,0.0,0.0,0.0,0.0,0.0,0.0,0.0,0.0,-2.765,-2.7545,-2.6765,-2.6486,-2.663,-2.7174,0.0,0.0,0.0,0.0,0.0,0.0,0.0,0.0,0.0,0.0,0.0,0.0,0.0,0.0,0.0,0.0,0.0,0.0,0.0,0.0,0.0,0.0,0.0,0.0,0.0,0.0,0.0,0.0,0.0,0.0,0.0,0.0,0.0,0.0,0.0,0.0,0.0,0.0,0.0,0.0,0.0,0.0,0.0,0.0,0.0,0.0,0.0,0.0,0.0,0.0,0.0,0.0,0.0,0.0,0.0,0.0,0.0,0.0,0.0,0.0,0.0,0.0,0.0,0.0,0.0,0.0,0.0,0.0,0.0,0.0,0.0,0.0,0.0,0.0,0.0,0.0,0.0,0.0,0.0,0.0,0.0,0.0,0.0,0.0,0.0,0.0,0.0,0.0,0.0,0.0,0.0,0.0,0.0,0.0,0.0,0.0,0.0,0.0,0.0,0.0,0.0,0.0,0.0,0.0,0.0,0.0,0.0,0.0,-2.6686,-2.6774,-2.6765,-2.6443,-2.5687,-2.5577,0.0,0.0,0.0,0.0,0.0,0.0,0.0,0.0,0.0,0.0,0.0,0.0,0.0,0.0,0.0,0.0,0.0,0.0,0.0,0.0,0.0,0.0,0.0,0.0,0.0,0.0,0.0,0.0,0.0,0.0,0.0,0.0,0.0,0.0,0.0,0.0,0.0,0.0,0.0,0.0,0.0,0.0,0.0,0.0,0.0,0.0,0.0,0.0,0.0,0.0,0.0,0.0,0.0,0.0,0.0,0.0,0.0,0.0,0.0,0.0,0.0,0.0,0.0,0.0,0.0,0.0,0.0,0.0,0.0,0.0,0.0,0.0,0.0,0.0,0.0,0.0,0.0,0.0,0.0,0.0,0.0,0.0,0.0,0.0,0.0,0.0,0.0,0.0,0.0,0.0,0.0,0.0,0.0,0.0,0.0,0.0,0.0,0.0,0.0,0.0,0.0,0.0,0.0,0.0,0.0,0.0,0.0,0.0,0.0,-2.5972,-2.5536,-2.5315,-2.5315,-2.5342,-2.5522,0.0,0.0,0.0,0.0,0.0,0.0,0.0,0.0,0.0,0.0,0.0,0.0,0.0,0.0,0.0,0.0,0.0,0.0,0.0,0.0,0.0,0.0,0.0,0.0,0.0,0.0,0.0,0.0,0.0,0.0,0.0,0.0,0.0,0.0,0.0,0.0,0.0,0.0,0.0,0.0,0.0,0.0,0.0,0.0,0.0,0.0,0.0,0.0,0.0,0.0,0.0,0.0,0.0,0.0,0.0,0.0,0.0,0.0,0.0,0.0,0.0,0.0,0.0,0.0,0.0,0.0,0.0,0.0,0.0,0.0,0.0,0.0,0.0,0.0,0.0,0.0,0.0,0.0,0.0,0.0,0.0,0.0,0.0,0.0,0.0,0.0,0.0,0.0,0.0,0.0,0.0,0.0,0.0,0.0,0.0,0.0,0.0,0.0,0.0,0.0,0.0,0.0,0.0,0.0,0.0,0.0,0.0,0.0,0.0,-2.5563,0.0,-2.4137,-2.4641,-2.4824,-2.5106,0.0,0.0,0.0,0.0,0.0,0.0,0.0,0.0,0.0,0.0,0.0,0.0,0.0,0.0,0.0,0.0,0.0,0.0,0.0,0.0,0.0,0.0,0.0,0.0,0.0,0.0,0.0,0.0,0.0,0.0,0.0,0.0,0.0,0.0,0.0,0.0,0.0,0.0,0.0,0.0,0.0,0.0,0.0,0.0,0.0,0.0,0.0,0.0,0.0,0.0,0.0,0.0,0.0,0.0,0.0,0.0,0.0,0.0,0.0,0.0,0.0,0.0,0.0,0.0,0.0,0.0,0.0,0.0,0.0,0.0,0.0,0.0,0.0,0.0,0.0,0.0,0.0,0.0,0.0,0.0,0.0,0.0,0.0,0.0,0.0,0.0,0.0,0.0,0.0,0.0,0.0,0.0,0.0,0.0,0.0,0.0,0.0,0.0,0.0,0.0,0.0,0.0,0.0,0.0,0.0,0.0,0.0,0.0,-2.6122,-2.5342,-2.3649,-2.3245,-2.4394,-2.4195,-2.4469,0.0,0.0,0.0,0.0,0.0,0.0,0.0,0.0,0.0,0.0,0.0,0.0,0.0,0.0,0.0,0.0,0.0,0.0,0.0,0.0,0.0,0.0,0.0,0.0,0.0,0.0,0.0,0.0,0.0,0.0,0.0,0.0,0.0,0.0,0.0,0.0,0.0,0.0,0.0,0.0,0.0,0.0,0.0,0.0,0.0,0.0,0.0,0.0,0.0,0.0,0.0,0.0,0.0,0.0,0.0,0.0,0.0,0.0,0.0,0.0,0.0,0.0,0.0,0.0,0.0,0.0,0.0,0.0,0.0,0.0,0.0,0.0,0.0,0.0,0.0,0.0,0.0,0.0,0.0,0.0,0.0,0.0,0.0,0.0,0.0,0.0,0.0,0.0,0.0,0.0,0.0,0.0,0.0,0.0,0.0,0.0,0.0,0.0,0.0,0.0,0.0,0.0,0.0,0.0,0.0,0.0,0.0,0.0,0.0,-2.415,-2.3005,-2.236,-2.2527,-2.3619,-2.4195,0.0,0.0,0.0,0.0,0.0,0.0,0.0,0.0,0.0,0.0,0.0,0.0,0.0,0.0,0.0,0.0,0.0,0.0,0.0,0.0,0.0,0.0,0.0,0.0,0.0,0.0,0.0,0.0,0.0,0.0,0.0,0.0,0.0,0.0,0.0,0.0,0.0,0.0,0.0,0.0,0.0,0.0,0.0,0.0,0.0,0.0,0.0,0.0,0.0,0.0,0.0,0.0,0.0,0.0,0.0,0.0,0.0,0.0,0.0,0.0,0.0,0.0,0.0,0.0,0.0,0.0,0.0,0.0,0.0,0.0,0.0,0.0,0.0,0.0,0.0,0.0,0.0,0.0,0.0,0.0,0.0,0.0,0.0,0.0,0.0,0.0,0.0,0.0,0.0,0.0,0.0,0.0,0.0,0.0,0.0,0.0,0.0,0.0,0.0,0.0,0.0,0.0,0.0,0.0,0.0,0.0,0.0,0.0,0.0,-2.3548,-2.296,-2.2566,-2.2287,-2.3492,-2.4112,-2.399,0.0,0.0,0.0,0.0,0.0,0.0,0.0,0.0,0.0,0.0,0.0,0.0,0.0,0.0,0.0,0.0,0.0,0.0,0.0,0.0,0.0,0.0,0.0,0.0,0.0,0.0,0.0,0.0,0.0,0.0,0.0,0.0,0.0,0.0,0.0,0.0,0.0,0.0,0.0,0.0,0.0,0.0,0.0,0.0,0.0,0.0,0.0,0.0,0.0,0.0,0.0,0.0,0.0,0.0,0.0,0.0,0.0,0.0,0.0,0.0,0.0,0.0,0.0,0.0,0.0,0.0,0.0,0.0,0.0,0.0,0.0,0.0,0.0,0.0,0.0,0.0,0.0,0.0,0.0,0.0,0.0,0.0,0.0,0.0,0.0,0.0,0.0,0.0,0.0,0.0,0.0,0.0,0.0,0.0,0.0,0.0,0.0,0.0,0.0,0.0,0.0,0.0,0.0,0.0,0.0,0.0,0.0,0.0,-2.3526,-2.3563,-2.355,-2.3464,-2.3766,-2.4106,0.0,0.0,0.0,0.0,0.0,0.0,0.0,0.0,0.0,0.0,0.0,0.0,0.0,0.0,0.0,0.0,0.0,0.0,0.0,0.0,0.0,0.0,0.0,0.0,0.0,0.0,0.0,0.0,0.0,0.0,0.0,0.0,0.0,0.0,0.0,0.0,0.0,0.0,0.0,0.0,0.0,0.0,0.0,0.0,0.0,0.0,0.0,0.0,0.0,0.0,0.0,0.0,0.0,0.0,0.0,0.0,0.0,0.0,0.0,0.0,0.0,0.0,0.0,0.0,0.0,0.0,0.0,0.0,0.0,0.0,0.0,0.0,0.0,0.0,0.0,0.0,0.0,0.0,0.0,0.0,0.0,0.0,0.0,0.0,0.0,0.0,0.0,0.0,0.0,0.0,0.0,0.0,0.0,0.0,0.0,0.0,0.0,0.0,0.0,0.0,0.0,0.0,0.0,0.0,0.0,0.0,0.0,0.0,0.0,-2.3753,-2.4195,-2.4025,-2.3207,-2.3891,-2.4335,0.0,0.0,0.0,0.0,0.0,0.0,0.0,0.0,0.0,0.0,0.0,0.0,0.0,0.0,0.0,0.0,0.0,0.0,0.0,0.0,0.0,0.0,0.0,0.0,0.0,0.0,0.0,0.0,0.0,0.0,0.0,0.0,0.0,0.0,0.0,0.0,0.0,0.0,0.0,0.0,0.0,0.0,0.0,0.0,0.0,0.0,0.0,0.0,0.0,0.0,0.0,0.0,0.0,0.0,0.0,0.0,0.0,0.0,0.0,0.0,0.0,0.0,0.0,0.0,0.0,0.0,0.0,0.0,0.0,0.0,0.0,0.0,0.0,0.0,0.0,0.0,0.0,0.0,0.0,0.0,0.0,0.0,0.0,0.0,0.0,0.0,0.0,0.0,0.0,0.0,0.0,0.0,0.0,0.0,0.0,0.0,0.0,0.0,0.0,0.0,0.0,0.0,0.0,0.0,0.0,0.0,0.0,0.0,-2.3721,-2.3893,-2.4631,-2.4715,-2.4111,-2.4147,-2.4376,0.0,0.0,0.0,0.0,0.0,0.0,0.0,0.0,0.0,0.0,0.0,0.0,0.0,0.0,0.0,0.0,0.0,0.0,0.0,0.0,0.0,0.0,0.0,0.0,0.0,0.0,0.0,0.0,0.0,0.0,0.0,0.0,0.0,0.0,0.0,0.0,0.0,0.0,0.0,0.0,0.0,0.0,0.0,0.0,0.0,0.0,0.0,0.0,0.0,0.0,0.0,0.0,0.0,0.0,0.0,0.0,0.0,0.0,0.0,0.0,0.0,0.0,0.0,0.0,0.0,0.0,0.0,0.0,0.0,0.0,0.0,0.0,0.0,0.0,0.0,0.0,0.0,0.0,0.0,0.0,0.0,0.0,0.0,0.0,0.0,0.0,0.0,0.0,0.0,0.0,0.0,0.0,0.0,0.0,0.0,0.0,0.0,0.0,0.0,0.0,0.0,0.0,0.0,0.0,0.0,0.0,0.0,0.0,-2.3863,-2.4044,-2.4864,-2.5382,-2.5511,-2.4572,-2.4404,0.0,0.0,0.0,0.0,0.0,0.0,0.0,0.0,0.0,0.0,0.0,0.0,0.0,0.0,0.0,0.0,0.0,0.0,0.0,0.0,0.0,0.0,0.0,0.0,0.0,0.0,0.0,0.0,0.0,0.0,0.0,0.0,0.0,0.0,0.0,0.0,0.0,0.0,0.0,0.0,0.0,0.0,0.0,0.0,0.0,0.0,0.0,0.0,0.0,0.0,0.0,0.0,0.0,0.0,0.0,0.0,0.0,0.0,0.0,0.0,0.0,0.0,0.0,0.0,0.0,0.0,0.0,0.0,0.0,0.0,0.0,0.0,0.0,0.0,0.0,0.0,0.0,0.0,0.0,0.0,0.0,0.0,0.0,0.0,0.0,0.0,0.0,0.0,0.0,0.0,0.0,0.0,0.0,0.0,0.0,0.0,0.0,0.0,0.0,0.0,0.0,0.0,0.0,0.0,0.0,0.0,0.0,0.0,-2.4032,-2.4362,-2.4975,-2.5312,-2.5382,-2.456,-2.4707,0.0,0.0,0.0,0.0,0.0,0.0,0.0,0.0,0.0,0.0,0.0,0.0,0.0,0.0,0.0,0.0,0.0,0.0,0.0,0.0,0.0,0.0,0.0,0.0,0.0,0.0,0.0,0.0,0.0,0.0,0.0,0.0,0.0,0.0,0.0,0.0,0.0,0.0,0.0,0.0,0.0,0.0,0.0,0.0,0.0,0.0,0.0,0.0,-3.0376,0.0,0.0,0.0,0.0,0.0,0.0,0.0,0.0,0.0,0.0,0.0,0.0,0.0,0.0,0.0,0.0,0.0,0.0,0.0,0.0,0.0,0.0,0.0,0.0,0.0,0.0,0.0,0.0,0.0,0.0,0.0,0.0,0.0,0.0,0.0,0.0,0.0,0.0,0.0,0.0,0.0,0.0,0.0,0.0,0.0,0.0,0.0,0.0,0.0,0.0,0.0,0.0,0.0,0.0,0.0,0.0,0.0,0.0,0.0,-2.4013,-2.4518,-2.5035,-2.5312,-2.5429,-2.5142,-2.528,0.0,0.0,0.0,0.0,0.0,0.0,0.0,0.0,0.0,0.0,0.0,0.0,0.0,0.0,0.0,0.0,0.0,0.0,0.0,0.0,0.0,0.0,0.0,0.0,0.0,0.0,0.0,0.0,0.0,0.0,0.0,0.0,0.0,0.0,0.0,0.0,0.0,0.0,0.0,0.0,0.0,0.0,0.0,0.0,0.0,0.0,0.0,0.0,0.0,0.0,0.0,0.0,0.0,0.0,0.0,0.0,0.0,0.0,0.0,0.0,0.0,0.0,0.0,0.0,0.0,0.0,0.0,0.0,0.0,0.0,0.0,0.0,0.0,0.0,0.0,0.0,0.0,0.0,0.0,0.0,0.0,0.0,0.0,0.0,0.0,0.0,0.0,0.0,0.0,0.0,0.0,0.0,0.0,0.0,0.0,0.0,0.0,0.0,0.0,0.0,0.0,0.0,0.0,0.0,0.0,0.0,0.0,-2.3598,-2.4061,-2.4626,-2.5083,-2.5382,-2.5523,-2.5765,-2.5858,-2.5808,0.0,0.0,0.0,0.0,0.0,0.0,0.0,0.0,0.0,0.0,0.0,0.0,0.0,0.0,0.0,0.0,0.0,0.0,0.0,0.0,0.0,0.0,0.0,0.0,0.0,0.0,0.0,0.0,0.0,0.0,0.0,0.0,0.0,0.0,0.0,0.0,0.0,0.0,-3.3112,-3.1694,0.0,0.0,0.0,0.0,0.0,0.0,0.0,0.0,-3.0249,0.0,0.0,0.0,0.0,0.0,0.0,0.0,0.0,0.0,0.0,0.0,0.0,0.0,0.0,0.0,0.0,0.0,0.0,0.0,0.0,0.0,0.0,0.0,0.0,0.0,0.0,0.0,0.0,0.0,0.0,0.0,0.0,0.0,0.0,0.0,0.0,0.0,0.0,0.0,0.0,0.0,0.0,0.0,0.0,0.0,0.0,0.0,0.0,0.0,0.0,0.0,0.0,0.0,0.0,0.0,0.0,-2.3682,-2.3779,-2.423,-2.5143,-2.5264,-2.5312,-2.537,-2.5494,-2.565,-2.5808,0.0,0.0,0.0,0.0,0.0,0.0,0.0,0.0,0.0,0.0,0.0,0.0,0.0,0.0,0.0,0.0,0.0,0.0,0.0,0.0,0.0,0.0,0.0,0.0,0.0,0.0,0.0,0.0,0.0,0.0,0.0,0.0,0.0,0.0,0.0,0.0,0.0,0.0,0.0,-3.0783,-3.0063,0.0,0.0,0.0,0.0,0.0,0.0,0.0,0.0,-3.0586,0.0,0.0,0.0,0.0,0.0,0.0,0.0,0.0,0.0,0.0,0.0,0.0,0.0,0.0,0.0,0.0,0.0,0.0,0.0,0.0,0.0,0.0,0.0,0.0,0.0,0.0,0.0,0.0,0.0,0.0,0.0,0.0,0.0,0.0,0.0,0.0,0.0,0.0,0.0,0.0,0.0,0.0,0.0,0.0,0.0,0.0,0.0,0.0,0.0,0.0,0.0,0.0,0.0,0.0,0.0,-2.3803,-2.4302,-2.4939,-2.5697,-2.5997,-2.636,-2.6756,-2.6564,-2.6531,0.0,0.0,0.0,0.0,0.0,0.0,0.0,0.0,0.0,0.0,0.0,0.0,0.0,0.0,0.0,0.0,0.0,0.0,0.0,0.0,0.0,0.0,0.0,0.0,0.0,0.0,0.0,0.0,0.0,0.0,0.0,0.0,0.0,0.0,0.0,0.0,0.0,0.0,0.0,0.0,-3.0864,-3.0446,-3.1067,0.0,0.0,0.0,0.0,0.0,0.0,-3.0726,-3.0628,0.0,0.0,0.0,0.0,0.0,0.0,0.0,0.0,0.0,0.0,0.0,0.0,0.0,0.0,0.0,0.0,0.0,0.0,0.0,0.0,0.0,0.0,0.0,0.0,0.0,0.0,0.0,0.0,0.0,0.0,0.0,0.0,0.0,0.0,0.0,0.0,0.0,0.0,0.0,0.0,0.0,0.0,0.0,0.0,0.0,0.0,0.0,0.0,0.0,0.0,0.0,0.0,0.0,0.0,0.0,-2.4448,-2.5286,-2.6066,-2.6735,-2.7189,-2.7705,-2.8324,-2.7841,-2.7629,0.0,0.0,0.0,0.0,0.0,0.0,0.0,0.0,0.0,0.0,0.0,0.0,0.0,0.0,0.0,0.0,0.0,0.0,0.0,0.0,0.0,0.0,0.0,0.0,0.0,0.0,0.0,0.0,0.0,0.0,0.0,0.0,0.0,0.0,0.0,0.0,0.0,0.0,0.0,0.0,0.0,-3.0962,-3.1467,-3.0937,0.0,0.0,0.0,0.0,-3.0712,-3.0825,0.0,0.0,0.0,0.0,0.0,0.0,0.0,0.0,0.0,0.0,0.0,0.0,0.0,0.0,0.0,0.0,0.0,0.0,0.0,0.0,0.0,0.0,0.0,0.0,0.0,0.0,0.0,0.0,0.0,0.0,0.0,0.0,0.0,0.0,0.0,0.0,0.0,0.0,0.0,0.0,0.0,0.0,0.0,0.0,0.0,0.0,0.0,0.0,0.0,0.0,0.0,0.0,0.0,0.0,0.0,0.0,-2.6337,-2.684,-2.7678,-2.8827,-2.9015,-2.9041,-2.917,-2.8652,-2.84,0.0,0.0,0.0,0.0,0.0,0.0,0.0,0.0,0.0,0.0,0.0,0.0,0.0,0.0,0.0,0.0,0.0,0.0,0.0,0.0,0.0,0.0,0.0,0.0,0.0,0.0,0.0,0.0,0.0,0.0,0.0,0.0,0.0,0.0,0.0,0.0,0.0,0.0,0.0,0.0,0.0,-3.0755,-3.1401,-3.0937,-3.0451,0.0,0.0,-3.1387,-3.1387,-3.1836,0.0,0.0,0.0,0.0,0.0,0.0,0.0,0.0,0.0,0.0,0.0,0.0,0.0,0.0,0.0,0.0,0.0,0.0,0.0,0.0,0.0,0.0,0.0,0.0,0.0,0.0,0.0,0.0,0.0,0.0,0.0,0.0,0.0,0.0,0.0,0.0,0.0,0.0,0.0,0.0,0.0,0.0,0.0,0.0,0.0,0.0,0.0,0.0,0.0,0.0,0.0,0.0,0.0,0.0,0.0,-2.6913,-2.7262,-2.8334,-2.9204,-2.9738,-3.0066,-3.0513,-3.1003,-2.9821,-2.9347,0.0,0.0,0.0,0.0,0.0,0.0,0.0,0.0,0.0,0.0,0.0,0.0,0.0,0.0,0.0,0.0,0.0,0.0,0.0,0.0,0.0,0.0,0.0,0.0,0.0,0.0,0.0,0.0,0.0,0.0,0.0,0.0,0.0,0.0,0.0,0.0,0.0,0.0,0.0,0.0,0.0,0.0,-3.1457,-3.1246,0.0,0.0,0.0,-3.1359,-3.1007,0.0,0.0,0.0,0.0,0.0,0.0,0.0,0.0,0.0,0.0,0.0,0.0,0.0,0.0,0.0,0.0,0.0,0.0,0.0,0.0,0.0,0.0,0.0,0.0,0.0,0.0,0.0,0.0,0.0,0.0,0.0,0.0,0.0,0.0,0.0,0.0,0.0,0.0,0.0,0.0,0.0,0.0,0.0,0.0,0.0,0.0,0.0,0.0,0.0,0.0,0.0,0.0,0.0,0.0,0.0,0.0,0.0,-2.8371,-2.9804,-3.0692,-3.0922,-3.1276,-3.1869,-3.2577,-3.1144,0.0,0.0,0.0,0.0,0.0,0.0,0.0,0.0,0.0,0.0,0.0,0.0,0.0,0.0,0.0,0.0,0.0,0.0,0.0,0.0,0.0,0.0,0.0,0.0,0.0,0.0,0.0,-3.4327,0.0,0.0,0.0,0.0,0.0,0.0,0.0,0.0,0.0,0.0,0.0,0.0,0.0,0.0,-3.1485,-3.1485,-3.1485,-3.1541,0.0,0.0,-3.1373,-3.105,-3.1921,-3.2202,0.0,0.0,0.0,0.0,0.0,0.0,0.0,0.0,0.0,0.0,0.0,0.0,0.0,0.0,0.0,0.0,0.0,0.0,0.0,0.0,0.0,0.0,0.0,0.0,0.0,0.0,0.0,0.0,0.0,0.0,0.0,0.0,0.0,0.0,0.0,0.0,0.0,0.0,0.0,0.0,0.0,0.0,0.0,0.0,0.0,0.0,0.0,0.0,0.0,0.0,0.0,0.0,0.0,0.0,-2.9545,-3.0308,-3.1404,-3.2321,-3.3044,-3.3143,-3.3171,-3.3241,-3.2774,-3.2192,0.0,0.0,0.0,0.0,0.0,0.0,0.0,0.0,0.0,0.0,0.0,0.0,0.0,0.0,0.0,0.0,0.0,0.0,0.0,0.0,0.0,0.0,0.0,0.0,0.0,0.0,0.0,0.0,0.0,0.0,0.0,0.0,0.0,0.0,0.0,0.0,0.0,0.0,0.0,0.0,0.0,-3.1485,-3.1485,-3.1485,-3.1696,0.0,-3.185,-3.1668,-3.2202,-3.282,-3.2848,-3.1626,0.0,0.0,0.0,0.0,0.0,0.0,0.0,0.0,0.0,0.0,0.0,0.0,0.0,0.0,0.0,0.0,0.0,0.0,0.0,0.0,0.0,0.0,0.0,0.0,0.0,0.0,0.0,0.0,0.0,0.0,0.0,0.0,0.0,0.0,0.0,0.0,0.0,0.0,0.0,0.0,0.0,0.0,0.0,0.0,0.0,0.0,0.0,0.0,0.0,0.0,0.0,0.0,0.0,-3.0373,-3.1134,-3.2263,-3.3016,-3.3312,-3.3312,-3.3396,-3.3675,-3.3132,-3.2388,0.0,0.0,0.0,0.0,0.0,0.0,0.0,0.0,0.0,0.0,0.0,0.0,0.0,0.0,0.0,0.0,0.0,0.0,0.0,0.0,0.0,0.0,0.0,0.0,0.0,0.0,0.0,0.0,-3.5704,-3.5687,-3.5234,0.0,0.0,0.0,0.0,0.0,0.0,0.0,0.0,0.0,0.0,-3.1943,-3.2072,-3.2061,0.0,0.0,-3.2764,-3.2707,-3.2932,-3.348,-3.348,-3.2258,-3.2047,0.0,0.0,0.0,0.0,0.0,0.0,0.0,0.0,0.0,0.0,0.0,0.0,0.0,0.0,0.0,0.0,0.0,0.0,0.0,0.0,0.0,0.0,0.0,0.0,0.0,0.0,0.0,0.0,0.0,0.0,0.0,0.0,0.0,0.0,0.0,0.0,0.0,0.0,0.0,0.0,0.0,0.0,0.0,0.0,0.0,0.0,0.0,0.0,0.0,0.0,0.0,0.0,-3.1101,-3.1537,-3.2831,-3.348,-3.3466,-3.3466,-3.3605,-3.3882,-3.3681,-3.3129,0.0,0.0,0.0,0.0,0.0,0.0,0.0,0.0,0.0,0.0,0.0,0.0,0.0,0.0,0.0,0.0,0.0,0.0,0.0,0.0,0.0,0.0,0.0,0.0,0.0,0.0,0.0,0.0,-3.5833,-3.5768,-3.5234,0.0,0.0,0.0,0.0,0.0,0.0,0.0,0.0,0.0,0.0,-3.2955,-3.2695,-3.2812,-3.3027,-3.3255,-3.3157,-3.3129,-3.3283,-3.3691,-3.3677,-3.282,0.0,0.0,0.0,0.0,0.0,0.0,0.0,0.0,0.0,0.0,0.0,0.0,0.0,0.0,0.0,0.0,0.0,0.0,0.0,0.0,0.0,0.0,0.0,0.0,0.0,0.0,0.0,-3.0582,0.0,0.0,-3.0597,0.0,0.0,0.0,0.0,0.0,0.0,0.0,0.0,0.0,0.0,0.0,0.0,0.0,0.0,0.0,0.0,0.0,0.0,0.0,0.0,0.0,0.0,-3.1693,-3.1721,-3.3104,-3.3882,-3.3896,-3.3896,-3.3882,-3.3965,-3.4677,-3.4783,-3.4148,0.0,0.0,0.0,0.0,0.0,0.0,0.0,0.0,0.0,0.0,0.0,0.0,0.0,0.0,0.0,0.0,0.0,0.0,0.0,0.0,0.0,0.0,0.0,0.0,0.0,0.0,-3.4295,-3.4781,-3.5202,0.0,0.0,0.0,0.0,0.0,0.0,0.0,0.0,0.0,-3.3172,-3.422,-3.4494,-3.3345,-3.3763,-3.3934,-3.341,-3.2848,-3.2665,-3.3283,-3.3368,-3.3326,0.0,0.0,0.0,0.0,0.0,0.0,0.0,0.0,0.0,0.0,0.0,0.0,0.0,0.0,0.0,0.0,0.0,0.0,0.0,0.0,0.0,0.0,0.0,0.0,0.0,0.0,0.0,-3.1874,-3.1816,0.0,0.0,0.0,0.0,0.0,0.0,0.0,0.0,0.0,0.0,0.0,-3.2498,-3.2295,0.0,0.0,0.0,0.0,0.0,0.0,0.0,0.0,0.0,0.0,0.0,0.0,-3.1838,-3.1778,-3.3172,-3.3896,-3.3896,-3.3896,-3.4128,-3.4691,-3.4927,-3.5247,-3.5548,0.0,0.0,0.0,0.0,0.0,0.0,0.0,0.0,0.0,0.0,0.0,0.0,0.0,0.0,0.0,0.0,0.0,0.0,0.0,0.0,0.0,0.0,0.0,0.0,0.0,-3.5088,0.0,0.0,0.0,0.0,0.0,0.0,0.0,0.0,0.0,0.0,-3.4619,-3.4732,-3.5455,-3.5293,-3.5037,-3.4718,-3.4677,-3.4917,0.0,0.0,0.0,0.0,0.0,0.0,0.0,0.0,0.0,0.0,0.0,0.0,0.0,-3.8766,-3.8513,-3.6683,-3.7083,-3.7549,-3.7064,0.0,0.0,0.0,0.0,0.0,0.0,0.0,0.0,0.0,0.0,0.0,0.0,0.0,0.0,-3.2382,-3.215,-3.1946,0.0,0.0,0.0,0.0,0.0,0.0,0.0,0.0,-3.3108,-3.3514,-3.3514,-3.3499,-3.3499,-3.3529,-3.3717,-3.3071,0.0,0.0,0.0,0.0,0.0,0.0,0.0,0.0,-3.2706,-3.2616,-3.4278,-3.5121,-3.5121,-3.538,-3.5755,-3.624,-3.6288,-3.6538,-3.7026,-3.6007,-3.5578,0.0,0.0,0.0,0.0,0.0,0.0,0.0,0.0,0.0,0.0,0.0,0.0,0.0,0.0,0.0,0.0,0.0,0.0,0.0,0.0,0.0,0.0,0.0,-3.5671,0.0,0.0,0.0,0.0,0.0,0.0,0.0,0.0,0.0,-3.5744,-3.5814,-3.6216,-3.6826,-3.6585,-3.6115,-3.5608,0.0,0.0,0.0,0.0,0.0,0.0,0.0,-3.5663,-3.6139,-3.6421,-3.6955,-3.8178,-3.9078,-3.9811,-4.0224,0.0,0.0,-3.8196,-3.8536,-3.8991,-3.8489,-3.8602,-3.8699,-3.8456,-3.8391,-3.8391,0.0,0.0,0.0,0.0,-3.1751,0.0,0.0,0.0,-3.2521,-3.2266,0.0,-3.2309,0.0,0.0,0.0,0.0,-3.1627,-3.2324,0.0,0.0,-3.486,-3.5441,-3.5441,-3.5481,-3.5511,-3.5412,-3.486,-3.4569,-3.4554,-3.4554,0.0,0.0,0.0,0.0,0.0,0.0,-3.421,-3.4307,-3.628,-3.7413,-3.7398,-3.8055,-3.8465,-3.85,-3.8498,-3.8492,-3.8416,-3.7776,-3.7371,-3.7339,-3.5364,0.0,0.0,0.0,0.0,0.0,0.0,0.0,0.0,0.0,0.0,0.0,0.0,0.0,0.0,0.0,0.0,0.0,0.0,0.0,0.0,-3.66,0.0,0.0,0.0,0.0,0.0,0.0,0.0,0.0,0.0,-3.6957,-3.5784,-3.642,-3.715,-3.7405,0.0,0.0,0.0,0.0,-3.7098,-3.537,-3.5082,-3.5243,-3.5614,-3.6129,-3.6782,-3.774,0.0,0.0,-4.0975,-4.0817,-4.0474,-4.0139,-4.0978,-4.1177,-3.9833,-4.0108,-4.0156,-3.8942,-3.9233,-3.9331,-3.8748,-3.8829,-3.8748,-3.2248,0.0,0.0,0.0,0.0,-3.2732,-3.3039,-3.3173,-3.3688,-3.3761,-3.3572,-3.3311,0.0,0.0,0.0,0.0,0.0,0.0,-3.4955,-3.5695,-3.6431,-3.6832,-3.6817,-3.7345,-3.7345,-3.6832,-3.7617,-3.8022,-3.8053,-3.844,-3.6926,-3.3485,0.0,0.0,0.0,0.0,-3.4738,-3.5651,-3.679,-3.7684,-3.8152,-3.8415,-3.8741,-3.9204,-3.9668,-3.9914,-3.9897,-3.9233,-3.8618,-3.81,-3.6999,0.0,0.0,0.0,0.0,0.0,0.0,0.0,0.0,0.0,0.0,0.0,0.0,0.0,0.0,0.0,0.0,0.0,0.0,0.0,-3.7215,-3.785,-3.7817,0.0,0.0,0.0,0.0,0.0,0.0,0.0,0.0,0.0,-3.8126,-3.7966,-3.811,0.0,0.0,-3.7799,-3.7029,-3.767,-3.8278,-3.8166,-3.8245,0.0,-3.9043,-3.8534,-3.8379,-3.922,-4.0417,-4.1303,-4.1426,-4.1746,-4.1957,-4.1894,-4.2134,-4.218,-4.1857,-4.1873,-4.1857,-4.1517,-4.1598,-4.1678,-4.1468,-4.1419,-4.1403,-3.4191,-3.3715,-3.3118,-3.331,-3.3858,-3.4055,-3.4264,-3.4617,-3.4994,-3.5024,-3.4777,-3.4661,-3.4312,-3.3819,-3.3441,0.0,0.0,0.0,-3.5957,-3.6858,-3.7518,-3.794,-3.8228,-3.8959,-3.8999,-3.8622,-3.9412,-3.9884,-3.9884,-3.9955,-3.8681,-3.5962,0.0,-3.4862,-3.5332,-3.6053,-3.6746,-3.754,-3.8513,-3.9216,-3.9679,-3.994,-4.0214,-4.0336,-4.072,-4.0788,-4.0496,-4.0092,-3.9687,-3.9233,-3.8278,-3.7485,0.0,0.0,0.0,0.0,0.0,0.0,0.0,0.0,0.0,0.0,0.0,-3.804,-3.7853,0.0,0.0,0.0,-3.9598,-3.8911,-3.8074,-3.8635,0.0,0.0,0.0,0.0,0.0,0.0,0.0,-3.8164,-3.979,-4.0809,-4.045,-4.0215,-4.0119,-4.0235,-3.9761,-3.9306,-3.9138,0.0,-4.0246,-4.0372,-4.0404,-4.0626,-4.1151,-4.083,-4.0879,-4.1756,-4.2427,-4.2828,-4.286,-4.3217,-4.3476,-4.3476,-4.3492,-4.3492,-4.3492,-4.3476,-4.3249,-4.2763,-4.2571,-4.2571,-4.2571,-4.2571,-4.2571,-3.5853,-3.6331,-3.5081,-3.5196,-3.6257,-3.5677,-3.5764,-3.6286,-3.6286,-3.5981,-3.5488,-3.604,-3.5662,-3.4627,-3.467,0.0,-3.5711,-3.5769,-3.6507,-3.7729,-3.8331,-3.9032,-3.9658,-4.026,-4.0569,-4.047,-4.0554,-4.0554,-4.0591,-4.0003,-3.9745,-3.9699,-3.9683,-3.9292,-3.8542,-3.9082,-3.9437,-3.955,-4.077,-4.1462,-4.1591,-4.2222,-4.231,-4.1678,-4.1662,-4.1338,-4.0691,-4.061,-4.0577,-4.0545,-3.9298,-3.8845,-3.9421,0.0,0.0,0.0,0.0,0.0,0.0,0.0,0.0,0.0,0.0,0.0,0.0,0.0,0.0,-4.1478,-4.1597,0.0,-3.9445,-3.9341,0.0,0.0,0.0,-4.0031,-4.0696,-4.0767,-4.0982,-4.1642,0.0,0.0,-4.2634,-4.2715,-4.2637,-4.2494,-4.1995,-4.1688,-4.1736,-4.2227,-4.2528,-4.1928,-4.1928,-4.2041,-4.243,-4.2847,-4.3409,-4.4333,-4.4804,-4.4658,-4.4658,-4.469,-4.4771,-4.4706,-4.4787,-4.4755,-4.4787,-4.474,-4.4448,-4.3134,-4.286,-4.286,-4.2909,-4.2925,-4.2941,-3.7589,-3.7738,-3.7356,-3.691,-3.6301,-3.6141,-3.617,-3.6286,-3.6286,-3.6228,-3.6098,-3.6257,-3.6465,-3.6737,-3.7213,-3.7856,-3.8568,-3.9002,-3.9649,-4.0493,-4.0665,-4.0876,-4.1091,-4.1723,-4.1787,-4.1327,-4.1803,-4.2077,-4.2077,-4.1917,-4.1613,-4.1132,-4.11,-4.0214,-3.8512,-3.8569,-3.9172,-4.0256,-4.0543,-4.123,-4.2269,-4.2492,-4.249,-4.2375,-4.2375,-4.231,-4.2116,-4.1598,-4.1322,-4.129,-4.0464,-3.9991,-3.9926,-3.9051,0.0,0.0,0.0,0.0,0.0,0.0,0.0,0.0,0.0,-4.007,-3.9576,0.0,-4.1705,0.0,-4.2943,-4.3166,-4.2189,-4.2391,0.0,0.0,-4.1931,-4.2113,-4.3198,-4.308,-4.2967,-4.2944,-4.3095,-4.3265,-4.3443,-4.346,-4.3784,-4.472,-4.3444,-4.2285,-4.2141,-4.2848,-4.3379,-4.3299,-4.3669,-4.4073,-4.4155,-4.4268,-4.4543,-4.4755,-4.482,-4.4804,-4.4804,-4.4804,-4.4804,-4.4804,-4.4804,-4.4804,-4.4902,-4.5065,-4.5208,-4.4863,-4.456,-4.4285,-4.4285,-4.4253,-4.4253,-3.8202,-3.8202,-3.8202,-3.7781,-3.7157,-3.7143,-3.7157,-3.7157,-3.7143,-3.7157,-3.7157,-3.7157,-3.7563,-3.8242,-3.8601,-3.9188,-3.9893,-4.0247,-4.0774,-4.1459,-4.1525,-4.1672,-4.2013,-4.2429,-4.2365,-4.1997,-4.2429,-4.2571,-4.2571,-4.2571,-4.2423,-4.2051,-4.2035,-4.1275,-3.9866,-3.9456,-3.9723,-4.0511,-4.0831,-4.1516,-4.2539,-4.2571,-4.2472,-4.218,-4.2148,-4.2019,-4.1695,-4.1471,-4.132,-4.114,-4.1122,-4.0943,-4.0572,-4.0192,-3.9778,0.0,0.0,0.0,0.0,0.0,0.0,0.0,0.0,0.0,0.0,0.0,-4.246,-4.2226,-4.3786,-4.4386,-4.3365,-4.3871,-4.4194,-4.4277,-4.3839,-4.3964,-4.501,-4.4981,-4.495,-4.5175,-4.526,-4.545,-4.5746,-4.5795,-4.5962,-4.6584,-4.5604,-4.4724,-4.4429,-4.4818,-4.5127,-4.5144,-4.5451,-4.5726,-4.571,-4.5726,-4.5726,-4.5726,-4.5927,-4.606,-4.6126,-4.6307,-4.6404,-4.6404,-4.6404,-4.6404,-4.6388,-4.6564,-4.6802,-4.6756,-4.6581,-4.6174,-4.5598,-4.545,-4.5466,-3.8202,-3.8202,-3.8202,-3.8202,-3.8202,-3.8202,-3.8202,-3.8202,-3.8202,-3.8277,-3.8337,-3.8412,-3.8899,-3.9591,-3.9591,-3.9999,-4.0706,-4.069,-4.1044,-4.1591,-4.1672,-4.2013,-4.2571,-4.2571,-4.2571,-4.2571,-4.2571,-4.2571,-4.2571,-4.2571,-4.2585,-4.2488,-4.2504,-4.2148,-4.1436,-4.0804,-4.0496,-4.0496,-4.129,-4.2002,-4.2618,-4.2571,-4.2342,-4.1743,-4.1675,-4.1395,-4.0778,-4.1058,-4.105,-4.0717,-4.1425,-4.1699,-4.1435,-4.1429,-4.1257,0.0,-4.0371,0.0,0.0,0.0,0.0,0.0,0.0,0.0,0.0,-4.3301,-4.327,-4.3011,-4.4559,-4.5178,-4.4292,-4.4804,-4.5448,-4.6164,-4.5872,-4.5849,-4.6666,-4.6646,-4.6837,-4.7553,-4.7558,-4.773,-4.8169,-4.8416,-4.8208,-4.7836,-4.7605,-4.7325,-4.712,-4.6936,-4.6851,-4.7014,-4.6961,-4.6714,-4.6747,-4.688,-4.6949,-4.705,-4.7306,-4.777,-4.7688,-4.8046,-4.8319,-4.8303,-4.8236,-4.8286,-4.8416,-4.8366,-4.843,-4.8442,-4.8425,-4.8073,-4.696,-4.6597,-4.6569,-3.8202,-3.8202,-3.8202,-3.8202,-3.8202,-3.8202,-3.8202,-3.8202,-3.8202,-3.8546,-3.9103,-3.9733,-4.0416,-4.1044,-4.1111,-4.1459,-4.2142,-4.2142,-4.2285,-4.2429,-4.2429,-4.2492,-4.2571,-4.2571,-4.2571,-4.2571,-4.2571,-4.2571,-4.2571,-4.2571,-4.2342,-4.1776,-4.1776,-4.1419,-4.0739,0.0,0.0,0.0,-4.1759,-4.2488,-4.2634,-4.2571,-4.2569,-4.2423,-4.2206,0.0,-4.1862,-4.1723,-4.1649,-4.1594,-4.1722,0.0,0.0,0.0,0.0,0.0,0.0,0.0,0.0,0.0,0.0,0.0,-4.3371,-4.3509,-4.3266,-4.3784,-4.4596,-4.5713,-4.6163,-4.6525,-4.6918,-4.709,-4.7451,-4.8117,-4.7841,-4.8031,-4.9093,-4.8511,-4.827,-4.8758,-4.8467,-4.8249,-4.8446,-4.8416,-4.8416,-4.8289,-4.8289,-4.8225,-4.8161,-4.7787,-4.7571,-4.7488,-4.7218,-4.6945,-4.6876,-4.7286,-4.7555,-4.7621,-4.7918,-4.8242,-4.8289,-4.8353,-4.84,-4.8416,-4.8416,-4.8416,-4.8416,-4.8731,-4.9057,-4.9057,-4.9394,-4.9325,-4.8253,-4.7981,-4.7998,-3.8202,-3.8202,-3.8202,-3.8202,0.0,-3.862,-3.8752,-3.8694,-3.8337,-3.862,-3.9305,-4.0069,-4.0826,-4.1525,-4.1525,-4.1868,-4.2571,-4.2571,-4.2571,-4.2571,-4.2571,-4.2571,-4.2571,-4.2571,-4.2571,-4.2571,-4.2571,-4.2571,-4.2571,-4.2571,-4.2439,-4.2083,-4.2099,-4.1905,-4.1565,-4.1549,-4.1371,-4.1031,-4.1743,-4.2294,-4.2601,-4.2867,-4.2811,-4.2484,-4.2567,0.0,0.0,0.0,0.0,0.0,0.0,0.0,0.0,-4.2928,0.0,-4.3682,-4.3439,-4.3387,-4.3682,-4.3716,-4.3871,-4.4268,-4.4992,-4.5268,-4.4889,-4.5544,-4.6303,-4.7062,-4.7476,-4.7855,-4.8217,-4.8596,-4.8993,-4.9355,-4.9159,-4.933,-4.9808,-4.953,-4.9273,-4.953,-4.935,-4.9195,-4.9212,-4.9195,-4.9073,-4.8872,-4.8793,-4.8793,-4.8731,-4.8353,-4.8048,-4.8065,-4.7852,-4.7655,-4.7655,-4.7852,-4.8048,-4.8129,-4.8497,-4.8731,-4.8793,-4.9012,-4.9212,-4.9195,-4.9212,-4.9212,-4.9212,-4.9411,-4.9607,-4.9607,-4.9801,-4.986,-4.9273,-4.9212,-4.9076,-3.8202,-3.8202,-3.8202,-3.8202,-3.8277,-3.8972,-3.9391,-3.9448,-3.8957,0.0,0.0,-4.047,-4.1111,-4.1672,-4.1672,-4.2013,-4.2571,-4.2571,-4.2571,-4.2571,-4.2571,-4.2571,-4.2571,-4.2571,-4.2571,-4.2571,-4.2571,-4.2571,-4.2571,-4.2571,-4.2571,-4.2571,-4.2571,-4.2571,-4.2571,-4.2571,-4.2405,-4.1898,-4.1821,-4.2051,-4.2601,-4.308,-4.3043,-4.2466,-4.2896,-4.2824,-4.2219,-4.2496,-4.2481,-4.2146,-4.2843,-4.3115,-4.2825,-4.3185,-4.3473,-4.3561,-4.3561,-4.3854,-4.444,-4.4475,-4.4872,-4.5768,-4.6441,-4.6855,-4.6993,-4.7562,-4.7976,-4.8096,-4.8683,-4.9028,-4.9045,-4.9614,-5.0011,-5.0011,-5.0011,-4.9993,-5.0011,-5.0011,-4.9935,-5.0011,-4.9935,-4.9993,-4.9935,-4.9935,-4.986,-4.9453,-4.9333,-4.9333,-4.9256,-4.8872,-4.8543,-4.8543,-4.84,-4.8353,-4.8416,-4.848,-4.8543,-4.8543,-4.8995,-4.9316,-4.9394,-4.9725,-4.9935,-4.9877,-4.9993,-4.9935,-4.9935,-4.9935,-5.0011,-4.9993,-4.989,-4.9786,-4.9786,-4.9683,-4.9332,-3.8188,-3.8202,-3.8202,-3.8202,-3.8263,-3.8957,-3.9662,-4.0278,-4.0758,-4.1111,-4.1245,-4.1948,-4.2349,-4.2429,-4.2429,-4.2492,-4.2571,-4.2571,-4.2571,-4.2571,-4.2571,-4.2571,-4.2571,-4.2571,-4.2571,-4.2571,-4.2571,-4.2571,-4.2571,-4.2571,-4.2571,-4.2571,-4.2571,-4.2634,-4.2571,-4.2571,-4.274,-4.3054,-4.2658,-4.252,-4.2634,-4.308,-4.3257,-4.3201,-4.3373,-4.3461,-4.3342,-4.3203,-4.3047,-4.2996,-4.3131,-4.3457,-4.401,-4.4113,-4.4406,-4.5044,-4.5096,-4.5165,-4.5268,-4.5251,-4.5889,-4.7234,-4.7493,-4.7838,-4.8441,-4.8596,-4.8959,-4.9597,-4.9752,-4.9838,-4.9855,-4.9924,-5.0011,-5.0011,-5.0011,-5.0011,-5.0011,-5.0011,-5.0011,-5.0011,-5.0011,-5.0011,-5.0011,-5.0011,-4.9952,-4.9877,-4.9801,-4.986,-4.9742,-4.9453,-4.9118,-4.9057,-4.8668,-4.8416,-4.8543,-4.8793,-4.9057,-4.9135,-4.953,-4.9801,-4.9801,-4.9935,-5.0011,-5.0011,-5.0011,-5.0011,-5.0011,-5.0011,-4.9976,-4.9924,-4.9493,-4.9079,-4.901,-4.8545,-4.8234,-3.7186,-3.7245,-3.7577,-3.7984,-3.8396,-3.9847,-4.0909,-4.1607,-4.1948,-4.1884,-4.1607,-4.2285,-4.2571,-4.2571,-4.2571,-4.2571,-4.2571,-4.2571,-4.2571,-4.2571,-4.2571,-4.2571,-4.2571,-4.2571,-4.2571,-4.2571,-4.2571,-4.2571,-4.2571,-4.2571,-4.2571,-4.2634,-4.2851,-4.2958,-4.2974,-4.3202,-4.3426,-4.3663,-4.3202,-4.308,-4.3399,-4.3839,-4.4054,-4.4071,-4.4385,-4.4573,-4.4555,-4.4457,-4.4389,-4.4406,-4.4406,-4.4544,-4.4872,-4.4906,-4.5061,-4.5406,-4.5441,-4.5441,-4.5441,-4.5441,-4.6096,-4.7562,-4.7717,-4.8217,-4.9373,-4.9459,-4.9631,-4.9959,-5.0011,-5.0011,-5.0011,-5.0011,-5.0011,-5.0011,-5.0011,-5.0011,-5.0011,-5.0011,-5.0011,-5.0011,-5.0011,-5.0011,-5.0011,-5.0011,-5.0011,-5.0011,-5.0011,-5.0011,-5.0011,-4.9801,-4.9607,-4.9607,-4.9394,-4.9273,-4.9273,-4.9471,-4.959,-4.9649,-4.9801,-4.9993,-5.0011,-5.0011,-5.0011,-5.0011,-5.0011,-5.0011,-4.9993,-5.0011,-4.9838,-4.9373,-4.9131,-4.8734,-4.8303,-4.7631,-4.7303,-3.6286,-3.6372,-3.6821,-3.7575,-3.8568,-4.0275,-4.147,-4.2086,-4.2086,-4.1803,-4.1438,-4.2188,-4.2571,-4.2571,-4.2571,-4.2571,-4.2571,-4.2571,-4.2571,-4.2571,-4.2571,-4.2571,-4.2571,-4.2571,-4.2571,-4.2571,-4.2571,-4.2634,-4.2743,-4.2743,-4.2789,-4.2912,-4.3246,-4.3426,-4.3426,-4.3856,-4.403,-4.4128,-4.3781,-4.3739,-4.403,-4.4485,-4.4708,-4.4708,-4.5123,-4.5441,-4.5441,-4.5441,-4.5441,-4.5441,-4.5441,-4.5441,-4.5441,-4.5441,-4.5441,-4.5441,-4.5441,-4.5441,-4.5441,-4.5441,-4.6096,-4.7562,-4.7717,-4.8372,-4.9769,-5.0011,-5.0011,-5.0011,-5.0011,-5.0011,-5.0011,-5.0011,-5.0011,-5.0011,-5.0011,-5.0011,-5.0011,-5.0011,-5.0011,-5.0011,-5.0011,-5.0011,-5.0011,-5.0011,-5.0011,-5.0011,-5.0011,-5.0011,-5.0011,-5.0011,-5.0011,-5.0011,-5.0011,-4.9935,-5.0011,-4.9935,-4.9935,-5.0011,-4.9993,-5.0011,-5.0011,-5.0011,-5.0011,-5.0011,-5.0011,-4.989,-4.9804,-4.9717,-4.939,-4.8752,-4.8338,-4.801,-4.7251,-4.6734,-4.6372,-3.6272,-3.6286,-3.6385,-3.7183,-3.8492,-3.9313,-4.0082,-4.0679,-4.0707,-4.0675,-4.0748,-4.1989,-4.2601,-4.2571,-4.2555,-4.2539,-4.2634,-4.2571,-4.2571,-4.2571,-4.2571,-4.2571,-4.2571,-4.2571,-4.2571,-4.2634,-4.2634,-4.2805,-4.3202,-4.3246,-4.3426,-4.3856,-4.3898,-4.3898,-4.3972,-4.3972,-4.4202,-4.4652,-4.4597,-4.4356,-4.403,-4.4468,-4.4708,-4.4708,-4.5123,-4.5441,-4.5441,-4.5441,-4.5441,-4.5441,-4.5441,-4.5441,-4.5441,-4.5441,-4.5441,-4.5441,-4.5441,-4.5441,-4.5441,-4.5441,-4.6079,-4.751,-4.77,-4.8355,-4.9786,-4.9993,-4.9993,-4.9993,-4.9993,-5.0011,-5.0011,-5.0011,-5.0011,-5.0011,-5.0011,-5.0011,-5.0011,-5.0011,-5.0011,-5.0011,-5.0011,-5.0011,-5.0011,-5.0011,-5.0011,-5.0011,-5.0011,-5.0011,-5.0011,-5.0011,-5.0011,-5.0011,-5.0011,-5.0011,-5.0011,-5.0011,-5.0011,-5.0011,-5.0011,-5.0011,-5.0011,-4.9959,-4.9976,-4.9769,-4.9821,-4.9562,-4.9148,-4.8907,-4.8683,-4.7958,-4.7338,-4.6631,-4.5906,-4.5682,-4.5648,-3.5183,-3.5252,-3.6008,-3.7382,-3.8994,-3.979,-4.0224,-4.0496,-4.0496,-4.0496,-4.0545,-4.1112,-4.1598,-4.2002,-4.2002,-4.2213,-4.2618,-4.2571,-4.2571,-4.2571,-4.2571,-4.2571,-4.2571,-4.2571,-4.2743,-4.2974,-4.2743,-4.2974,-4.3621,-4.3739,-4.3781,-4.403,-4.4243,-4.4429,-4.4412,-4.4669,-4.4906,-4.5123,-4.5123,-4.5015,-4.4835,-4.5015,-4.514,-4.5123,-4.53,-4.5441,-4.5441,-4.5441,-4.5441,-4.5441,-4.5441,-4.5441,-4.5441,-4.5441,-4.5441,-4.5441,-4.5441,-4.5441,-4.5441,-4.5441,-4.5906,-4.701,-4.7476,-4.8183,-4.92,-4.9735,-5.0109,-5.0415,-5.0206,-5.0011,-4.9993,-5.0011,-5.0011,-5.0011,-5.0011,-5.0011,-5.0011,-5.0011,-5.0011,-5.0011,-5.0011,-4.9993,-5.0011,-5.0011,-5.0011,-5.0011,-4.9993,-5.0051,-4.9993,-5.0011,-5.0011,-5.0011,-5.0011,-5.0011,-5.0011,-5.0011,-4.9993,-4.9993,-5.0011,-5.0011,-4.9907,-4.9528,-4.9304,-4.9304,-4.901,-4.87,-4.8252,-4.8131,-4.7941,-4.7254,-4.6475,-4.5786,-4.5475,-4.5441,-4.5441,-3.4534,-3.4839,-3.6087,-3.7566,-3.8969,-3.9628,-3.9914,-3.9914,-3.9914,-3.9914,-3.9914,-3.9914,-4.0335,-4.095,-4.1193,-4.1565,-4.2002,-4.2035,-4.2164,-4.2326,-4.2342,-4.2456,-4.2601,-4.2743,-4.2958,-4.3202,-4.3096,-4.3383,-4.4145,-4.4316,-4.4373,-4.4429,-4.4725,-4.4889,-4.4944,-4.5247,-4.5441,-4.5371,-4.5441,-4.5441,-4.5371,-4.5441,-4.5441,-4.5441,-4.5441,-4.5441,-4.5441,-4.5441,-4.5441,-4.5441,-4.5441,-4.5441,-4.5441,-4.5441,-4.5441,-4.5441,-4.5441,-4.5476,-4.5615,-4.5615,-4.5996,-4.6882,-4.7491,-4.8187,-4.9075,-4.9754,-5.0375,-5.0893,-5.0657,-5.0471,-5.0189,-5.0109,-5.0011,-5.0011,-5.0011,-5.0068,-5.0206,-5.0206,-5.0302,-5.0415,-5.0564,-5.0453,-5.0453,-5.0453,-5.0509,-5.0509,-5.0509,-5.0471,-5.0397,-5.0359,-5.0263,-5.0223,-5.0092,-5.0011,-5.0011,-5.0011,-4.9959,-4.9683,-4.9614,-4.9528,-4.9476,-4.8821,-4.8528,-4.8476,-4.7958,-4.7614,-4.7513,-4.741,-4.7472,-4.683,-4.6221,-4.5838,-4.5938,-4.5837,-4.5837,-3.4773,-3.5514,-3.6799,-3.7449,-3.7599,-3.8293,-3.8537,-3.8634,-3.857,-3.8537,-3.8602,-3.857,-3.891,-3.9638,-4.0221,-4.0561,-4.0626,-4.0707,-4.1031,-4.1642,-4.1675,-4.1986,-4.2601,-4.3019,-4.329,-4.3343,-4.3647,-4.4071,-4.4652,-4.5069,-4.5318,-4.5318,-4.5318,-4.5371,-4.5371,-4.5371,-4.5441,-4.5441,-4.5441,-4.5441,-4.5441,-4.5441,-4.5441,-4.5441,-4.5441,-4.5441,-4.5441,-4.5441,-4.5441,-4.5441,-4.5441,-4.5441,-4.5441,-4.5441,-4.5441,-4.5441,-4.5441,-4.5615,-4.6038,-4.6087,-4.6614,-4.7654,-4.7867,-4.8603,-4.9817,-5.0154,-5.0613,-5.1444,-5.1393,-5.1173,-5.091,-5.0453,-5.0149,-5.0109,-5.0051,-5.032,-5.0712,-5.0766,-5.1017,-5.1314,-5.1365,-5.1365,-5.1467,-5.1518,-5.1416,-5.1416,-5.1467,-5.1398,-5.1296,-5.0999,-5.0715,-5.0552,-5.0293,-4.9976,-4.9959,-4.9919,-4.9642,-4.9284,-4.9011,-4.8812,-4.8183,-4.7786,-4.7824,-4.7755,-4.7659,-4.7401,-4.6948,-4.6882,-4.7061,-4.6901,-4.6832,-4.6631,-4.6442,-4.6724,-4.6678,-3.5721,-3.6707,-3.7222,-3.7653,-3.8033,-3.8335,-3.8391,-3.8391,-3.8391,-3.8391,-3.8391,-3.8391,-3.8537,-3.8796,-3.9039,-3.9654,-4.0448,-4.0496,-4.0804,-4.1269,-4.1269,-4.1592,-4.2105,-4.275,-4.323,-4.3491,-4.3853,-4.4259,-4.4708,-4.5177,-4.5441,-4.5441,-4.5441,-4.5441,-4.5441,-4.5441,-4.5441,-4.5441,-4.5441,-4.5441,-4.5441,-4.5441,-4.5441,-4.5441,-4.5441,-4.5441,-4.5441,-4.5441,-4.5441,-4.5441,-4.5441,-4.5441,-4.5441,-4.5441,-4.5441,-4.5441,-4.5441,-4.5598,-4.6087,-4.6186,-4.653,-4.7275,-4.7875,-4.8368,-4.8987,-4.9489,-5.0257,-5.1174,-5.1185,-5.1221,-5.1802,-5.1432,-5.0999,-5.1017,-5.1017,-5.1052,-5.1262,-5.1314,-5.1398,-5.1569,-5.1619,-5.1619,-5.1669,-5.1619,-5.1619,-5.1619,-5.1619,-5.1633,-5.1512,-5.1007,-5.0551,-5.0429,-4.9957,-4.9485,-4.9485,-4.9642,-4.9515,-4.9012,-4.8732,-4.8905,-4.8622,-4.7957,-4.7867,-4.7711,-4.7571,-4.7272,-4.6882,-4.6976,-4.7084,-4.7122,-4.7044,-4.7133,-4.6908,-4.7089,-4.7044,-3.6212,-3.7087,-3.7535,-3.796,-3.8391,-3.8391,-3.8391,-3.8391,-3.8391,-3.8391,-3.8391,-3.8391,-3.8391,-3.8391,-3.8391,-3.8877,-3.9752,-3.9816,-4.0147,-4.0762,-4.0762,-4.112,-4.181,-4.2445,-4.3074,-4.3634,-4.4202,-4.4614,-4.4944,-4.5247,-4.5371,-4.5441,-4.5441,-4.5441,-4.5441,-4.5441,-4.5441,-4.5441,-4.5441,-4.5441,-4.5441,-4.5441,-4.5441,-4.5441,-4.5441,-4.5441,-4.5441,-4.5441,-4.5441,-4.5441,-4.5441,-4.5476,-4.5615,-4.5649,-4.5701,-4.5837,-4.5887,-4.6119,-4.6584,-4.6678,-4.689,-4.7428,-4.7976,-4.8417,-4.8738,-4.9245,-5.0107,-5.0952,-5.1103,-5.1297,-5.1882,-5.1946,-5.1802,-5.1741,-5.1714,-5.1764,-5.1928,-5.1928,-5.1994,-5.2155,-5.2232,-5.2185,-5.2108,-5.2137,-5.2185,-5.2108,-5.1928,-5.173,-5.1622,-5.0922,-5.0289,-5.0205,-4.9692,-4.9137,-4.8959,-4.9025,-4.9021,-4.8625,-4.8448,-4.8722,-4.865,-4.8097,-4.7811,-4.7604,-4.7436,-4.716,-4.7044,-4.7133,-4.7204,-4.7248,-4.7464,-4.765,-4.7524,-4.7439,-4.7439,-3.6446,-3.6768,-3.7828,-3.8335,-3.8391,-3.8391,-3.8391,-3.8391,-3.8391,-3.8391,-3.8391,-3.8391,-3.8391,-3.8391,-3.8391,-3.8456,-3.8626,-3.8675,-3.925,-4.0061,-4.0166,-4.0718,-4.1707,-4.2219,-4.2957,-4.3673,-4.4799,-4.5336,-4.5371,-4.5371,-4.5441,-4.5441,-4.5441,-4.5441,-4.5441,-4.5441,-4.5441,-4.5441,-4.5441,-4.5441,-4.5441,-4.5441,-4.5441,-4.5441,-4.5441,-4.5441,-4.5441,-4.5441,-4.5441,-4.5423,-4.5423,-4.5667,-4.6137,-4.6186,-4.6363,-4.6724,-4.6817,-4.7071,-4.7464,-4.7506,-4.7692,-4.8229,-4.8456,-4.8787,-4.934,-4.9619,-5.0062,-5.08,-5.0984,-5.1097,-5.13,-5.1777,-5.2095,-5.1961,-5.1975,-5.2253,-5.2544,-5.2589,-5.267,-5.3023,-5.3109,-5.3217,-5.3193,-5.2962,-5.2828,-5.2602,-5.2236,-5.1791,-5.1639,-5.0762,-5.0108,-4.9928,-4.9424,-4.8838,-4.8569,-4.8353,-4.8281,-4.8153,-4.8153,-4.8209,-4.8039,-4.7633,-4.7669,-4.7579,-4.7623,-4.7396,-4.7567,-4.7609,-4.7733,-4.7856,-4.8035,-4.8093,-4.7955,-4.7915,-4.8014,-3.7342,-3.777,-3.8205,-3.8391,-3.8391,-3.8391,-3.8391,-3.8391,-3.8391,-3.8391,-3.8391,-3.8391,-3.8391,-3.8391,-3.8391,-3.8544,-3.8821,-3.8821,-3.9139,-3.9734,-4.0081,-4.0578,-4.1204,-4.1866,-4.2825,-4.3958,-4.444,-4.4923,-4.5337,-4.5423,-4.5441,-4.5441,-4.5441,-4.5441,-4.5441,-4.5441,-4.5441,-4.5441,-4.5441,-4.5441,-4.5441,-4.5441,-4.5441,-4.5441,-4.5441,-4.5441,-4.5441,-4.5441,-4.5441,-4.5441,-4.5752,-4.6168,-4.6584,-4.6678,-4.6724,-4.6863,-4.6908,-4.7133,-4.7506,-4.7632,-4.7856,-4.8363,-4.855,-4.8716,-4.9066,-4.9176,-4.9564,-5.0268,-5.0398,-5.0602,-5.1195,-5.1528,-5.1763,-5.2137,-5.2663,-5.2901,-5.2991,-5.3106,-5.324,-5.3378,-5.3418,-5.3197,-5.2755,-5.2589,-5.2404,-5.1922,-5.1553,-5.133,-5.1103,-5.0376,-4.9819,-4.9702,-4.9076,-4.8617,-4.846,-4.8333,-4.8291,-4.8224,-4.8146,-4.8103,-4.7808,-4.765,-4.7692,-4.7692,-4.7733,-4.7775,-4.7955,-4.8075,-4.8132,-4.819,-4.819,-4.8229,-4.8267,-4.8324,-4.8324,-3.7653,-3.8033,-3.8278,-3.8391,-3.8391,-3.8391,-3.8391,-3.8391,-3.8391,-3.8391,-3.8391,-3.8391,-3.8391,-3.8391,-3.8391,-3.856,-3.8821,-3.9061,-3.9365,-3.9662,-4.007,-4.0551,-4.0927,-4.163,-4.2406,-4.3371,-4.4009,-4.4527,-4.4992,-4.5285,-4.5441,-4.5441,-4.5441,-4.5441,-4.5441,-4.5441,-4.5441,-4.5441,-4.5441,-4.5441,-4.5441,-4.5441,-4.5441,-4.5441,-4.5441,-4.5441,-4.5441,-4.5441,-4.5441,-4.5476,-4.5887,-4.6507,-4.7089,-4.716,-4.7248,-4.7378,-4.7439,-4.7567,-4.7816,-4.7915,-4.8035,-4.8401,-4.855,-4.8642,-4.8787,-4.8839,-4.9187,-4.954,-4.9652,-4.9893,-5.0358,-5.0785,-5.1065,-5.1398,-5.2137,-5.2617,-5.2673,-5.2634,-5.2615,-5.252,-5.2578,-5.2375,-5.2003,-5.1858,-5.171,-5.1172,-5.0783,-5.056,-5.0317,-4.9726,-4.9393,-4.9116,-4.8742,-4.8425,-4.8339,-4.8323,-4.8323,-4.832,-4.8279,-4.8258,-4.813,-4.8093,-4.8093,-4.8053,-4.8093,-4.8053,-4.8172,-4.8229,-4.8267,-4.8324,-4.8324,-4.8324,-4.8324,-4.8324,-4.8324,-3.7476,-3.7551,-3.8148,-3.8391,-3.8391,-3.8391,-3.8391,-3.8391,-3.8391,-3.8391,-3.8391,-3.8391,-3.8448,-3.8448,-3.8504,-3.856,-3.8655,-3.9312,-3.9714,-3.9868,-4.0221,-4.06,-4.0974,-4.1509,-4.194,-4.2354,-4.3423,-4.4113,-4.444,-4.4958,-4.5406,-4.5371,-4.5441,-4.5441,-4.5441,-4.5441,-4.5441,-4.5441,-4.5441,-4.5441,-4.5441,-4.5476,-4.5476,-4.5528,-4.5563,-4.5615,-4.5667,-4.5667,-4.5563,-4.5581,-4.6137,-4.6799,-4.7464,-4.765,-4.7816,-4.8151,-4.8267,-4.8229,-4.8267,-4.8229,-4.8306,-4.8438,-4.855,-4.8642,-4.8751,-4.8839,-4.8927,-4.902,-4.902,-4.9002,-4.9206,-4.9615,-5.006,-5.0172,-5.1064,-5.151,-5.1287,-5.1361,-5.149,-5.1378,-5.1212,-5.1176,-5.1118,-5.1102,-5.1008,-5.0712,-5.0119,-4.9804,-4.9544,-4.9082,-4.8528,-4.8343,-4.8379,-4.8361,-4.8324,-4.8324,-4.8324,-4.8324,-4.8324,-4.8324,-4.8324,-4.8324,-4.8324,-4.8324,-4.8324,-4.8324,-4.8324,-4.8324,-4.8324,-4.8324,-4.8324,-4.8324,-4.8324,-4.8324,-4.8324,-3.8148,-3.8148,-3.8335,-3.8391,-3.8391,-3.8391,-3.8391,-3.8391,-3.8391,-3.8391,-3.8391,-3.8391,-3.856,-3.8821,-3.8876,-3.9185,-3.9661,-3.9969,-4.032,-4.0549,-4.068,-4.0776,-4.0888,-4.1078,-4.1474,-4.1974,-4.2492,-4.3164,-4.4216,-4.4458,-4.4872,-4.5423,-4.5372,-4.5406,-4.5441,-4.5441,-4.5441,-4.5441,-4.5441,-4.5441,-4.5476,-4.5803,-4.6005,-4.6038,-4.6315,-4.6442,-4.6489,-4.6489,-4.6489,-4.6537,-4.6981,-4.7464,-4.7995,-4.8093,-4.8132,-4.8267,-4.8324,-4.8324,-4.8324,-4.8324,-4.8324,-4.8363,-4.8495,-4.8623,-4.8642,-4.8785,-4.8855,-4.889,-4.889,-4.889,-4.8927,-4.9113,-4.9243,-4.9392,-5.0432,-5.1249,-5.1231,-5.1343,-5.1324,-5.1306,-5.125,-5.0935,-5.0527,-5.0341,-5.0193,-4.9639,-4.9325,-4.903,-4.8919,-4.8788,-4.8401,-4.8324,-4.8343,-4.8324,-4.8324,-4.8324,-4.8324,-4.8324,-4.8324,-4.8306,-4.8324,-4.8324,-4.8324,-4.8324,-4.8324,-4.8324,-4.8324,-4.8324,-4.8324,-4.8324,-4.8324,-4.8324,-4.8324,-4.8324,-4.8306,-3.7938,-3.7954,-3.7954,-3.8116,-3.8375,-3.8391,-3.8391,-3.8391,-3.8391,-3.8391,-3.8391,-3.8391,-3.8616,-3.8969,-3.9023,-3.9329,-3.9952,-4.0188,-4.0453,-4.0631,-4.0793,-4.0888,-4.0888,-4.0888,-4.1129,-4.1509,-4.1836,-4.2475,-4.3233,-4.363,-4.4234,-4.4785,-4.4941,-4.5096,-4.5441,-4.5441,-4.5441,-4.5441,-4.5441,-4.5441,-4.5423,-4.5955,-4.6137,-4.6284,-4.6649,-4.6908,-4.6908,-4.7089,-4.7204,-4.7248,-4.7464,-4.7816,-4.8229,-4.8324,-4.8324,-4.8324,-4.8324,-4.8324,-4.8324,-4.8324,-4.8324,-4.8344,-4.8476,-4.8569,-4.8605,-4.8732,-4.8839,-4.8839,-4.8839,-4.8874,-4.889,-4.889,-4.889,-4.9039,-4.9782,-5.0358,-5.0376,-5.0283,-5.0339,-5.0358,-5.0302,-5.0209,-4.9652,-4.9615,-4.9357,-4.9024,-4.8953,-4.877,-4.8624,-4.8532,-4.8457,-4.8363,-4.8324,-4.8324,-4.8324,-4.8324,-4.8363,-4.8363,-4.8363,-4.8363,-4.8344,-4.8344,-4.8324,-4.8324,-4.8324,-4.8324,-4.8324,-4.8324,-4.8324,-4.8324,-4.8324,-4.8324,-4.8324,-4.8344,-4.8344,-3.7209,-3.7226,-3.7226,-3.7582,-3.8084,-3.8165,-3.8035,-3.8149,-3.8181,-3.823,-3.8262,-3.8399,-3.8766,-3.9061,-3.9239,-3.9435,-3.98,-4.0271,-4.0387,-4.0534,-4.0728,-4.0871,-4.0871,-4.0871,-4.0922,-4.1078,-4.1595,-4.1923,-4.2319,-4.2819,-4.3423,-4.4044,-4.4251,-4.463,-4.5113,-4.5337,-4.5441,-4.5441,-4.5441,-4.5441,-4.5528,-4.5905,-4.6217,-4.6459,-4.6954,-4.716,-4.7248,-4.7464,-4.7674,-4.7674,-4.7674,-4.7915,-4.8267,-4.8324,-4.8324,-4.8324,-4.8324,-4.8324,-4.8324,-4.8324,-4.8324,-4.8344,-4.8476,-4.8569,-4.8569,-4.8679,-4.8787,-4.8787,-4.8768,-4.8804,-4.8874,-4.8874,-4.8909,-4.8927,-4.9002,-4.8927,-4.889,-4.889,-4.889,-4.889,-4.8946,-4.8909,-4.889,-4.889,-4.8909,-4.8932,-4.8787,-4.866,-4.8532,-4.8476,-4.8457,-4.8363,-4.8363,-4.8306,-4.8306,-4.8363,-4.8344,-4.8382,-4.8457,-4.8457,-4.842,-4.8382,-4.8344,-4.8306,-4.8324,-4.8324,-4.8344,-4.8363,-4.8363,-4.8382,-4.8402,-4.8382,-4.8344,-4.842,-4.8402,-3.6529,-3.6529,-3.6529,-3.661,-3.674,-3.6756,-3.6772,-3.6837,-3.7339,-3.7549,-3.7718,-3.8433,-3.9028,-3.942,-3.9782,-4.0221,-4.05,-4.068,-4.0793,-4.0776,-4.0823,-4.0871,-4.0871,-4.0871,-4.0871,-4.094,-4.1026,-4.1423,-4.1905,-4.2147,-4.2647,-4.3404,-4.3854,-4.4337,-4.4527,-4.5079,-4.5423,-4.5423,-4.5423,-4.5476,-4.5615,-4.6038,-4.6442,-4.6817,-4.7524,-4.7915,-4.8014,-4.8093,-4.8172,-4.8172,-4.8132,-4.8172,-4.8267,-4.8324,-4.8324,-4.8324,-4.8324,-4.8324,-4.8324,-4.8324,-4.8324,-4.8324,-4.8438,-4.855,-4.8494,-4.8587,-4.8642,-4.8642,-4.8642,-4.8732,-4.8822,-4.8822,-4.8857,-4.8874,-4.889,-4.889,-4.889,-4.889,-4.889,-4.8909,-4.889,-4.889,-4.889,-4.8909,-4.8874,-4.8804,-4.8732,-4.8605,-4.8532,-4.8476,-4.8438,-4.8438,-4.8382,-4.8382,-4.842,-4.842,-4.8458,-4.8458,-4.8532,-4.8532,-4.8495,-4.8495,-4.8458,-4.8401,-4.8324,-4.8363,-4.842,-4.8438,-4.8438,-4.8495,-4.8514,-4.8476,-4.8458,-4.8476,-4.8514,-3.5785,-3.5785,-3.5785,-3.5979,-3.6287,-3.6303,-3.6303,-3.6367,-3.6675,-3.6837,-3.7091,-3.804,-3.8692,-3.9226,-3.9952,-4.0485,-4.0823,-4.0871,-4.0888,-4.0871,-4.0871,-4.0871,-4.0871,-4.0871,-4.0871,-4.0871,-4.0888,-4.1147,-4.1388,-4.1543,-4.1854,-4.2561,-4.3061,-4.3371,-4.387,-4.4509,-4.4958,-4.5283,-4.5596,-4.5837,-4.6119,-4.6613,-4.7071,-4.7464,-4.8053,-4.8324,-4.8286,-4.8286,-4.8324,-4.8324,-4.8324,-4.8324,-4.8324,-4.8324,-4.8324,-4.8324,-4.8324,-4.8324,-4.8324,-4.8324,-4.8324,-4.8324,-4.8419,-4.8419,-4.8457,-4.8513,-4.855,-4.8569,-4.8605,-4.8678,-4.8822,-4.8822,-4.8839,-4.8874,-4.889,-4.889,-4.889,-4.889,-4.8874,-4.8874,-4.8855,-4.882,-4.8839,-4.8839,-4.8839,-4.8804,-4.8822,-4.8697,-4.8697,-4.8642,-4.8587,-4.8532,-4.8495,-4.8495,-4.8532,-4.8532,-4.8532,-4.8587,-4.8642,-4.8624,-4.8569,-4.8569,-4.8587,-4.8513,-4.842,-4.8458,-4.8532,-4.855,-4.855,-4.8569,-4.855,-4.8569,-4.8569,-4.855,-4.8605,-3.5007,-3.5007,-3.5024,-3.538,-3.5898,-3.593,-3.5882,-3.593,-3.6108,-3.6125,-3.636,-3.7269,-3.8081,-3.874,-3.9647,-4.0363,-4.0806,-4.0871,-4.0871,-4.0871,-4.0871,-4.0871,-4.0871,-4.0871,-4.0871,-4.0871,-4.0871,-4.094,-4.094,-4.0922,-4.1302,-4.1785,-4.2009,-4.2457,-4.3061,-4.3749,-4.4331,-4.476,-4.5211,-4.5892,-4.6404,-4.6891,-4.7331,-4.7955,-4.8229,-4.8324,-4.8324,-4.8324,-4.8324,-4.8324,-4.8324,-4.8324,-4.8324,-4.8324,-4.8324,-4.8324,-4.8324,-4.8324,-4.8324,-4.8324,-4.8324,-4.8306,-4.8401,-4.8419,-4.8363,-4.8401,-4.8457,-4.8494,-4.855,-4.8642,-4.882,-4.8822,-4.8822,-4.8874,-4.889,-4.889,-4.889,-4.889,-4.8874,-4.8857,-4.8874,-4.8874,-4.8785,-4.8785,-4.8804,-4.8804,-4.8787,-4.8787,-4.8787,-4.8787,-4.8697,-4.8642,-4.8569,-4.8624,-4.8624,-4.8605,-4.8605,-4.8697,-4.8751,-4.8732,-4.8678,-4.8714,-4.8732,-4.8587,-4.855,-4.8605,-4.8624,-4.866,-4.866,-4.8642,-4.8678,-4.8678,-4.8678,-4.8642,-4.866,-3.4279,-3.4279,-3.4279,-3.436,-3.4473,-3.4489,-3.4554,-3.4586,-3.5153,-3.5364,-3.5565,-3.6547,-3.7651,-3.8489,-3.9071,-3.9918,-4.0599,-4.0819,-4.0871,-4.0871,-4.0871,-4.0871,-4.0871,-4.0871,-4.0871,-4.0871,-4.0871,-4.0871,-4.0871,-4.0905,-4.0991,-4.1198,-4.1647,-4.2078,-4.2337,-4.2973,-4.36,-4.4062,-4.4437,-4.5022,-4.5846,-4.6209,-4.6753,-4.762,-4.7986,-4.8212,-4.8306,-4.8324,-4.8324,-4.8324,-4.8324,-4.8324,-4.8324,-4.8324,-4.8324,-4.8324,-4.8324,-4.8324,-4.8324,-4.8324,-4.8324,-4.8306,-4.8344,-4.8344,-4.8306,-4.8306,-4.8401,-4.8401,-4.8494,-4.855,-4.8623,-4.8768,-4.8822,-4.8874,-4.889,-4.889,-4.889,-4.889,-4.8909,-4.8874,-4.8874,-4.8874,-4.8785,-4.8768,-4.8804,-4.8822,-4.8822,-4.8822,-4.8822,-4.8768,-4.8697,-4.8678,-4.8678,-4.8697,-4.8732,-4.8678,-4.866,-4.8768,-4.8822,-4.8804,-4.8785,-4.882,-4.882,-4.8695,-4.866,-4.8678,-4.8678,-4.8732,-4.8768,-4.8785,-4.8804,-4.8839,-4.8804,-4.875,-4.8603,-3.4101,-3.4101,-3.4101,-3.4101,-3.4101,-3.4101,-3.4101,-3.4149,-3.4473,-3.4771,-3.5234,-3.6109,-3.7,-3.7773,-3.8576,-3.9422,-4.0134,-4.075,-4.0853,-4.0871,-4.0871,-4.0871,-4.0871,-4.0871,-4.0871,-4.0871,-4.0871,-4.0871,-4.0871,-4.0871,-4.0871,-4.0957,-4.1285,-4.1405,-4.1578,-4.2196,-4.294,-4.3472,-4.3997,-4.466,-4.568,-4.5816,-4.6412,-4.7117,-4.7565,-4.7864,-4.8288,-4.8324,-4.8324,-4.8324,-4.8324,-4.8324,-4.8324,-4.8324,-4.8324,-4.8324,-4.8324,-4.8324,-4.8324,-4.8324,-4.8324,-4.8306,-4.8363,-4.8363,-4.8363,-4.8363,-4.8438,-4.8458,-4.8513,-4.8624,-4.875,-4.8768,-4.8822,-4.8874,-4.889,-4.889,-4.889,-4.889,-4.889,-4.889,-4.889,-4.8855,-4.875,-4.8768,-4.8822,-4.8857,-4.8841,-4.8822,-4.8839,-4.8804,-4.8768,-4.875,-4.875,-4.8804,-4.8804,-4.875,-4.8695,-4.8839,-4.8874,-4.8874,-4.8874,-4.8909,-4.8855,-4.882,-4.8785,-4.882,-4.8785,-4.8839,-4.8874,-4.8909,-4.8874,-4.8874,-4.8839,-4.8802,-4.8546,-3.4101,-3.4101,-3.4101,-3.4101,-3.4101,-3.4101,-3.4101,-3.4101,-3.4117,-3.4398,-3.4773,-3.5623,-3.6354,-3.7104,-3.8088,-3.9026,-3.9715,-4.0388,-4.0647,-4.0871,-4.0871,-4.0871,-4.0871,-4.0871,-4.0871,-4.0871,-4.0871,-4.0871,-4.0871,-4.0871,-4.0871,-4.0935,-4.0965,-4.0995,-4.1232,-4.1853,-4.2529,-4.3195,-4.3829,-4.465,-4.5406,-4.5847,-4.6177,-4.6874,-4.704,-4.7462,-4.7902,-4.8233,-4.8306,-4.8324,-4.8324,-4.8324,-4.8324,-4.8324,-4.8324,-4.8344,-4.8306,-4.8306,-4.8363,-4.8363,-4.8363,-4.8363,-4.8457,-4.8438,-4.842,-4.8476,-4.855,-4.8605,-4.8642,-4.8697,-4.8804,-4.8839,-4.8839,-4.8874,-4.889,-4.889,-4.889,-4.889,-4.889,-4.889,-4.889,-4.889,-4.882,-4.8785,-4.8874,-4.8892,-4.8857,-4.8857,-4.8874,-4.8874,-4.8855,-4.8855,-4.8855,-4.8855,-4.8855,-4.8874,-4.882,-4.8855,-4.8909,-4.889,-4.889,-4.889,-4.8855,-4.889,-4.9027,-4.9061,-4.8993,-4.889,-4.889,-4.889,-4.889,-4.8874,-4.8839,-4.8526,-4.8157,-3.4101,-3.4101,-3.4101,-3.4101,-3.4101,-3.4101,-3.4101,-3.4101,-3.4101,-3.4349,-3.4691,-3.4903,-3.5713,-3.6854,-3.803,-3.8957,-3.9491,-3.9871,-4.025,-4.0647,-4.0836,-4.0871,-4.0871,-4.0871,-4.0871,-4.0871,-4.0871,-4.0871,-4.0871,-4.0871,-4.0871,-4.0965,-4.1163,-4.1401,-4.1391,-4.1789,-4.2405,-4.2892,-4.3095,-4.3704,-4.4729,-4.5443,-4.5773,-4.6159,-4.6599,-4.7095,-4.7388,-4.7865,-4.8214,-4.8324,-4.8324,-4.8324,-4.8324,-4.8324,-4.8363,-4.8401,-4.8401,-4.8363,-4.8457,-4.8457,-4.8438,-4.8457,-4.8494,-4.8513,-4.8532,-4.8569,-4.8605,-4.8605,-4.8697,-4.8768,-4.8857,-4.8874,-4.8874,-4.8925,-4.8959,-4.8959,-4.8959,-4.9137,-4.9123,-4.909,-4.9155,-4.9075,-4.8974,-4.8925,-4.8909,-4.8874,-4.8874,-4.8909,-4.8909,-4.889,-4.889,-4.889,-4.8925,-4.8925,-4.9027,-4.9027,-4.9075,-4.9008,-4.8993,-4.8959,-4.8959,-4.8993,-4.8925,-4.8993,-4.916,-4.9239,-4.9174,-4.9042,-4.8959,-4.8974,-4.909,-4.8974,-4.8804,-4.8396,-4.789,-3.4101,-3.4101,-3.4101,-3.4101,-3.4101,-3.4101,-3.4101,-3.4101,-3.4101,-3.4349,-3.4691,-3.4913,-3.5609,-3.6635,-3.7568,-3.8094,-3.8577,-3.925,-3.9819,-4.0302,-4.0629,-4.0853,-4.0871,-4.0871,-4.0871,-4.0871,-4.0871,-4.0871,-4.0871,-4.0871,-4.0871,-4.0918,-4.1088,-4.13,-4.149,-4.1692,-4.2216,-4.2729,-4.316,-4.3505,-4.3976,-4.4378,-4.4764,-4.5204,-4.5626,-4.6232,-4.6966,-4.737,-4.7902,-4.8159,-4.8324,-4.8363,-4.8419,-4.8419,-4.8438,-4.855,-4.8532,-4.8495,-4.855,-4.855,-4.855,-4.8587,-4.8624,-4.866,-4.8697,-4.8697,-4.8732,-4.8732,-4.8804,-4.8857,-4.8874,-4.8874,-4.9027,-4.9094,-4.9174,-4.9283,-4.9327,-4.9401,-4.9442,-4.9431,-4.9389,-4.9358,-4.9233,-4.909,-4.9108,-4.9174,-4.9075,-4.8993,-4.8959,-4.889,-4.889,-4.889,-4.8925,-4.8959,-4.916,-4.9257,-4.9389,-4.9358,-4.927,-4.9239,-4.916,-4.9127,-4.9075,-4.9141,-4.9321,-4.9334,-4.9315,-4.9327,-4.9327,-4.9327,-4.9358,-4.907,-4.8805,-4.8319,-4.7679,-3.4101,-3.4101,-3.4101,-3.4101,-3.4101,-3.4101,-3.4101,-3.4101,-3.4101,-3.4399,-3.4866,-3.527,-3.5793,-3.6302,-3.6922,-3.7335,-3.7611,-3.8646,-3.9319,-3.9802,-4.025,-4.0647,-4.0802,-4.0871,-4.0871,-4.0871,-4.0871,-4.0871,-4.0871,-4.0871,-4.0871,-4.0918,-4.1088,-4.1255,-4.149,-4.1864,-4.2418,-4.3032,-4.3339,-4.3499,-4.3571,-4.3552,-4.3901,-4.4287,-4.4709,-4.5259,-4.6287,-4.702,-4.7517,-4.7792,-4.8233,-4.8363,-4.8457,-4.8457,-4.8532,-4.8624,-4.8642,-4.8642,-4.8678,-4.8678,-4.8642,-4.8678,-4.8732,-4.8787,-4.8787,-4.8787,-4.8822,-4.8822,-4.8839,-4.8925,-4.8993,-4.9027,-4.9206,-4.9377,-4.9499,-4.9655,-4.9749,-4.9749,-4.9702,-4.9637,-4.9665,-4.9776,-4.9637,-4.934,-4.9327,-4.9439,-4.9315,-4.9123,-4.909,-4.909,-4.9155,-4.9201,-4.9233,-4.9296,-4.9389,-4.9529,-4.9684,-4.9712,-4.9588,-4.9499,-4.9408,-4.9365,-4.9315,-4.9396,-4.9488,-4.9636,-4.9703,-4.9712,-4.9712,-4.9569,-4.9386,-4.9068,-4.87,-4.8173,-4.7287,-3.4101,-3.4101,-3.4101,-3.4101,-3.4101,-3.4101,-3.4101,-3.4101,-3.4101,-3.4529,-3.5178,-3.5793,-3.6071,-3.6353,-3.6456,-3.6835,-3.7456,-3.7577,-3.8422,-3.925,-3.9819,-4.0233,-4.0543,-4.0784,-4.0871,-4.0871,-4.0871,-4.0871,-4.0918,-4.1012,-4.0918,-4.0918,-4.1255,-4.1401,-4.176,-4.232,-4.2808,-4.3304,-4.3479,-4.3497,-4.3479,-4.3479,-4.3571,-4.3754,-4.4268,-4.48,-4.4966,-4.6122,-4.7039,-4.7297,-4.7829,-4.8345,-4.8458,-4.8532,-4.8606,-4.8697,-4.8768,-4.8768,-4.8804,-4.8804,-4.8768,-4.8822,-4.8857,-4.8874,-4.8927,-4.8909,-4.8909,-4.8993,-4.9075,-4.9141,-4.927,-4.9396,-4.9499,-4.9684,-4.9795,-4.9884,-4.9962,-4.9936,-4.991,-4.983,-4.991,-5.0081,-5.0106,-4.9865,-4.9674,-4.9749,-4.9655,-4.9461,-4.9521,-4.9521,-4.9608,-4.9665,-4.9693,-4.9721,-4.9749,-4.983,-4.9884,-4.991,-4.983,-4.9768,-4.9684,-4.9627,-4.9499,-4.9646,-4.9759,-4.994,-5.0063,-4.9993,-4.9876,-4.9684,-4.94,-4.8926,-4.8045,-4.7159,-4.6282,-3.4101,-3.4101,-3.4101,-3.4101,-3.4101,-3.4101,-3.4101,-3.4101,-3.4101,-3.4529,-3.5224,-3.5481,-3.5898,-3.6174,-3.6301,-3.6439,-3.6818,-3.7335,-3.7853,-3.8491,-3.9163,-3.9802,-4.025,-4.0612,-4.0871,-4.0871,-4.0871,-4.0871,-4.0918,-4.1134,-4.1255,-4.1373,-4.149,-4.1709,-4.2115,-4.2693,-4.325,-4.341,-4.3479,-4.3479,-4.3479,-4.3479,-4.3479,-4.3552,-4.3681,-4.4268,-4.4727,-4.5259,-4.614,-4.6911,-4.7463,-4.796,-4.844,-4.8569,-4.8715,-4.8787,-4.8822,-4.8839,-4.8839,-4.8857,-4.8874,-4.8874,-4.8909,-4.8943,-4.9079,-4.9193,-4.9334,-4.9408,-4.9401,-4.948,-4.9579,-4.9655,-4.9749,-4.9962,-5.0087,-5.0135,-5.0178,-5.0202,-5.0202,-5.0178,-5.031,-5.044,-5.0462,-5.0399,-5.0225,-5.0087,-4.9936,-4.983,-4.9884,-4.991,-4.9936,-4.9962,-4.9962,-5.0012,-5.0038,-5.0062,-5.0087,-5.0087,-5.0087,-5.0006,-4.9922,-4.9684,-4.9617,-4.9814,-4.9993,-5.0114,-5.0163,-5.0163,-5.0038,-4.981,-4.9296,-4.8661,-4.7571,-4.6339,-4.5637,-3.3933,-3.4101,-3.4101,-3.4101,-3.4101,-3.4101,-3.4101,-3.4101,-3.4101,-3.4431,-3.5055,-3.5178,-3.5543,-3.6045,-3.6131,-3.6216,-3.6448,-3.6853,-3.7215,-3.7801,-3.8474,-3.9232,-3.975,-4.0198,-4.056,-4.0767,-4.0918,-4.0918,-4.1117,-4.1401,-4.1578,-4.1692,-4.1846,-4.2115,-4.2239,-4.2902,-4.3393,-4.3479,-4.3479,-4.3479,-4.3479,-4.3479,-4.3479,-4.3479,-4.3552,-4.3754,-4.425,-4.4744,-4.5332,-4.6177,-4.693,-4.761,-4.8125,-4.8566,-4.875,-4.8839,-4.8839,-4.8874,-4.8839,-4.8874,-4.889,-4.8909,-4.8909,-4.9027,-4.9174,-4.9334,-4.9427,-4.9588,-4.9693,-4.983,-4.9865,-4.9917,-5.0081,-5.0291,-5.0355,-5.0421,-5.0483,-5.0523,-5.0565,-5.0584,-5.0663,-5.0643,-5.0604,-5.0565,-5.0504,-5.0377,-5.0313,-5.0245,-5.0245,-5.0245,-5.0221,-5.0221,-5.0221,-5.0268,-5.0294,-5.0313,-5.0333,-5.0333,-5.031,-5.024,-5.012,-4.9895,-4.9814,-5.0019,-5.0163,-5.0255,-5.0145,-4.9935,-4.9924,-4.9912,-4.8987,-4.7827,-4.7261,-4.6148,-4.5696,-3.3594,-3.405,-3.4101,-3.4101,-3.4101,-3.4101,-3.4101,-3.4101,-3.4101,-3.4349,-3.4835,-3.5135,-3.5554,-3.5946,-3.6275,-3.6509,-3.6638,-3.6715,-3.6991,-3.7698,-3.8198,-3.8698,-3.9336,-3.9974,-4.0457,-4.0767,-4.0918,-4.1071,-4.1356,-4.1445,-4.1692,-4.2175,-4.2458,-4.2616,-4.232,-4.2673,-4.3123,-4.3444,-4.3479,-4.3479,-4.3479,-4.3479,-4.3479,-4.3479,-4.3479,-4.3626,-4.3791,-4.423,-4.4762,-4.5277,-4.6359,-4.7093,-4.759,-4.8307,-4.8655,-4.8855,-4.8855,-4.889,-4.889,-4.889,-4.8925,-4.889,-4.889,-4.8959,-4.9027,-4.9206,-4.9518,-4.9712,-4.9822,-4.9968,-5.0111,-5.0225,-5.0399,-5.0504,-5.0565,-5.0604,-5.0663,-5.0683,-5.0683,-5.0683,-5.0683,-5.0683,-5.0683,-5.0683,-5.0663,-5.0643,-5.0663,-5.0624,-5.0544,-5.0523,-5.044,-5.044,-5.0418,-5.044,-5.0502,-5.0542,-5.0542,-5.0582,-5.05,-5.0371,-5.0325,-5.0212,-5.0188,-5.0259,-5.024,-5.0245,-4.9924,-4.9602,-4.9185,-4.8611,-4.7728,-4.6768,-4.6353,-4.605,-4.5609,-3.3917,-3.4101,-3.4101,-3.4101,-3.4101,-3.4101,-3.4101,-3.4101,-3.4151,-3.4431,-3.5077,-3.5663,-3.6366,-3.6891,-3.7332,-3.7531,-3.7705,-3.7818,-3.8129,-3.818,-3.856,-3.9146,-3.9715,-4.0129,-4.056,-4.0802,-4.0918,-4.0965,-4.1088,-4.1401,-4.1778,-4.2239,-4.2902,-4.3178,-4.3142,-4.3268,-4.3428,-4.3479,-4.3479,-4.3479,-4.3479,-4.3479,-4.3479,-4.3479,-4.3479,-4.3479,-4.3479,-4.3952,-4.4193,-4.4562,-4.5678,-4.6264,-4.7037,-4.7829,-4.825,-4.8653,-4.8855,-4.889,-4.8959,-4.9027,-4.9127,-4.9027,-4.8959,-4.9061,-4.9206,-4.948,-4.9693,-4.9929,-5.013,-5.0358,-5.0523,-5.0544,-5.0624,-5.0624,-5.0663,-5.0663,-5.0683,-5.0683,-5.0683,-5.0683,-5.0683,-5.0683,-5.0683,-5.0683,-5.0683,-5.0683,-5.0683,-5.0683,-5.0624,-5.0624,-5.0604,-5.0604,-5.0604,-5.0623,-5.0663,-5.0603,-5.0562,-5.0519,-5.0457,-5.0371,-5.0348,-5.0348,-5.023,-5.0149,-5.0168,-5.0153,-4.9331,-4.8528,-4.7745,-4.6997,-4.6541,-4.6139,-4.5835,-4.5684,-4.5533,-3.3713,-3.4101,-3.4101,-3.4101,-3.4101,-3.4101,-3.4101,-3.4151,-3.425,-3.4578,-3.506,-3.573,-3.6439,-3.7182,-3.7744,-3.8394,-3.8543,-3.8577,-3.8577,-3.8663,-3.9026,-3.9353,-3.9784,-4.025,-4.0491,-4.075,-4.0935,-4.0982,-4.1209,-4.1578,-4.2115,-4.2714,-4.3214,-4.3375,-4.3444,-4.3444,-4.3479,-4.3479,-4.3479,-4.3479,-4.3479,-4.3479,-4.3479,-4.3479,-4.3479,-4.3479,-4.3497,-4.3624,-4.3771,-4.4267,-4.4814,-4.5381,-4.6356,-4.7202,-4.7696,-4.8213,-4.876,-4.8934,-4.922,-4.9346,-4.9408,-4.9315,-4.9201,-4.9296,-4.9539,-4.9776,-4.9968,-5.0225,-5.0504,-5.0624,-5.0683,-5.0683,-5.0683,-5.0683,-5.0683,-5.0683,-5.0683,-5.0683,-5.0683,-5.0683,-5.0683,-5.0683,-5.0683,-5.0663,-5.0663,-5.0683,-5.0683,-5.0683,-5.0683,-5.0683,-5.0683,-5.0663,-5.0663,-5.0643,-5.0623,-5.0563,-5.0521,-5.0457,-5.0412,-5.0348,-5.0325,-5.0325,-5.0168,-4.9939,-4.971,-4.9293,-4.8239,-4.7398,-4.6844,-4.6405,-4.6044,-4.5681,-4.5335,-4.5338,-4.5398,-3.3071,-3.405,-3.4101,-3.4101,-3.4101,-3.4101,-3.4101,-3.4134,-3.4513,-3.4643,-3.4756,-3.5218,-3.6026,-3.682,-3.7047,-3.7757,-3.8601,-3.8732,-3.8853,-3.887,-3.9232,-3.9474,-3.9715,-3.9991,-4.044,-4.0797,-4.0965,-4.1209,-4.1516,-4.199,-4.2655,-4.316,-4.3375,-4.3479,-4.3479,-4.3479,-4.3479,-4.3479,-4.3479,-4.3479,-4.3479,-4.3479,-4.3479,-4.3479,-4.3479,-4.3479,-4.3532,-4.3569,-4.3569,-4.3897,-4.4352,-4.4755,-4.5471,-4.6484,-4.7036,-4.7784,-4.8628,-4.9215,-4.9569,-4.9655,-4.9768,-4.9721,-4.9803,-4.983,-4.983,-4.9962,-5.0111,-5.0272,-5.0504,-5.0604,-5.0683,-5.0683,-5.0683,-5.0683,-5.0683,-5.0683,-5.0683,-5.0683,-5.0683,-5.0683,-5.0683,-5.0683,-5.0683,-5.0683,-5.0663,-5.0663,-5.0702,-5.0702,-5.0702,-5.0663,-5.0663,-5.0623,-5.0623,-5.0643,-5.0584,-5.0485,-5.0478,-5.0412,-5.0352,-5.0329,-5.0283,-5.0015,-4.9652,-4.9308,-4.9041,-4.843,-4.7494,-4.6787,-4.6214,-4.5831,-4.5642,-4.5547,-4.5317,-4.5338,-4.5359,-3.3371,-3.4101,-3.4101,-3.4101,-3.4101,-3.4101,-3.4101,-3.4101,-3.425,-3.4399,-3.4724,-3.5685,-3.6325,-3.6951,-3.7723,-3.8522,-3.9032,-3.9474,-3.9836,-3.9922,-3.9922,-4.0267,-4.0422,-4.0491,-4.0698,-4.0908,-4.1134,-4.1328,-4.1666,-4.2216,-4.2711,-4.3032,-4.3393,-4.3444,-4.3479,-4.3479,-4.3479,-4.3479,-4.3479,-4.3479,-4.3479,-4.3479,-4.3479,-4.3479,-4.3479,-4.3479,-4.3513,-4.3532,-4.3532,-4.3642,-4.3787,-4.4149,-4.5226,-4.5732,-4.6238,-4.8149,-4.8983,-4.9608,-4.9776,-4.9943,-4.9967,-4.9983,-5.0153,-5.013,-5.0038,-4.9986,-5.0172,-5.0358,-5.037,-5.0413,-5.0356,-5.0337,-5.0394,-5.0433,-5.0471,-5.0529,-5.0567,-5.0683,-5.0683,-5.0683,-5.0683,-5.0683,-5.0683,-5.0663,-5.0643,-5.0682,-5.0682,-5.0682,-5.0682,-5.0643,-5.0623,-5.0603,-5.0352,-5.0275,-5.0389,-5.0327,-5.038,-5.039,-5.0119,-4.9809,-4.9538,-4.9232,-4.8945,-4.8487,-4.7952,-4.7417,-4.6806,-4.6194,-4.5736,-4.5564,-4.5392,-4.5376,-4.5338,-4.5338,-4.5359,-3.3214,-3.3748,-3.3984,-3.4101,-3.4101,-3.4101,-3.4101,-3.4101,-3.4234,-3.4546,-3.4963,-3.5769,-3.6525,-3.7182,-3.7833,-3.8474,-3.9146,-3.9508,-3.9853,-4.0112,-4.0716,-4.0784,-4.0853,-4.0871,-4.0853,-4.0995,-4.1117,-4.1283,-4.1709,-4.2378,-4.292,-4.3196,-4.3428,-4.3444,-4.3479,-4.3479,-4.3479,-4.3479,-4.3479,-4.3479,-4.3479,-4.3479,-4.3479,-4.3479,-4.3479,-4.3479,-4.3479,-4.3479,-4.3479,-4.3479,-4.3479,-4.3833,-4.4772,-4.5195,-4.61,-4.7775,-4.8337,-4.8732,-4.8962,-4.9541,-4.957,-4.9616,-4.9873,-4.9676,-4.9745,-4.9765,-5.0153,-5.0445,-5.0258,-5.0106,-4.999,-4.9913,-5.001,-5.0106,-5.0202,-5.0317,-5.0471,-5.0664,-5.0683,-5.0683,-5.0683,-5.0683,-5.0663,-5.0643,-5.0643,-5.0663,-5.0682,-5.0682,-5.0643,-5.0623,-5.0603,-5.0562,-5.0157,-4.985,-4.9925,-4.9808,-4.9516,-4.9299,-4.9045,-4.8796,-4.8621,-4.843,-4.8105,-4.7436,-4.6653,-4.629,-4.6061,-4.5755,-4.5373,-4.5277,-4.5297,-4.5317,-4.5338,-4.5338,-4.5359,-3.2749,-3.3251,-3.3866,-3.4101,-3.4101,-3.4101,-3.4101,-3.4151,-3.4448,-3.4787,-3.5102,-3.556,-3.6236,-3.684,-3.7283,-3.7818,-3.8439,-3.8974,-3.9284,-3.9646,-4.0319,-4.0578,-4.0647,-4.0884,-4.0871,-4.0935,-4.1088,-4.1401,-4.1821,-4.2458,-4.3069,-4.3479,-4.3479,-4.3479,-4.3479,-4.3479,-4.3479,-4.3479,-4.3479,-4.3479,-4.3479,-4.3479,-4.3479,-4.3479,-4.3479,-4.3479,-4.3479,-4.3479,-4.3479,-4.3479,-4.3566,-4.3719,-4.4327,-4.519,-4.635,-4.7068,-4.771,-4.8063,-4.8405,-4.8873,-4.8759,-4.8741,-4.8817,-4.8837,-4.9028,-4.9277,-4.9643,-4.972,-4.9471,-4.9336,-4.9202,-4.9086,-4.9106,-4.949,-4.9798,-5.0144,-5.0548,-5.0664,-5.0683,-5.0683,-5.0683,-5.0683,-5.0683,-5.0663,-5.0663,-5.0683,-5.0683,-5.0663,-5.0528,-5.0469,-5.0235,-5.0234,-4.9865,-4.9367,-4.8982,-4.8788,-4.8367,-4.8094,-4.8012,-4.7859,-4.7761,-4.7532,-4.7283,-4.6615,-4.5965,-4.5679,-4.5411,-4.5277,-4.5277,-4.5277,-4.5317,-4.5337,-4.5357,-4.5317,-4.5339,-3.268,-3.3251,-3.3866,-3.4101,-3.4101,-3.4101,-3.4101,-3.4101,-3.4201,-3.4284,-3.4464,-3.5038,-3.5537,-3.5972,-3.6465,-3.7051,-3.7698,-3.8146,-3.837,-3.8922,-3.9646,-3.9974,-4.0095,-4.0405,-4.0681,-4.1012,-4.1255,-4.1603,-4.219,-4.2678,-4.3123,-4.3444,-4.3479,-4.3479,-4.3479,-4.3479,-4.3479,-4.3479,-4.3479,-4.3479,-4.3479,-4.3479,-4.3479,-4.3479,-4.3479,-4.3479,-4.3479,-4.3479,-4.3479,-4.3479,-4.3479,-4.3777,-4.4317,-4.5436,-4.6235,-4.6825,-4.7331,-4.7606,-4.7857,-4.8106,-4.8106,-4.8125,-4.8202,-4.8221,-4.8336,-4.8586,-4.8702,-4.8682,-4.8625,-4.8509,-4.8375,-4.8259,-4.8317,-4.8836,-4.9375,-4.9952,-5.0529,-5.0644,-5.0683,-5.0683,-5.0683,-5.0683,-5.0683,-5.0683,-5.0683,-5.0683,-5.0683,-5.0586,-5.0278,-5.0065,-4.9468,-4.935,-4.9346,-4.8922,-4.8384,-4.7829,-4.7386,-4.7444,-4.7518,-4.7248,-4.6901,-4.6596,-4.6309,-4.5889,-4.5411,-4.5316,-4.5277,-4.5277,-4.5277,-4.5277,-4.5297,-4.5317,-4.5317,-4.5317,-4.5339,-3.191,-3.254,-3.3371,-3.3866,-3.405,-3.4101,-3.4101,-3.4101,-3.4101,-3.4101,-3.4151,-3.4706,-3.5131,-3.5407,-3.5915,-3.6371,-3.6999,-3.737,-3.7732,-3.8249,-3.8784,-3.9112,-3.9457,-3.9715,-3.9664,-4.0008,-4.0963,-4.1622,-4.2186,-4.2959,-4.3339,-4.3406,-4.3424,-4.3424,-4.3442,-4.3461,-4.3461,-4.3479,-4.3479,-4.3479,-4.3479,-4.3479,-4.3479,-4.3479,-4.3479,-4.3479,-4.3479,-4.3479,-4.3479,-4.3631,-4.3777,-4.4125,-4.4655,-4.5342,-4.5851,-4.6186,-4.6551,-4.6972,-4.7124,-4.7298,-4.7375,-4.7298,-4.749,-4.7451,-4.6817,-4.7067,-4.774,-4.7759,-4.7721,-4.7605,-4.7375,-4.7221,-4.7682,-4.8221,-4.8702,-4.9221,-5.0067,-5.0664,-5.0683,-5.0683,-5.0683,-5.0683,-5.0683,-5.0683,-5.0683,-5.0683,-5.0683,-5.0259,-4.997,-4.9431,-4.8853,-4.837,-4.8269,-4.8018,-4.7403,-4.6887,-4.6447,-4.6619,-4.6925,-4.6483,-4.6042,-4.5679,-4.5316,-4.5316,-4.5316,-4.5297,-4.5277,-4.5277,-4.5277,-4.5277,-4.5277,-4.5297,-4.5277,-4.5297,-4.5319,-3.0885,-3.1713,-3.2902,-3.3646,-3.405,-3.4101,-3.4101,-3.4101,-3.4101,-3.4101,-3.4151,-3.4448,-3.5055,-3.5498,-3.5827,-3.6045,-3.6388,-3.6904,-3.7249,-3.7508,-3.8112,-3.8353,-3.8508,-3.8646,-3.8926,-3.9382,-4.0176,-4.0704,-4.1148,-4.2014,-4.2664,-4.3096,-4.3204,-4.3222,-4.3296,-4.3332,-4.3259,-4.3424,-4.3479,-4.3479,-4.3479,-4.3479,-4.3479,-4.3479,-4.3479,-4.3479,-4.3479,-4.3479,-4.3479,-4.3744,-4.4053,-4.4419,-4.4757,-4.5189,-4.5398,-4.5688,-4.5819,-4.5932,-4.5951,-4.6432,-4.622,-4.6124,-4.6509,-4.6413,-4.5836,-4.6028,-4.6701,-4.6855,-4.6817,-4.6721,-4.649,-4.649,-4.7009,-4.7913,-4.8394,-4.8933,-4.9894,-5.0683,-5.0683,-5.0683,-5.0663,-5.0663,-5.0663,-5.0683,-5.0625,-5.0625,-5.0317,-4.9912,-4.9392,-4.8622,-4.7949,-4.7371,-4.7004,-4.6674,-4.6366,-4.6175,-4.5833,-4.5814,-4.6006,-4.5564,-4.5277,-4.5277,-4.5277,-4.5297,-4.5297,-4.5277,-4.5277,-4.5277,-4.5277,-4.5277,-4.5277,-4.5277,-4.5277,-4.5297,-4.5317,-3.0723,-3.2248,-3.3422,-3.3968,-3.4101,-3.4101,-3.4101,-3.4101,-3.4101,-3.4101,-3.4101,-3.4201,-3.461,-3.5333,-3.5694,-3.5958,-3.6208,-3.6586,-3.6542,-3.6646,-3.7353,-3.7611,-3.7784,-3.8035,-3.866,-3.9066,-3.9417,-3.9864,-4.047,-4.0944,-4.1282,-4.1684,-4.1699,-4.1956,-4.2506,-4.2616,-4.2873,-4.3149,-4.3442,-4.3479,-4.3479,-4.3479,-4.3479,-4.3479,-4.3479,-4.3479,-4.3479,-4.3479,-4.3649,-4.3936,-4.426,-4.4624,-4.4915,-4.5118,-4.5283,-4.5457,-4.5549,-4.5586,-4.5778,-4.5893,-4.572,-4.572,-4.6028,-4.597,-4.5624,-4.5643,-4.6047,-4.6047,-4.6009,-4.6009,-4.5874,-4.5874,-4.6317,-4.799,-4.8971,-4.9683,-5.0529,-5.0683,-5.0663,-5.0643,-5.0623,-5.0623,-5.0623,-5.0526,-5.0411,-5.0218,-4.9699,-4.9255,-4.8795,-4.7968,-4.7103,-4.6545,-4.5967,-4.5681,-4.5526,-4.5679,-4.5468,-4.5335,-4.5277,-4.5277,-4.5277,-4.5277,-4.5277,-4.5277,-4.5277,-4.5277,-4.5277,-4.5277,-4.5277,-4.5277,-4.5277,-4.5277,-4.5277,-4.5297,-4.5317]}]]